GFSMW_700_rhum_000.txt.gz
RH
16 14 11 11 14 15 20 22 30 34 47 50 50 42 26 18 26 27 22 18 13 13 17 20 22 22 23 23 23 23 23 23 22 20 22 23 24 25 25 27 27 27 27
17 17 15 13 8 5 13 21 22 29 38 46 47 44 33 25 35 27 19 16 14 17 21 22 23 24 24 24 24 24 25 26 25 21 22 22 22 22 24 25 25 26 26
20 20 12 5 2 2 6 17 25 26 39 46 47 36 33 26 28 20 21 22 22 22 22 22 25 27 28 29 28 25 24 25 27 26 24 22 20 21 23 24 24 25 26
22 20 20 17 11 4 8 13 24 25 35 44 47 38 29 21 26 28 22 23 22 21 21 24 28 27 27 26 28 29 27 26 26 28 26 24 24 24 22 23 26 27 28
23 22 20 19 20 17 10 10 20 24 27 32 34 28 24 21 26 26 22 21 20 18 20 28 27 26 26 25 24 25 29 28 26 28 28 28 25 26 25 23 24 25 28
24 24 24 23 21 20 18 16 15 15 16 16 16 16 15 17 19 20 22 24 19 17 24 27 26 27 27 28 29 28 26 28 30 28 29 29 27 25 29 29 28 28 26
30 25 23 22 21 20 19 17 16 16 15 14 15 18 22 22 20 22 21 18 14 19 27 28 27 28 30 31 31 31 30 28 28 31 29 30 29 30 26 30 30 31 29
35 31 26 24 23 20 20 19 19 21 22 22 19 18 19 19 20 19 19 18 20 29 30 30 31 32 33 34 34 33 32 30 29 28 32 31 30 32 32 30 32 30 28
35 35 36 38 30 24 23 23 24 22 20 19 19 20 21 20 18 19 20 21 28 27 28 29 30 31 34 36 36 36 34 34 33 28 28 34 33 32 35 37 37 37 37
30 31 34 38 42 40 34 33 34 30 26 25 24 23 23 23 24 22 22 23 25 28 30 30 30 28 28 31 36 37 36 37 35 36 30 30 34 34 36 39 42 43 44
32 30 28 25 25 29 37 42 43 43 41 36 30 27 26 30 31 30 30 27 26 27 31 33 35 36 39 37 32 36 39 36 36 38 39 30 32 36 38 40 42 50 58
29 22 20 21 22 24 23 24 30 33 35 34 40 42 37 31 30 34 36 36 35 31 32 33 34 34 35 37 41 36 45 41 39 41 41 38 30 34 39 52 55 51 55
31 34 39 40 36 35 33 32 29 28 27 27 26 32 42 45 44 42 41 43 43 40 37 34 35 37 36 38 39 39 44 42 41 42 42 43 38 31 37 51 55 55 65
42 51 57 53 44 41 42 48 50 50 49 48 51 48 46 51 49 50 50 50 51 51 52 51 50 49 51 54 56 46 40 41 42 52 47 43 44 41 32 40 56 59 62
66 62 52 52 62 63 74 79 78 75 68 56 53 50 57 69 70 68 60 58 60 60 59 59 60 54 50 40 37 38 40 48 44 50 61 58 49 44 40 36 55 60 61
63 60 66 73 82 86 82 78 70 70 66 53 58 63 60 54 61 70 70 69 69 67 65 64 66 67 60 41 37 38 52 58 58 53 53 60 62 65 45 34 46 81 74
70 84 90 84 72 67 62 55 52 49 50 47 43 44 40 36 42 51 59 48 47 61 72 72 73 74 72 67 61 50 46 58 67 64 64 62 66 72 68 40 49 90 98
74 72 67 61 54 51 51 50 48 45 46 46 45 42 39 36 36 40 40 41 40 43 47 59 77 77 76 72 62 50 46 52 58 59 62 59 67 76 83 66 49 75 85
64 60 57 56 54 51 47 50 53 52 51 51 52 48 44 39 36 36 40 42 42 45 48 63 64 61 82 78 77 62 47 51 59 62 55 61 64 82 80 73 56 58 79
58 57 59 56 54 54 53 55 59 62 61 59 57 55 53 51 47 42 41 41 41 42 48 50 64 62 76 85 94 89 77 56 56 58 74 78 66 72 80 76 70 57 58
66 68 66 61 61 64 66 67 68 69 70 68 64 60 60 60 59 53 50 46 44 48 51 50 49 62 63 91 97 98 98 68 51 58 56 72 71 65 77 88 89 65 68
75 74 76 73 71 70 67 64 64 65 63 64 66 69 68 64 64 62 56 57 57 57 50 46 44 46 55 58 74 90 98 96 62 49 55 59 62 63 62 82 89 78 98
80 75 69 63 64 65 63 60 62 63 62 62 64 66 67 67 66 68 61 56 64 67 58 55 48 43 47 48 66 66 94 95 89 66 55 57 60 76 67 78 95 91 98
73 70 67 62 56 56 55 52 48 45 45 46 46 45 49 56 64 72 75 70 73 75 66 63 60 56 55 54 60 72 85 88 98 85 63 64 76 88 62 70 89 97 98
66 49 33 20 13 10 8 8 8 8 9 11 16 20 25 34 49 59 71 74 78 88 78 76 71 72 66 62 69 76 85 95 100 94 70 61 74 64 55 56 76 98 95
8 5 5 5 5 6 7 10 11 12 13 13 13 14 15 17 24 37 48 60 79 85 89 82 79 84 85 79 72 81 95 100 99 99 97 71 53 59 68 87 96 98 98

GFSMW_700_rhum_003.txt.gz
RH
17 16 15 14 12 14 18 20 27 26 43 49 50 50 52 52 52 48 27 36 46 45 27 14 13 17 21 22 24 25 26 25 25 25 26 26 25 22 21 22 23 25 27
18 18 19 17 17 15 14 14 22 29 32 39 48 48 49 50 50 44 27 44 42 28 24 20 17 20 22 23 26 28 28 29 28 26 26 26 26 24 23 21 22 24 24
22 22 22 23 19 13 7 4 9 18 29 31 33 43 44 48 48 40 34 28 38 30 25 23 20 19 22 25 28 26 26 25 27 28 28 27 25 27 25 24 22 24 25
25 25 24 23 21 22 19 8 9 11 26 34 33 40 43 47 47 44 40 30 32 28 29 27 23 20 21 24 28 27 26 26 25 27 27 28 29 33 33 29 25 22 25
27 25 24 24 22 21 20 18 11 10 19 28 28 30 32 45 48 38 37 27 29 31 28 27 27 22 19 26 29 28 30 31 31 30 30 29 30 30 30 30 31 30 26
28 28 27 26 24 23 21 20 18 19 22 28 30 29 29 29 27 32 29 32 29 30 29 30 29 24 22 29 30 30 31 33 34 33 32 30 29 28 32 32 31 36 32
33 30 28 28 26 24 22 22 23 24 23 24 26 27 27 27 26 26 26 25 25 25 26 26 23 20 24 30 31 32 34 35 35 35 34 33 32 29 29 31 32 38 36
34 34 36 37 38 35 28 22 22 23 24 25 25 25 24 24 24 24 26 27 27 26 25 20 21 28 30 31 33 33 33 34 36 35 36 36 34 34 31 30 35 37 37
34 37 36 34 35 39 43 39 34 34 33 30 28 28 27 27 27 26 25 24 22 22 23 26 30 27 26 28 28 28 29 30 33 32 35 38 37 36 38 34 30 35 42
33 28 28 25 22 23 26 26 32 41 43 42 42 42 40 36 35 35 33 31 29 26 26 28 30 34 35 37 38 39 40 40 40 38 36 37 37 40 40 39 31 32 37
36 34 26 21 21 22 22 23 24 26 26 27 33 39 40 40 42 43 40 40 38 36 35 37 33 30 30 33 37 40 40 40 40 40 38 40 43 41 44 42 37 32 33
40 31 31 31 36 40 40 38 37 36 38 39 43 43 36 33 31 34 41 48 50 52 52 49 45 42 41 42 42 41 41 41 40 39 39 38 38 40 42 52 44 42 37
33 32 37 40 45 46 42 41 42 41 42 45 48 48 52 53 51 47 45 47 49 50 52 57 60 60 60 60 59 59 58 58 55 61 62 56 47 44 43 50 59 44 46
46 46 47 55 56 55 55 58 65 65 64 60 51 47 43 45 50 50 48 45 44 51 53 52 52 55 57 57 60 65 63 53 50 53 58 54 56 48 46 52 65 61 59
59 61 60 58 56 58 62 70 65 54 47 45 45 46 46 44 43 41 35 34 37 35 38 52 53 43 49 61 65 70 73 73 69 50 49 58 59 58 53 54 62 80 86
60 62 64 62 66 69 66 56 50 48 48 44 42 45 46 46 44 38 32 28 24 22 26 30 38 42 42 64 79 85 83 79 73 67 52 51 59 67 61 60 67 75 80
65 69 70 69 66 60 54 56 56 51 48 46 45 45 48 48 45 41 40 39 37 34 32 34 36 38 43 49 64 80 96 92 85 76 69 60 62 75 77 70 71 77 85
73 71 71 72 68 63 60 60 59 53 52 50 50 51 50 49 50 49 48 46 42 41 42 39 37 36 35 44 60 73 79 97 98 90 77 58 55 61 64 69 68 75 96
71 72 73 70 66 66 69 69 62 59 58 56 54 51 48 46 45 45 45 46 45 45 45 45 43 44 42 51 56 57 65 69 90 95 90 68 59 61 67 80 95 86 92
70 70 73 76 78 75 68 65 65 63 60 56 54 50 47 45 45 47 48 51 55 51 50 49 49 51 51 52 53 53 51 55 59 65 97 91 74 65 73 92 97 98 87
79 87 95 90 78 69 64 60 56 52 49 44 39 37 39 46 51 53 56 58 61 62 59 58 53 53 57 55 53 52 55 64 59 57 63 92 98 83 61 71 96 98 98
97 93 86 78 70 64 59 54 44 29 16 9 6 8 14 25 32 38 44 52 61 66 67 69 62 55 55 64 57 52 58 69 74 77 73 85 92 99 72 80 88 96 87
95 90 81 75 63 46 17 3 2 2 2 2 2 2 2 5 7 9 13 23 35 59 67 74 71 64 61 73 67 55 54 67 88 94 97 98 88 97 90 70 77 86 78
96 91 84 54 11 3 7 7 6 6 6 6 6 7 8 8 9 11 11 12 13 18 36 64 82 84 73 75 74 60 50 57 68 78 92 86 84 87 92 77 76 85 98
92 78 18 4 8 11 11 9 9 8 8 7 7 6 6 7 8 8 10 12 14 18 20 24 39 76 81 83 82 70 57 60 72 80 81 92 88 100 91 76 92 98 99
18 4 6 10 12 13 12 10 10 9 8 7 8 10 11 12 12 12 10 10 11 13 16 20 25 30 68 87 94 78 69 82 80 76 91 92 100 100 97 65 80 86 92

GFSMW_700_rhum_006.txt.gz
RH
13 14 16 15 15 16 18 19 18 18 21 22 28 32 44 50 52 52 52 53 53 47 28 38 30 27 25 20 18 20 23 26 27 27 27 28 27 26 26 26 28 28 27
19 16 19 21 23 18 12 10 9 17 23 24 26 32 33 40 50 50 47 50 52 48 37 41 43 37 28 25 22 20 22 25 29 28 26 24 24 23 26 28 27 26 29
22 23 24 24 23 22 22 20 11 8 10 20 23 33 36 34 39 45 46 50 46 46 46 40 38 42 39 34 29 26 24 25 30 28 28 29 29 28 26 24 25 26 27
26 26 25 24 24 23 21 20 18 11 14 15 17 30 38 36 40 44 45 49 47 47 43 41 36 39 36 33 31 30 24 24 30 29 30 32 32 31 31 28 26 26 28
27 26 25 24 24 23 23 22 20 18 18 23 30 37 40 41 41 41 42 44 45 43 40 34 35 34 35 33 31 31 25 25 31 30 32 33 34 34 34 32 29 29 27
28 29 30 30 28 27 26 24 22 20 20 23 31 38 40 37 31 30 30 29 28 28 28 29 30 31 32 30 31 30 24 27 31 32 33 35 36 35 36 36 34 33 32
30 32 35 37 38 38 38 36 28 24 24 25 26 27 28 28 27 27 26 25 25 27 30 30 30 29 28 28 27 26 27 30 32 34 35 36 37 38 38 38 38 38 36
33 33 35 36 36 30 25 29 40 42 36 32 31 30 29 29 29 29 31 31 31 30 30 26 25 23 23 26 33 35 34 34 35 34 33 34 35 37 39 40 41 44 43
31 32 33 31 26 24 18 16 16 22 28 34 41 44 45 44 44 42 42 44 43 41 40 39 36 36 36 35 36 33 33 34 34 34 36 38 38 38 43 46 44 42 43
33 35 34 31 33 28 18 20 25 28 27 28 28 28 28 33 37 39 38 43 49 50 51 50 46 45 46 44 43 41 42 42 42 41 42 42 42 42 41 43 40 41 43
36 36 36 37 34 22 24 30 34 36 36 35 36 38 38 38 40 41 42 42 40 40 44 52 57 58 61 62 62 60 57 54 54 54 56 58 54 50 48 48 46 53 47
34 34 38 36 34 36 36 40 41 41 42 44 44 42 39 38 37 37 37 45 51 51 49 45 42 45 51 58 67 69 69 69 68 65 64 73 75 72 78 85 80 87 86
43 46 49 43 43 47 50 47 50 54 53 54 49 44 40 40 39 36 34 32 33 40 39 36 38 39 44 53 57 58 61 64 67 73 71 72 68 65 78 76 84 67 68
43 49 48 48 55 62 56 57 60 61 56 48 47 48 46 45 43 41 39 38 36 34 32 30 27 26 27 29 29 42 48 45 55 62 68 72 74 74 65 53 60 68 67
49 50 54 61 69 67 70 69 65 60 56 54 54 54 50 47 46 46 46 47 47 44 42 38 36 34 29 28 37 42 43 43 42 45 62 72 76 74 75 64 60 75 81
52 53 56 62 64 68 68 68 67 65 64 66 67 61 55 52 50 47 44 42 41 40 40 40 40 39 39 38 38 40 39 38 45 50 52 67 79 86 88 79 65 62 79
63 57 56 68 74 72 72 71 72 72 70 65 62 60 58 54 51 47 43 40 36 33 33 36 40 44 46 47 47 44 44 44 47 46 51 65 69 79 96 93 82 64 63
70 63 77 84 75 75 78 85 87 79 70 66 62 58 53 49 43 35 25 18 16 18 22 30 40 48 54 57 59 56 56 50 48 48 49 51 61 72 92 100 94 83 63
73 78 86 79 86 93 97 90 80 70 64 60 53 41 24 11 4 2 1 2 3 8 16 28 40 55 65 66 64 62 58 56 53 48 45 47 48 59 62 67 91 89 78
86 88 89 97 100 96 89 82 75 64 51 31 13 4 4 4 4 4 4 3 3 3 3 8 28 46 55 64 73 81 72 60 59 53 46 45 47 46 57 73 80 85 84
98 99 100 98 96 93 88 85 79 40 12 6 6 6 6 6 6 5 5 5 5 5 5 5 6 12 34 55 67 81 81 76 68 61 50 45 49 56 56 78 89 92 100
91 93 88 93 96 94 90 72 21 8 7 8 9 9 8 8 7 6 5 5 4 4 5 7 8 8 10 21 48 71 87 87 79 66 54 52 63 65 68 87 92 100 98
95 91 92 92 93 88 35 8 8 9 10 12 12 12 11 10 8 6 5 4 6 8 7 7 7 8 9 12 14 34 58 80 80 70 58 55 70 78 73 90 88 98 88
95 95 92 84 51 9 7 10 12 14 16 17 16 14 12 9 8 7 8 10 11 12 14 13 10 9 10 12 15 15 29 58 77 69 57 54 66 83 96 92 97 100 99
96 92 80 32 7 8 11 15 18 21 21 20 18 14 11 10 9 10 12 14 16 21 23 21 20 20 16 14 17 17 20 37 73 78 71 61 65 69 95 99 100 99 98
95 68 13 7 10 12 16 20 23 24 21 20 16 13 13 13 14 15 14 17 22 24 26 28 28 24 21 21 16 17 22 30 59 82 73 69 90 90 89 96 99 99 97

GFSMW_700_rhum_009.txt.gz
RH
19 15 17 19 18 17 19 17 15 15 10 9 14 20 27 33 36 39 48 53 54 54 54 56 55 52 47 43 42 42 35 27 25 25 24 27 28 27 27 27 26 25 25
20 19 18 21 23 24 23 20 19 15 10 11 10 12 21 31 38 41 40 45 48 47 49 52 46 47 46 42 38 42 41 36 32 30 30 25 28 28 30 29 29 28 28
22 23 24 25 25 24 24 22 21 18 14 14 15 17 20 24 37 42 42 46 46 45 48 50 48 49 45 43 37 38 39 37 36 33 33 28 30 30 30 30 31 31 30
27 28 27 26 24 24 23 23 22 21 20 19 20 23 26 31 40 43 43 42 43 42 42 45 48 45 44 35 36 36 36 36 36 36 30 29 32 32 31 32 34 35 34
27 26 26 26 27 27 28 30 31 28 23 22 22 27 34 41 44 45 44 38 32 31 31 32 31 30 30 31 34 34 35 34 34 33 29 28 32 33 34 35 34 37 37
28 28 30 32 34 36 36 31 27 30 36 34 24 24 26 27 28 28 28 28 28 29 30 30 28 28 29 32 33 34 32 32 36 38 32 33 34 34 36 37 38 37 36
30 32 35 38 38 35 27 26 21 18 20 34 42 37 32 29 28 28 28 28 28 29 30 32 34 35 34 30 28 31 36 34 36 36 38 43 42 43 42 45 38 38 38
32 36 35 34 34 33 32 33 30 20 22 22 26 32 42 45 46 46 45 44 45 45 43 42 41 41 41 38 36 36 56 41 78 52 47 50 58 62 77 67 64 70 52
34 34 35 36 37 36 33 32 27 23 30 34 35 35 35 35 35 36 38 40 42 43 44 51 58 60 62 60 56 49 43 44 62 66 67 73 71 71 72 73 77 85 85
37 37 36 37 35 35 35 32 30 36 40 40 41 42 41 41 40 39 38 38 38 38 40 43 45 45 46 51 60 66 69 68 64 59 58 71 76 77 81 84 89 94 97
40 40 38 38 39 41 40 38 40 46 46 45 47 47 46 45 41 39 38 37 37 36 35 34 34 41 46 46 46 44 47 60 67 74 75 71 68 66 71 78 80 85 88
42 43 44 45 43 44 46 45 46 52 52 55 56 56 54 51 48 47 46 44 42 40 38 35 34 34 34 35 33 32 35 38 50 62 66 67 69 72 72 77 80 80 80
47 50 51 52 52 49 51 55 62 60 62 63 63 62 58 53 53 52 50 47 46 44 41 38 35 35 36 35 34 35 31 27 27 30 31 37 46 50 66 74 78 75 77
53 55 56 53 50 54 59 67 69 69 67 67 65 63 61 62 58 53 50 49 48 47 44 41 39 37 36 36 37 38 38 36 34 32 31 34 36 42 46 62 78 84 85
54 55 54 54 57 64 72 74 71 70 71 72 77 76 74 66 58 53 50 47 43 36 28 21 18 20 23 30 38 40 35 36 35 37 39 39 38 38 48 64 69 84 88
58 59 60 60 63 66 71 72 77 76 80 84 78 69 63 59 54 45 32 17 7 4 3 3 3 3 3 10 31 38 40 43 45 42 42 43 41 40 41 47 64 79 95
62 66 68 70 73 75 76 87 90 87 90 78 73 68 57 38 16 6 5 5 5 5 4 4 4 4 3 3 11 16 28 52 57 57 54 47 47 49 48 43 44 52 69
69 75 77 79 79 82 86 92 92 90 81 77 73 55 23 9 7 7 7 7 6 6 6 5 5 4 4 5 6 8 29 42 56 67 72 66 55 56 57 50 43 40 41
72 77 88 96 99 95 99 97 86 84 83 79 59 22 8 8 8 9 9 9 8 7 6 5 5 4 4 5 6 9 10 16 36 58 66 76 69 66 66 59 48 40 37
94 98 97 88 90 92 91 83 83 83 81 51 15 8 10 12 13 14 13 11 9 7 6 6 5 4 4 4 6 9 12 12 18 33 56 68 77 70 65 62 53 43 37
99 99 93 80 84 89 85 84 87 75 30 10 9 13 16 17 18 17 14 11 9 8 7 6 6 6 7 9 8 6 9 13 15 13 28 54 72 73 66 62 58 57 55
97 92 82 86 92 95 89 80 45 15 9 11 15 18 21 22 21 18 14 11 10 9 8 8 7 8 10 12 12 10 8 11 16 17 19 41 68 76 68 60 62 74 78
97 95 93 95 97 95 78 17 7 10 12 15 17 22 26 25 24 19 15 12 11 10 10 11 12 13 15 16 16 14 10 10 17 20 21 40 72 79 66 62 68 83 98
95 95 99 97 97 74 15 8 12 14 14 16 22 29 30 28 26 20 15 13 12 12 13 14 17 21 22 23 22 16 13 11 16 18 19 40 72 79 70 80 92 87 95
86 96 97 95 88 40 10 13 15 16 17 25 34 34 31 29 26 19 15 14 14 17 18 20 24 29 28 29 29 26 19 16 16 19 22 36 61 72 67 87 95 93 94
98 99 93 47 11 10 13 16 18 24 36 42 40 35 33 30 22 18 15 14 16 18 21 24 32 31 35 36 34 31 22 19 17 18 24 30 45 60 59 90 92 96 93

GFSMW_700_rhum_012.txt.gz
RH
29 27 26 25 21 18 22 24 23 22 20 18 16 22 25 22 28 37 40 44 44 43 49 51 48 49 54 50 48 48 46 43 39 43 41 38 36 30 24 26 29 30 31
27 22 20 20 22 24 24 24 23 22 21 19 16 18 24 24 26 31 38 45 45 45 46 46 45 45 50 51 49 49 48 45 42 39 42 40 32 30 28 26 30 30 32
22 22 24 25 26 26 25 24 23 23 22 21 20 21 24 28 33 34 35 42 45 45 44 44 42 40 40 45 48 48 46 43 37 37 39 42 38 37 29 24 29 31 31
25 27 28 27 26 26 26 28 33 33 30 31 31 26 23 25 27 31 36 40 43 43 40 33 30 29 30 30 31 32 31 32 32 37 35 36 37 47 44 27 27 32 32
29 28 28 28 29 31 33 34 27 23 22 17 17 27 32 29 26 26 27 28 28 29 28 27 26 26 26 27 27 29 33 35 36 37 38 35 33 35 43 41 28 32 33
29 30 32 32 34 36 36 31 30 32 28 22 21 27 39 40 37 35 35 35 35 35 36 37 37 37 36 36 34 32 32 40 71 91 92 69 69 49 45 50 73 78 36
30 32 33 37 36 36 36 35 32 27 27 25 26 27 28 34 39 42 44 46 46 46 47 48 50 53 54 53 50 46 44 46 71 88 94 91 89 98 90 77 66 72 71
32 34 39 37 38 38 34 31 37 38 36 35 38 39 38 38 39 39 39 39 38 38 38 39 40 42 45 48 54 60 64 65 61 60 61 80 89 91 97 92 99 93 73
34 39 40 39 38 36 36 42 44 44 42 43 45 44 44 45 45 44 43 42 40 39 37 36 36 36 35 37 44 52 54 55 59 63 68 69 63 61 72 90 98 93 98
37 41 45 43 42 40 41 44 45 49 50 49 51 51 52 54 54 54 54 51 48 46 44 43 42 40 39 37 35 34 35 42 45 47 52 64 68 70 73 72 68 72 84
43 47 46 46 44 48 52 49 49 54 55 55 56 58 60 61 60 59 57 55 54 51 48 45 43 42 41 40 38 36 36 35 33 32 31 31 34 43 60 71 74 75 77
50 47 46 50 54 54 52 53 55 58 62 64 65 65 64 65 66 65 62 59 56 54 50 46 44 44 43 42 39 37 36 37 37 37 37 35 34 30 30 35 42 55 67
47 50 57 58 54 54 55 57 60 65 68 68 68 70 71 72 69 64 58 56 53 50 47 44 40 35 28 23 22 24 24 23 26 29 31 33 40 41 41 38 36 35 38
54 58 56 56 57 57 63 71 79 81 80 79 78 76 80 76 72 64 59 55 49 39 28 15 7 5 4 3 3 3 4 4 7 12 17 28 37 41 44 48 46 45 45
54 56 60 61 67 69 72 75 73 73 78 80 84 91 86 75 69 62 54 40 23 12 8 7 6 6 5 5 5 4 4 4 3 3 4 6 21 42 52 54 49 52 53
59 62 66 72 75 74 73 84 90 93 92 92 100 92 79 73 69 54 28 12 8 8 8 8 8 7 6 6 5 5 4 4 4 4 4 4 6 24 44 61 59 56 56
68 73 76 77 76 94 100 99 83 85 87 94 89 83 77 72 51 25 12 9 10 10 11 11 10 8 7 6 5 5 4 4 4 4 3 4 5 13 45 52 64 62 59
72 72 79 86 93 82 84 95 75 72 88 90 83 80 72 45 20 10 11 13 14 15 16 14 12 10 8 7 6 6 5 5 5 5 4 6 7 9 38 58 60 66 65
68 77 83 83 80 96 99 90 78 84 93 89 83 61 29 12 10 13 15 19 20 22 20 17 14 11 9 8 8 8 8 7 8 8 6 5 7 13 22 52 70 72 66
89 94 93 99 100 95 93 84 88 92 92 81 51 17 10 12 14 14 21 25 27 26 24 20 15 12 10 10 10 12 12 12 12 10 9 6 9 15 18 43 80 84 77
98 96 99 98 94 81 91 95 96 95 78 33 12 10 13 12 14 21 31 32 30 29 25 20 16 13 11 11 15 19 21 19 16 13 12 9 11 15 19 39 86 87 78
88 95 99 99 87 89 98 97 95 85 62 21 10 12 12 14 27 35 37 35 32 29 23 18 14 13 12 14 17 23 25 24 24 18 14 12 14 18 21 44 81 74 73
98 100 100 92 86 98 100 95 91 72 30 11 12 13 16 35 42 41 39 38 34 26 20 16 14 13 13 16 20 24 26 26 26 23 16 15 16 22 27 52 68 71 86
100 100 91 83 95 99 94 65 26 11 11 12 14 27 43 46 44 43 43 39 29 22 18 16 17 19 21 24 30 32 29 29 27 25 16 14 15 21 29 44 64 60 97
74 83 90 100 98 74 26 12 11 12 15 27 44 46 44 45 45 46 43 35 27 21 21 23 27 32 29 33 39 41 40 38 33 29 20 13 15 20 27 42 51 69 96
74 84 90 71 25 13 12 13 16 28 44 44 43 46 50 49 49 45 38 30 25 22 26 30 34 37 43 42 42 42 44 38 37 32 24 14 16 19 26 37 43 84 96

GFSMW_700_rhum_018.txt.gz
RH
33 30 28 24 23 23 21 21 24 24 24 24 23 22 22 22 24 24 26 31 36 40 39 38 38 42 45 47 49 49 48 47 46 44 40 41 41 43 40 40 40 39 38
32 27 28 27 23 23 24 25 26 25 26 28 27 24 22 22 24 27 30 33 34 36 38 40 41 43 42 42 40 37 33 32 33 34 35 32 30 28 28 28 27 30 34
30 29 25 24 25 27 28 28 30 32 27 24 25 24 20 17 16 19 24 29 32 32 33 34 35 36 37 38 39 40 43 42 43 44 47 47 47 49 42 43 40 39 37
30 26 25 27 30 32 34 36 36 34 32 31 30 27 27 26 25 26 30 33 36 38 38 39 38 38 38 38 38 37 37 37 37 38 40 45 52 68 60 60 91 71 91
28 30 31 32 36 36 36 34 34 34 31 27 26 32 37 36 35 35 36 37 38 38 40 40 42 43 44 44 44 43 42 41 39 38 37 37 39 45 53 42 47 55 75
30 35 36 38 38 37 36 37 35 32 31 34 40 43 45 44 44 44 44 45 47 50 52 54 53 52 50 48 47 46 46 46 46 45 44 42 41 39 40 43 42 46 44
33 38 39 38 38 38 38 38 36 37 44 45 46 47 50 51 52 53 54 55 56 55 53 53 53 52 52 51 49 48 47 48 48 48 47 46 45 44 43 42 40 41 38
35 40 39 37 39 40 41 40 44 48 50 50 50 52 53 55 57 59 61 61 61 60 58 56 53 52 52 50 49 48 48 48 48 48 48 47 48 48 49 52 52 45 41
38 39 38 40 42 43 44 47 51 53 52 51 53 54 56 59 63 65 66 64 61 59 56 54 52 52 52 51 49 46 44 42 39 35 29 23 22 23 29 37 43 52 49
41 43 41 43 44 46 51 56 55 56 56 57 58 59 60 62 68 70 67 64 57 50 52 56 56 55 53 50 45 38 28 20 12 9 7 6 5 4 4 4 8 23 48
48 44 42 44 47 50 61 61 60 62 63 64 66 69 75 80 80 76 69 64 58 55 58 55 53 51 50 46 34 16 10 9 9 9 8 8 7 6 5 5 4 4 8
47 44 43 48 51 56 67 64 65 66 66 67 78 87 66 67 82 86 71 63 52 54 55 56 54 50 33 16 11 10 10 10 10 9 10 9 8 7 6 6 5 5 5
45 45 50 52 53 61 69 68 68 70 74 93 99 82 76 78 78 73 69 59 64 63 60 54 47 32 18 15 13 11 10 11 12 12 12 12 11 9 8 7 6 5 5
50 52 48 55 62 69 74 73 74 76 91 100 88 97 92 96 93 74 63 67 68 66 60 45 24 17 16 12 11 14 16 16 16 16 17 16 15 12 10 9 7 6 6
51 51 56 61 67 73 75 75 76 86 92 90 100 86 95 98 73 62 71 70 71 65 43 27 21 17 10 14 18 18 16 16 14 18 21 20 16 14 11 10 9 9 9
52 55 59 66 71 73 73 72 76 82 85 90 69 94 100 79 62 71 74 74 65 42 32 23 13 10 19 20 18 20 18 20 24 24 22 18 14 12 11 12 17 20 19
58 64 68 64 62 70 74 74 82 94 97 97 100 97 70 64 72 77 78 69 56 36 13 10 19 19 16 16 19 25 27 25 22 19 16 14 13 13 16 17 22 22 22
56 47 46 51 63 71 82 98 100 99 95 92 79 59 67 75 77 78 64 34 13 10 19 21 15 13 16 20 23 22 20 17 16 15 14 15 16 18 21 26 28 26 20
36 36 39 49 56 78 91 100 96 78 55 52 63 70 76 78 68 36 12 10 18 22 15 12 13 16 15 18 20 19 18 16 14 14 17 22 24 24 34 45 36 28 20
22 27 39 50 69 72 55 44 51 45 49 61 69 79 77 49 14 11 16 27 25 12 12 12 17 21 20 20 20 18 18 16 18 19 22 30 34 31 38 43 39 30 18
24 27 32 37 38 38 42 46 44 48 61 71 76 55 18 12 13 25 31 20 13 13 15 17 20 22 22 20 17 18 22 25 27 29 31 31 32 37 41 42 41 28 22
23 27 29 32 36 41 42 42 48 58 66 55 22 13 12 19 33 29 17 15 17 19 20 20 20 22 19 16 19 23 26 31 35 34 34 38 38 41 40 41 39 23 24
28 32 35 38 38 40 41 47 55 53 31 17 14 15 26 36 29 17 16 17 21 21 20 22 20 16 15 19 24 27 25 30 38 40 40 37 41 40 40 40 33 23 27
33 34 34 35 33 40 47 52 43 26 18 15 19 32 34 20 16 18 19 18 17 15 17 17 17 18 21 24 27 27 31 42 43 44 41 40 42 43 44 38 23 22 29
34 33 31 32 40 52 51 40 26 18 18 26 35 30 17 16 15 16 17 13 12 15 18 21 24 27 25 27 40 47 48 48 50 48 40 38 40 40 37 30 20 23 31
32 31 32 35 45 48 38 25 21 23 34 34 24 17 16 16 16 15 10 10 14 18 20 24 28 33 38 43 49 49 47 47 49 44 43 40 42 42 38 27 19 26 60

GFSMW_700_rhum_021.txt.gz
RH
38 36 34 31 28 24 22 21 23 24 25 24 25 26 26 27 27 30 34 40 46 49 48 46 44 39 37 36 36 36 37 38 40 39 38 36 35 36 37 37 36 35 35
35 35 33 28 28 24 24 26 27 27 29 29 25 23 22 20 19 18 21 26 32 36 38 39 42 43 43 43 40 38 36 36 37 37 36 34 33 33 32 32 32 33 35
33 32 30 29 26 28 29 30 31 33 32 31 30 30 28 27 26 26 26 27 31 35 36 37 37 38 39 40 41 42 43 42 42 43 44 41 39 38 37 37 37 36 36
33 30 29 29 33 35 35 36 36 34 33 31 28 27 31 36 38 37 37 37 38 40 42 44 46 49 50 50 50 50 49 48 48 47 48 49 49 47 39 40 40 40 40
30 28 31 36 36 38 38 36 34 34 32 27 30 37 41 42 44 45 46 46 48 50 53 54 55 54 52 51 50 49 50 50 50 49 48 47 48 50 50 41 43 42 44
30 30 36 38 40 39 38 38 36 33 31 34 42 45 46 48 49 51 52 54 54 55 55 55 53 49 45 43 42 42 44 46 47 48 49 49 47 46 42 42 43 42 42
30 33 40 42 40 41 41 40 39 36 38 46 48 47 46 46 45 45 45 46 49 51 49 45 43 38 34 37 40 43 45 46 46 45 40 34 24 15 9 7 8 9 21
33 38 42 43 42 44 44 43 44 43 45 50 52 52 54 54 54 53 52 54 57 54 43 41 33 38 44 46 46 45 44 42 41 39 34 26 14 9 9 8 7 6 6
36 38 43 43 46 47 47 47 48 50 52 56 58 60 60 58 56 53 48 51 57 52 51 43 48 48 46 46 42 39 37 35 30 21 14 11 10 10 11 11 10 7 7
41 40 44 45 48 48 48 51 56 59 59 62 63 63 60 60 58 55 58 66 69 61 46 50 52 52 50 46 41 38 33 30 28 26 21 15 12 12 13 13 13 12 9
44 45 47 46 48 49 51 55 66 66 65 67 67 66 70 60 62 59 67 80 81 60 52 55 55 56 55 52 45 38 39 38 26 13 11 11 12 12 13 14 15 15 14
49 51 47 47 50 53 54 61 72 72 72 71 67 68 66 78 75 65 85 90 76 56 56 58 60 60 56 50 45 37 17 11 11 11 9 8 9 11 13 14 16 18 16
53 50 48 52 55 53 58 66 74 79 73 69 67 78 93 98 65 79 76 69 59 57 63 64 62 58 49 30 12 11 11 8 7 8 9 10 12 13 16 19 19 18 16
54 52 52 54 52 59 66 71 77 74 71 69 75 91 100 100 90 81 61 58 60 61 64 61 52 27 11 12 11 6 6 7 8 9 10 12 14 15 15 15 15 15 15
51 52 53 55 59 66 70 72 73 73 78 88 97 100 98 60 63 62 59 61 61 61 53 28 11 13 12 6 6 8 8 10 11 11 12 14 15 15 14 16 16 18 19
51 51 53 59 64 66 67 66 70 82 95 100 88 47 46 45 51 56 61 59 53 32 11 11 13 7 6 8 10 12 12 12 12 14 13 14 14 14 16 19 23 26 35
49 56 60 59 55 51 55 69 85 98 86 56 41 37 43 47 52 57 56 40 15 10 12 9 6 6 8 9 11 13 13 14 16 14 13 13 17 22 22 23 30 28 29
62 60 48 31 31 40 57 75 94 81 61 38 34 41 43 49 53 43 20 11 11 11 6 6 7 7 8 10 12 13 15 15 13 14 18 20 21 28 32 36 70 40 36
55 35 19 19 29 47 66 74 54 43 43 40 42 45 46 40 23 13 12 13 11 6 6 7 8 8 8 8 10 12 12 12 14 18 22 23 28 32 38 99 71 35 30
24 15 17 21 27 35 42 30 32 36 39 43 45 42 28 16 14 13 16 13 7 7 7 8 8 8 7 8 10 13 16 17 19 20 24 29 35 37 86 60 45 39 35
17 19 21 26 31 33 33 33 35 40 44 45 36 23 17 15 15 18 15 9 8 9 9 8 7 8 11 11 14 17 20 24 23 27 30 33 36 73 43 42 43 44 40
20 22 26 29 33 34 35 34 41 43 41 33 22 18 16 18 21 16 10 11 11 10 9 7 7 11 12 12 15 18 24 33 39 37 35 34 37 36 38 39 44 45 40
22 24 27 30 33 33 34 38 39 36 32 25 19 19 22 24 17 12 12 11 12 10 8 9 10 10 11 13 16 23 31 38 41 41 38 40 38 39 37 41 47 45 32
21 24 29 32 33 35 36 36 34 32 25 21 23 23 22 15 14 15 15 14 11 10 10 12 11 11 14 19 26 32 41 42 41 44 40 43 42 41 42 44 42 31 34
21 27 31 34 36 36 35 33 29 25 25 26 23 22 17 17 16 15 15 13 11 13 14 14 16 20 26 34 41 45 44 46 48 47 46 45 42 38 40 40 33 30 68
28 32 36 37 35 34 32 28 28 30 28 24 21 18 18 19 18 16 14 12 13 14 16 20 26 32 40 43 43 44 43 47 52 50 56 52 46 45 46 39 26 66 97

GFSMW_700_rhum_024.txt.gz
RH
37 38 35 35 34 31 28 26 23 24 24 24 24 24 24 25 27 28 30 34 39 43 45 45 42 41 40 40 38 37 37 39 42 42 40 39 37 33 35 34 33 34 34
33 37 37 36 34 29 26 25 26 28 28 27 26 25 24 23 24 23 22 25 29 32 37 40 40 39 40 42 45 46 46 46 46 45 41 36 29 32 34 35 32 32 33
32 34 34 32 30 27 28 30 30 30 31 32 32 31 30 28 29 31 32 34 35 37 39 41 42 44 46 48 48 48 46 44 42 42 44 42 38 31 29 26 28 29 32
33 34 34 31 29 32 32 33 35 35 34 32 31 27 27 32 37 41 43 44 44 44 45 47 50 51 51 48 45 42 37 33 32 32 34 37 41 41 27 29 29 29 31
35 34 31 31 36 35 37 37 35 34 33 29 29 34 41 44 45 44 41 41 42 45 48 50 49 46 41 34 27 24 25 27 29 32 34 34 35 36 37 26 29 29 23
35 32 32 38 36 39 38 37 36 36 34 32 34 42 46 46 46 47 48 49 49 48 46 46 45 33 25 21 26 31 33 36 38 38 37 35 31 28 25 25 24 23 21
36 32 36 37 40 39 38 38 38 37 35 36 43 49 54 56 56 56 54 49 43 39 37 38 35 25 27 32 37 38 39 40 38 36 35 34 34 33 31 28 29 28 26
36 35 40 40 41 39 41 41 39 39 41 45 51 56 60 61 60 57 55 42 35 39 44 51 58 36 34 38 41 43 44 44 44 43 43 42 39 31 20 15 14 12 12
38 35 40 42 42 42 44 43 45 46 50 53 58 60 62 62 61 58 41 38 36 45 55 59 56 41 42 44 45 45 44 42 39 30 17 10 9 9 8 8 9 13 10
40 37 41 44 44 46 46 48 51 54 56 61 64 66 67 66 64 55 43 47 53 51 43 43 45 46 46 46 45 41 28 13 8 8 6 4 5 5 6 6 7 10 19
42 40 43 46 46 47 52 54 55 58 63 69 71 73 71 68 69 75 67 76 59 52 43 45 47 48 46 42 25 10 8 6 4 4 5 6 7 8 9 9 10 12 15
45 45 46 49 50 52 56 57 56 62 69 73 77 76 75 74 79 85 72 64 54 49 51 51 50 46 28 10 9 6 4 4 4 5 7 8 10 10 11 13 13 14 14
44 47 49 53 54 57 60 57 61 68 69 74 78 80 83 81 76 59 59 46 49 56 54 50 39 15 10 8 5 4 4 4 5 6 8 10 12 13 13 12 13 15 18
47 51 54 59 60 61 58 60 65 70 74 79 84 84 74 60 44 39 37 45 53 53 48 28 11 10 8 5 5 5 4 5 5 5 6 10 13 12 11 13 16 19 24
49 55 61 62 56 56 60 64 68 72 75 77 81 74 54 35 32 36 45 50 50 39 16 11 10 7 5 5 5 5 5 5 5 4 6 9 11 12 16 19 20 29 31
57 61 56 53 55 59 62 65 66 70 75 83 78 65 38 35 36 42 44 39 23 13 12 11 8 6 6 6 5 5 5 6 6 6 7 10 14 17 18 20 26 32 50
52 51 52 55 60 61 53 49 57 68 81 83 57 41 42 39 40 38 28 16 14 13 11 8 6 6 6 6 6 6 6 6 7 10 12 14 17 18 20 25 32 40 82
49 50 58 62 53 35 31 44 59 78 63 40 41 40 36 39 34 22 16 15 16 13 9 6 6 6 7 6 6 6 7 7 9 14 16 16 20 26 34 36 56 98 59
57 64 60 38 19 18 26 39 51 33 34 35 33 35 38 33 21 17 17 19 14 11 7 7 7 7 7 7 7 8 7 8 10 14 17 26 30 33 35 65 92 52 34
65 50 22 16 17 20 27 33 34 36 37 35 36 38 30 22 19 20 21 17 12 9 8 8 8 8 7 8 8 9 9 10 14 19 25 32 34 33 38 51 41 38 36
40 17 16 17 20 23 28 33 38 43 39 38 38 31 23 21 24 22 18 13 10 10 10 9 8 8 9 9 10 11 14 20 23 27 29 34 37 38 40 42 44 44 44
18 18 19 21 23 28 33 36 36 38 38 36 31 25 25 26 22 19 14 13 12 11 9 9 8 9 10 12 12 13 20 29 33 31 33 35 42 43 46 45 45 48 51
21 21 20 22 26 31 33 32 34 37 36 32 26 30 28 23 19 15 14 14 13 11 10 10 9 10 12 13 13 16 24 30 36 41 42 43 48 51 46 45 49 53 46
22 19 19 23 27 29 32 35 36 34 30 31 34 32 26 18 16 17 16 15 13 12 11 11 11 12 14 15 16 21 28 34 41 50 47 52 56 52 48 47 50 45 67
18 19 22 25 29 32 33 33 32 32 38 41 37 26 17 16 18 18 15 14 15 14 14 14 15 16 16 18 25 35 36 42 53 56 53 55 55 47 44 46 43 69 97
18 20 23 26 30 32 34 34 38 44 47 43 27 18 19 22 20 16 13 16 15 15 16 19 21 20 22 25 34 38 42 47 55 53 59 61 56 48 49 43 63 97 97

GFSMW_700_rhum_027.txt.gz
RH
31 36 34 31 35 35 34 32 29 27 23 23 24 24 23 24 28 35 43 50 52 50 46 43 40 39 38 38 38 40 42 42 41 36 30 30 27 25 32 24 25 23 23
34 34 38 37 36 35 34 29 25 25 26 27 27 27 26 25 24 24 25 27 28 31 33 35 37 39 42 44 44 41 36 34 34 30 24 15 10 13 19 21 22 19 18
36 35 35 36 36 34 30 26 27 29 29 29 31 32 32 30 30 32 34 38 40 42 44 44 43 40 38 37 38 37 33 21 15 15 19 17 16 14 15 17 18 20 21
37 35 34 34 32 30 29 30 30 33 35 34 32 30 29 33 39 42 44 45 44 42 41 41 41 40 40 38 32 20 16 17 18 20 23 27 29 29 22 22 24 24 25
38 37 35 34 31 31 32 33 36 35 34 33 30 29 29 35 43 45 46 48 48 47 47 43 34 27 25 24 24 20 20 23 26 29 31 30 29 31 33 25 28 23 19
39 38 35 32 32 34 35 37 36 35 35 34 30 29 34 41 49 52 53 52 49 48 37 24 21 23 26 30 31 26 29 31 33 34 35 36 34 27 17 11 9 8 6
42 38 34 32 37 36 39 38 36 37 37 34 35 37 44 52 56 58 57 56 51 38 26 21 21 20 22 25 28 32 34 34 34 32 22 13 8 7 5 4 4 4 3
39 36 34 38 37 39 40 38 39 40 41 42 44 47 52 58 61 62 60 56 45 32 27 19 23 23 28 33 35 36 34 29 17 9 8 6 4 4 4 4 4 4 3
37 35 36 39 38 42 41 41 42 45 46 48 51 54 59 63 67 66 64 55 35 23 20 22 26 29 32 34 33 29 17 10 8 6 5 4 4 4 4 4 5 7 4
39 35 37 39 40 43 43 45 48 50 51 54 56 60 65 71 73 70 67 51 34 22 21 24 29 33 34 33 22 12 9 7 5 5 4 4 4 4 4 4 4 8 14
38 38 37 40 42 45 46 49 53 55 56 56 60 65 69 75 76 74 64 38 22 20 22 29 36 36 30 16 12 9 6 5 5 5 5 5 4 4 4 4 6 9 13
38 40 39 41 43 46 50 53 58 60 58 57 63 67 72 77 78 71 49 23 19 22 29 35 34 24 14 12 9 6 5 5 6 6 5 5 5 5 5 6 7 9 14
40 42 42 43 46 49 54 59 62 61 57 61 65 70 76 76 70 56 35 22 24 29 33 28 17 14 13 10 7 6 5 6 6 6 6 5 5 6 7 9 12 15 19
39 41 45 47 49 54 60 63 62 58 61 64 71 76 76 72 58 43 25 24 29 29 22 16 15 15 12 7 6 6 6 6 6 6 6 6 6 8 10 12 15 21 30
41 44 48 52 55 60 65 60 57 61 65 71 73 73 72 58 37 24 26 29 29 20 16 17 18 14 8 6 6 6 6 6 6 6 6 6 7 9 12 30 34 36 70
47 48 55 58 62 64 56 58 62 66 66 63 63 66 55 30 25 27 30 31 20 18 20 22 14 9 7 7 7 7 6 7 7 6 6 7 9 12 16 26 34 91 100
51 56 62 63 56 56 58 62 61 53 49 50 56 56 34 27 29 31 31 21 20 23 24 14 9 8 7 7 7 7 7 8 8 8 8 9 15 24 30 31 35 45 74
53 54 54 54 56 59 61 51 36 32 41 48 47 33 28 30 33 29 23 23 26 23 13 9 8 8 8 8 8 8 8 9 9 10 12 19 24 30 34 51 54 74 47
52 54 56 57 62 56 30 19 22 29 35 37 34 31 31 32 28 24 26 29 24 15 9 10 11 10 9 9 10 10 10 10 10 11 20 27 29 32 48 80 99 48 38
60 58 62 61 37 17 17 19 24 28 30 32 32 31 33 28 26 30 31 25 15 10 12 15 13 10 9 10 11 12 13 12 12 12 21 29 34 39 66 92 78 49 44
61 66 53 27 17 18 20 23 25 28 29 30 32 34 29 28 33 34 26 14 11 16 18 15 11 11 11 11 13 14 16 16 16 20 26 29 37 70 59 67 57 51 52
66 51 24 18 20 21 21 22 25 27 30 34 34 29 32 37 37 27 15 15 21 20 14 12 12 12 12 14 15 16 18 21 31 31 32 36 55 54 53 56 50 51 56
46 22 20 21 20 18 19 22 26 32 33 31 30 35 41 40 29 18 21 26 20 15 14 14 13 13 14 15 16 18 19 23 32 38 42 46 52 53 54 49 54 58 58
22 23 22 19 17 19 22 28 31 30 30 32 40 46 45 36 25 29 29 20 17 16 16 15 14 14 15 17 18 18 22 29 36 43 49 51 53 55 51 49 52 61 99
24 23 19 16 18 22 25 28 28 30 36 43 48 49 47 39 35 33 24 19 19 18 17 16 16 16 16 18 21 31 36 40 50 55 52 52 56 48 45 47 65 98 98
23 17 16 18 20 21 23 25 33 41 46 50 53 55 54 44 38 33 26 23 22 20 18 18 17 17 21 22 28 35 42 52 59 56 58 58 53 49 51 67 94 97 97

GFSMW_700_rhum_030.txt.gz
RH
38 31 33 32 28 34 37 38 36 34 32 30 28 25 26 25 25 27 30 33 34 33 32 31 31 34 38 41 43 41 36 34 32 22 13 9 8 9 10 12 13 14 16
38 31 35 37 36 34 35 35 34 30 25 24 25 26 27 26 26 28 29 30 31 34 37 41 44 44 42 40 38 33 22 15 14 10 9 8 8 10 12 13 15 14 15
40 30 35 37 38 37 36 35 30 26 28 28 29 31 33 32 31 32 35 40 43 45 45 45 45 44 40 33 22 14 13 11 13 13 15 14 13 9 10 9 11 11 10
38 31 36 37 37 36 34 30 28 30 31 34 34 32 31 31 34 39 43 45 47 49 49 46 44 37 22 12 11 12 12 12 12 14 18 22 26 23 11 9 9 9 9
36 30 37 36 36 34 31 30 31 33 36 34 33 32 29 29 34 42 50 52 51 50 48 43 32 16 12 11 10 11 12 15 16 18 19 18 15 12 10 9 9 8 7
33 32 38 37 36 33 32 33 36 37 36 36 35 32 34 38 43 50 52 53 52 47 43 26 14 12 11 10 10 13 15 17 18 19 16 12 10 8 7 7 8 7 6
33 33 40 37 35 34 35 37 39 38 38 38 38 41 42 44 47 51 56 57 53 47 30 13 12 11 10 10 13 16 18 19 16 13 11 9 8 6 6 6 6 7 7
35 41 40 37 34 36 37 40 40 39 40 42 43 45 47 50 53 56 59 59 57 48 20 13 12 11 11 14 17 19 17 14 14 11 9 7 6 6 6 6 7 8 8
38 42 40 36 35 38 39 42 42 42 44 46 46 48 51 54 56 60 64 62 57 41 19 13 12 13 15 17 17 15 14 14 11 8 7 7 6 6 7 7 6 5 6
39 39 37 35 38 39 41 44 44 46 48 50 51 52 54 58 62 66 66 62 49 27 17 14 14 16 17 16 15 15 16 13 8 7 7 6 6 6 7 7 6 5 6
34 37 37 36 40 39 42 45 47 51 53 54 56 56 58 61 65 68 64 53 33 20 16 15 16 17 16 16 17 19 16 10 7 6 6 6 6 6 7 6 5 5 8
35 37 38 36 40 40 42 47 50 52 56 58 61 58 61 64 68 67 54 34 23 17 16 17 18 17 18 20 21 17 10 7 6 6 6 6 6 7 6 6 6 7 10
37 38 40 39 40 42 43 47 51 56 60 63 61 61 63 67 66 53 36 24 19 18 19 18 18 20 22 22 16 10 7 7 6 6 6 7 7 7 6 7 8 12 16
36 38 40 41 42 44 45 48 52 60 67 62 61 64 67 65 55 43 29 20 19 20 19 19 22 24 21 15 10 8 8 8 8 7 8 8 8 8 8 11 16 29 38
38 38 40 43 46 48 49 52 58 68 62 61 64 67 63 55 48 34 22 20 21 20 21 25 25 22 17 10 9 11 11 9 8 8 9 9 8 10 14 28 38 42 45
44 44 43 46 50 53 56 60 68 60 60 63 64 57 49 46 36 26 21 21 21 23 27 26 23 16 10 14 16 13 10 8 9 9 9 9 10 12 16 26 34 58 100
46 43 50 52 55 60 65 60 58 58 63 58 46 40 40 35 28 23 22 22 25 27 25 23 14 14 20 19 14 10 9 10 10 10 10 10 12 17 22 26 34 59 97
44 47 53 58 62 59 55 54 61 60 45 31 34 32 30 27 24 24 24 27 27 26 24 16 21 25 20 14 11 11 11 11 11 12 12 14 15 22 32 46 73 98 86
50 55 57 56 55 56 57 62 48 24 24 27 27 27 26 24 24 24 28 27 27 25 22 28 26 20 14 13 13 13 12 11 11 12 14 19 24 32 61 100 100 80 47
56 56 56 58 59 62 55 27 19 21 24 24 26 26 24 24 24 29 27 31 27 29 31 27 20 17 17 16 15 14 15 13 13 12 16 24 36 42 88 100 79 59 54
60 61 62 60 62 40 20 20 21 22 23 23 24 24 24 26 31 31 35 33 33 33 30 26 24 23 20 17 14 14 16 18 18 22 24 31 44 74 74 65 64 59 64
67 63 67 58 34 20 21 21 20 20 22 23 23 24 30 32 33 39 40 37 36 34 31 30 28 22 19 15 14 14 16 21 31 32 37 44 57 54 58 60 57 61 67
71 69 53 28 22 22 20 18 19 20 21 22 25 31 32 35 43 46 43 40 39 38 35 30 25 21 15 13 14 14 17 22 35 46 48 52 55 61 59 55 62 80 100
62 35 22 24 22 19 17 17 18 19 22 27 32 31 36 46 51 52 47 44 45 41 33 28 22 16 13 13 13 16 22 33 43 49 53 59 62 62 57 57 86 99 98
24 25 25 22 17 16 16 16 18 23 28 32 32 40 49 53 56 56 55 52 47 36 28 21 16 14 12 14 20 32 39 46 55 56 58 62 59 49 52 86 98 98 98
27 25 17 15 15 15 15 18 24 30 32 35 46 55 56 60 62 58 54 52 43 31 22 17 16 15 18 21 30 38 42 53 61 59 65 64 52 54 88 96 96 98 97

GFSMW_700_rhum_036.txt.gz
RH
55 53 51 46 42 30 26 29 28 26 27 30 44 47 48 46 45 38 36 40 40 39 37 38 44 46 47 48 46 38 26 13 8 7 9 10 9 9 10 10 10 9 9
57 55 50 47 44 34 28 29 27 30 38 45 44 41 43 42 35 31 36 38 36 39 44 48 50 52 50 43 30 15 8 8 8 9 10 11 11 10 10 8 8 8 8
56 51 48 47 49 40 34 35 40 42 40 38 35 33 32 31 34 35 37 39 43 45 49 53 54 50 40 25 11 8 8 9 10 9 10 10 10 9 8 8 8 8 7
59 51 45 49 53 49 33 39 38 37 36 33 29 31 34 36 36 36 34 36 43 51 54 54 48 36 22 12 9 9 10 10 9 9 8 8 8 8 9 9 8 7 6
59 52 49 51 54 47 35 37 38 37 32 29 31 35 36 34 32 36 40 44 49 52 52 47 36 21 13 11 10 10 10 9 9 8 7 8 9 10 10 7 6 6 7
55 50 52 54 54 46 37 37 37 33 30 33 36 37 35 37 40 45 48 51 53 54 53 46 30 15 12 11 11 10 10 9 8 8 9 10 10 9 8 8 8 8 8
53 48 52 54 50 45 39 37 35 32 34 38 38 38 40 44 46 48 50 54 56 57 58 50 24 14 12 11 11 10 10 9 10 10 10 10 10 10 11 10 9 8 8
60 54 56 54 49 46 40 37 34 34 38 40 42 43 45 47 48 51 53 57 59 61 60 41 17 14 12 11 11 11 10 10 10 10 10 10 11 11 11 10 11 12 14
49 53 56 54 52 48 41 37 36 39 42 43 44 46 48 52 55 58 60 61 61 65 61 26 16 13 12 11 11 11 11 11 10 11 11 12 12 13 15 18 20 18 18
49 55 55 52 50 46 40 38 40 44 44 45 48 51 55 58 61 64 63 65 68 68 40 20 16 13 12 12 12 11 11 11 11 12 13 15 18 21 22 20 15 11 10
39 44 49 53 50 44 40 39 41 45 47 49 52 56 59 62 66 69 67 70 71 56 24 18 15 13 13 12 12 12 12 11 12 15 18 20 20 19 17 15 14 14 13
39 46 48 48 47 43 41 42 46 48 50 52 56 58 60 64 71 72 71 73 67 30 21 16 14 13 13 12 12 12 11 13 16 18 20 20 21 21 20 18 16 14 12
42 42 43 45 44 42 42 44 47 50 53 56 57 58 60 66 75 73 76 72 37 23 17 15 14 13 13 13 12 12 14 17 20 21 23 25 24 21 18 16 14 12 10
39 39 41 43 43 43 43 45 49 51 54 56 57 58 63 74 77 76 74 43 26 20 17 15 14 14 14 12 12 15 18 21 23 25 26 22 19 18 15 13 12 12 13
42 40 40 40 42 42 44 48 50 51 54 55 57 62 71 79 76 76 48 29 22 18 15 14 14 14 13 14 16 19 22 25 26 24 20 19 17 12 11 13 15 21 30
39 41 41 42 43 44 46 50 54 57 58 59 63 74 80 76 74 47 32 24 20 16 15 15 15 14 16 18 23 28 29 28 24 21 20 14 9 8 10 15 23 38 71
39 38 40 43 45 49 54 58 62 64 65 69 78 77 75 72 43 32 24 20 17 16 17 16 15 18 21 26 33 33 30 24 22 18 11 8 8 11 14 23 35 52 93
47 40 47 49 51 56 61 64 67 70 74 79 75 74 65 39 32 24 20 18 18 18 17 16 19 22 30 36 35 30 25 23 18 10 8 9 13 20 32 41 56 80 49
50 50 51 54 61 66 70 72 76 78 75 75 69 48 36 32 25 22 19 18 19 18 18 20 23 31 39 38 32 26 24 20 11 8 9 15 24 36 48 72 56 46 44
56 56 58 62 69 74 77 76 73 73 69 53 36 33 29 24 22 20 19 20 18 18 18 24 34 42 41 34 28 25 19 11 7 7 11 22 37 45 52 55 51 45 44
62 63 70 74 75 73 71 70 68 58 37 31 30 26 23 22 20 21 21 20 18 18 23 31 43 43 37 30 26 18 10 9 8 11 18 33 45 50 53 53 48 55 86
63 69 74 72 70 69 69 61 43 31 29 26 24 22 20 20 22 24 23 21 20 23 32 40 42 38 32 28 18 10 9 12 14 20 30 42 51 53 51 48 69 96 91
69 72 71 70 71 65 49 34 28 26 23 21 20 19 20 24 25 24 23 22 25 30 39 41 37 33 30 20 11 8 9 14 23 29 38 49 52 50 48 80 100 96 93
70 73 73 71 61 43 28 26 24 20 20 19 19 22 26 26 26 27 24 28 34 42 43 38 34 31 23 12 8 7 11 20 27 33 43 51 52 50 82 97 95 93 91
75 75 72 50 29 27 24 19 19 18 18 20 23 26 26 27 28 28 31 37 47 46 41 38 32 24 14 9 9 12 20 29 35 40 46 50 47 77 88 92 90 81 96
70 46 29 28 26 17 18 18 16 17 21 24 25 25 27 29 29 33 42 54 50 45 40 34 25 14 10 9 12 21 28 36 41 44 51 48 70 88 90 76 76 96 93

GFSMW_700_rhum_039.txt.gz
RH
54 59 52 44 49 46 44 42 28 30 35 37 34 37 37 55 65 83 76 52 52 46 41 38 39 43 44 48 49 43 29 14 8 8 9 10 10 11 11 11 10 9 8
57 51 55 52 50 50 49 43 31 31 30 30 32 38 53 64 72 72 52 39 49 42 41 44 46 50 51 48 36 22 12 9 9 10 12 13 13 11 10 9 8 8 9
53 60 57 55 54 51 50 45 37 37 33 33 40 50 54 60 79 92 49 42 40 43 44 51 54 52 42 29 17 11 10 11 12 12 12 12 12 12 11 9 10 9 7
41 59 60 57 55 51 52 50 38 41 44 44 44 45 46 48 43 39 41 40 41 45 51 54 51 42 36 19 12 12 13 13 13 11 10 9 9 9 11 9 6 5 5
46 60 61 58 55 50 53 53 38 40 39 38 36 34 33 34 38 38 39 45 48 51 53 53 52 48 33 15 13 14 13 12 11 10 9 9 10 10 9 6 5 5 5
43 59 62 60 59 53 54 53 39 40 39 36 31 32 36 38 36 42 48 50 52 56 56 55 55 52 28 14 15 14 12 11 10 10 10 11 10 9 8 6 5 5 5
38 53 60 58 62 53 55 53 41 40 37 32 34 38 38 37 44 48 50 52 54 56 57 57 58 49 18 16 15 12 11 11 11 11 11 11 10 9 8 7 6 5 5
39 55 59 62 59 52 56 50 42 39 34 35 39 39 39 44 48 51 54 56 58 59 59 61 60 32 17 16 13 12 12 12 12 12 11 10 9 9 10 11 10 7 7
51 50 59 61 52 52 56 48 43 37 36 40 41 42 45 48 52 56 57 60 64 63 63 63 53 19 18 14 12 12 12 12 12 11 10 9 9 11 13 16 18 19 15
48 50 56 62 57 58 54 49 41 38 40 43 44 47 49 52 57 59 62 69 71 67 65 64 30 19 16 13 13 13 13 12 12 10 9 10 11 13 16 19 22 23 22
44 47 56 64 59 58 53 48 40 41 44 46 48 50 53 57 60 64 68 74 75 68 67 48 21 18 14 13 13 13 13 11 10 10 10 12 14 17 19 20 20 19 18
45 44 58 59 58 57 54 45 42 44 48 50 51 54 57 61 63 66 71 78 74 68 64 25 20 15 14 13 13 13 11 10 10 11 12 16 19 20 20 20 19 16 11
48 53 59 60 58 57 52 45 46 47 50 52 54 58 61 64 67 70 75 79 72 70 32 22 17 14 14 14 13 11 10 12 13 14 18 21 22 21 21 17 12 8 7
46 52 57 59 59 57 48 46 48 50 53 56 57 60 64 68 70 73 80 77 76 41 24 18 15 15 15 14 12 10 12 13 16 20 24 23 23 21 15 10 7 9 11
50 51 51 52 52 50 48 49 52 53 55 57 61 65 68 71 73 80 81 81 47 26 19 17 15 15 15 12 10 11 12 16 21 24 24 24 20 13 8 8 10 15 25
47 49 48 48 48 48 48 50 52 54 58 62 65 68 72 74 80 84 83 49 27 20 18 16 16 16 13 11 12 14 17 23 27 26 25 19 12 7 8 12 20 35 48
48 48 46 47 48 48 50 53 57 60 64 66 71 73 75 82 85 82 46 28 21 19 16 17 17 14 13 13 16 20 24 28 28 25 18 10 6 8 10 18 30 38 47
43 46 48 48 52 56 60 65 68 72 75 77 76 77 86 83 76 38 28 22 19 17 18 18 15 13 14 17 21 25 29 28 25 18 9 6 7 10 22 32 39 42 46
50 53 56 61 65 69 72 74 76 78 77 77 84 82 77 61 34 28 22 19 18 20 20 16 14 15 19 22 28 30 29 25 19 10 6 8 13 23 35 45 42 38 38
56 57 60 64 69 73 77 80 80 80 84 83 75 69 40 32 26 22 19 19 21 20 16 17 18 23 26 31 33 30 25 19 11 5 6 13 25 30 41 45 40 38 70
60 59 64 71 74 77 81 84 84 81 75 70 47 34 30 23 21 19 21 22 21 18 18 20 24 31 35 35 31 26 18 10 5 6 10 22 29 36 42 41 46 80 81
62 62 67 72 75 78 80 78 74 70 52 35 30 26 22 21 20 22 23 22 19 19 21 24 31 36 35 32 27 18 9 6 7 12 20 28 34 42 41 50 83 87 86
64 71 74 79 79 76 74 71 57 42 30 27 23 21 20 20 22 24 25 22 21 24 27 32 35 33 33 29 19 9 6 7 15 24 29 34 42 43 47 89 92 93 83
68 77 78 76 74 72 64 50 32 26 24 20 21 19 20 23 25 25 22 23 28 31 36 37 35 34 31 21 10 6 7 14 22 26 32 40 45 50 89 92 94 82 89
72 74 75 74 70 61 38 27 25 19 20 19 19 22 25 27 26 23 26 32 35 39 40 39 37 32 22 11 7 8 13 23 27 31 36 41 45 83 87 83 82 97 94
73 75 76 68 40 28 26 19 20 19 19 21 24 26 27 25 24 27 35 40 44 46 44 40 33 21 10 7 7 12 21 29 31 34 41 45 77 87 79 77 92 97 94

GFSMW_700_rhum_042.txt.gz
RH
43 50 48 50 57 42 34 47 46 43 36 33 36 42 46 53 49 52 97 92 89 90 49 44 40 41 39 44 46 41 25 13 10 10 11 12 12 13 12 12 10 9 9
35 35 38 53 58 47 39 48 47 45 35 32 33 41 53 60 57 73 97 99 92 54 50 42 42 44 47 47 38 29 18 12 12 14 16 16 14 13 12 11 10 10 10
34 37 43 60 58 55 51 49 51 46 37 36 36 44 53 60 76 98 100 98 91 59 43 42 47 48 48 46 45 30 14 14 16 16 15 15 14 15 14 12 11 10 7
23 35 46 60 59 58 54 53 52 50 39 39 38 42 52 66 85 94 98 100 89 44 45 48 50 52 52 52 48 25 15 17 17 14 12 12 12 12 14 11 8 6 6
13 29 38 54 61 59 57 54 53 54 41 42 46 50 59 62 64 80 51 49 43 48 50 52 53 52 52 53 43 17 17 17 14 13 12 12 12 12 11 7 6 6 6
12 15 34 48 60 61 60 55 52 55 42 41 41 46 50 49 49 51 48 44 51 52 53 52 54 54 53 54 29 18 18 15 12 12 12 12 12 10 7 6 6 8 8
14 12 25 42 55 61 64 56 54 55 43 41 39 39 42 46 47 45 46 52 54 54 55 57 59 56 57 51 19 19 16 13 12 12 13 12 10 8 7 6 7 8 8
16 12 20 42 57 62 66 58 56 56 44 41 37 37 42 41 41 47 52 55 57 58 62 65 64 60 60 30 19 17 14 13 13 13 12 10 8 8 8 8 8 8 8
22 33 29 42 60 63 64 59 54 56 44 39 35 38 41 43 47 53 56 58 60 63 69 71 66 63 54 20 18 15 14 13 14 13 10 9 8 8 10 11 14 14 9
54 44 38 43 55 61 64 55 57 53 44 38 39 42 44 47 52 56 59 61 64 67 72 73 67 64 29 20 16 14 14 14 14 11 9 9 9 10 13 15 18 20 21
48 56 47 47 56 63 60 54 59 51 42 40 42 45 48 53 57 59 61 62 65 68 73 74 68 48 21 17 15 14 14 14 11 9 9 10 12 14 16 18 20 21 18
51 54 53 48 61 65 59 59 57 50 43 45 47 49 53 57 59 61 63 66 67 69 77 73 64 24 19 16 14 15 15 12 9 9 11 12 15 16 19 20 19 16 10
53 49 50 58 64 65 63 61 55 48 45 48 50 54 58 60 62 65 68 69 69 74 79 70 32 21 17 15 16 16 13 10 10 11 13 15 17 18 19 18 14 7 5
52 50 57 68 69 67 62 59 55 47 49 51 54 59 62 64 67 71 71 70 71 82 74 42 23 18 16 16 16 14 11 11 13 16 17 18 19 19 18 11 6 5 7
49 52 60 71 70 64 62 60 52 50 53 56 59 64 66 68 72 72 71 72 84 77 46 25 19 16 17 17 14 12 12 14 16 18 19 20 20 16 8 5 6 9 19
48 57 65 65 64 63 64 56 52 54 57 61 64 67 71 73 73 73 74 87 87 51 26 20 17 18 18 15 13 14 15 18 18 18 20 21 15 7 5 7 13 26 33
49 53 58 61 62 62 57 54 56 60 63 66 69 72 73 74 75 77 88 90 49 28 21 18 18 20 17 14 15 17 18 19 20 22 22 14 6 5 6 10 17 24 38
55 58 57 57 59 58 59 63 66 68 70 72 72 74 77 80 82 89 83 49 29 22 19 19 20 18 15 15 18 19 20 21 25 22 12 6 5 8 14 20 24 32 35
61 65 63 62 60 63 67 68 70 72 74 77 81 84 84 88 87 63 39 28 22 20 20 21 19 15 17 18 20 21 23 26 23 12 5 5 10 19 24 28 31 32 39
59 60 61 64 68 70 75 81 83 83 85 87 86 89 82 80 43 32 26 23 21 21 23 21 17 18 21 23 26 26 28 23 14 6 5 12 20 25 28 37 36 42 71
56 58 65 68 72 78 83 86 89 89 88 89 83 72 49 34 30 25 24 22 23 25 20 18 22 24 25 28 29 30 23 13 6 6 10 17 23 27 34 40 48 77 75
58 58 63 69 76 84 89 90 90 88 83 75 56 39 30 28 26 25 22 24 24 20 20 22 24 30 30 31 29 22 12 6 6 8 17 22 25 34 39 54 81 81 72
65 65 69 76 80 84 86 84 80 78 64 47 32 30 26 26 23 23 25 24 21 21 22 22 24 26 29 28 21 11 5 5 8 15 23 26 32 39 53 84 86 77 77
72 73 74 79 85 84 79 77 67 51 34 30 26 24 24 22 24 25 24 22 23 24 23 25 26 28 26 20 11 6 6 8 13 20 24 31 39 49 87 88 80 88 93
68 76 84 84 80 78 70 59 37 29 27 22 23 22 22 24 25 23 23 27 28 25 25 28 28 25 20 11 6 7 9 15 22 24 27 35 40 76 83 78 97 96 95
74 75 75 76 73 65 41 29 28 21 22 20 21 23 24 24 23 25 31 29 30 33 32 31 27 21 10 6 7 8 15 22 24 24 30 40 61 84 74 88 88 95 94

GFSMW_700_rhum_045.txt.gz
RH
23 32 45 62 61 59 62 55 46 42 46 48 43 38 39 46 58 60 63 76 93 92 100 86 40 39 39 42 46 44 41 39 25 14 14 16 17 16 15 14 13 12 11
22 27 33 50 61 59 57 52 46 42 51 47 43 35 38 49 66 78 73 71 99 96 81 46 42 40 46 48 48 50 51 45 22 16 18 18 16 14 14 14 13 12 12
14 20 30 31 42 50 50 47 50 47 50 48 42 36 38 53 66 77 80 79 95 89 96 50 41 48 50 52 51 51 52 35 18 19 19 16 15 16 15 14 14 12 9
17 13 17 30 34 35 45 49 50 53 51 50 40 39 40 52 70 76 77 100 98 76 95 45 49 52 53 52 51 51 48 22 19 20 17 16 15 15 17 15 12 8 6
23 18 13 23 34 39 56 55 58 53 53 52 42 41 41 58 69 90 99 100 84 91 46 50 54 54 56 57 53 51 42 20 20 18 16 14 14 14 14 11 8 6 6
27 24 16 15 34 52 58 57 56 55 54 54 42 45 52 68 82 98 98 100 64 46 51 55 57 60 63 61 55 53 30 20 19 16 15 14 14 13 10 8 7 7 8
20 23 20 14 31 52 58 58 56 55 53 55 43 43 46 67 84 98 99 73 66 52 55 59 63 69 68 63 57 52 21 20 17 15 14 14 13 10 8 7 7 8 10
23 21 21 15 23 45 54 59 59 56 55 56 47 42 42 46 94 97 80 50 53 57 61 65 70 71 69 64 59 37 20 18 15 14 15 14 11 9 7 7 8 10 10
34 27 22 18 19 38 50 56 61 57 60 58 49 43 41 53 81 82 51 53 57 62 66 71 69 68 71 64 55 23 19 16 14 15 14 12 9 8 8 9 10 10 10
36 28 33 24 30 40 49 59 64 62 61 58 48 42 41 45 54 50 53 58 61 66 72 70 67 70 73 64 37 20 16 15 15 15 12 10 9 10 11 12 12 13 12
35 38 64 48 42 44 57 66 64 63 58 58 47 40 43 47 49 52 58 61 65 71 70 68 67 75 71 53 23 18 15 16 16 13 10 10 10 12 13 14 15 14 13
28 38 67 59 47 56 63 66 64 60 60 54 46 44 47 50 53 59 61 65 71 72 70 69 74 77 64 28 20 16 16 16 14 11 11 11 12 14 16 15 13 12 10
27 41 55 63 50 59 62 65 61 60 61 53 47 48 50 53 58 62 64 70 72 72 72 74 82 73 40 22 17 16 17 14 12 11 12 12 14 16 15 14 12 8 4
32 43 64 62 50 54 63 66 61 64 59 51 51 52 54 58 64 67 69 72 72 74 75 85 83 56 25 18 17 18 15 13 12 13 15 17 17 17 15 11 6 4 5
40 63 59 60 60 64 70 66 67 62 58 54 54 56 59 64 68 71 72 73 75 78 89 89 65 28 19 18 18 16 13 13 14 16 18 19 19 15 11 5 5 8 13
67 60 60 63 68 73 70 69 65 62 57 57 59 60 64 69 72 74 74 76 81 91 93 64 29 20 18 19 16 14 14 14 16 18 19 19 15 10 5 6 12 18 22
64 66 70 72 74 72 71 67 64 62 60 60 61 64 70 74 75 76 78 84 92 94 58 28 21 19 20 17 15 14 14 17 19 20 18 15 9 5 5 10 15 18 29
67 71 74 75 74 73 72 69 65 63 63 64 68 72 75 76 79 83 88 94 90 46 27 21 20 21 17 15 14 14 16 19 21 19 15 9 5 5 10 15 18 25 36
71 72 75 76 74 73 68 64 63 65 67 69 73 76 79 87 88 91 90 77 39 26 21 20 21 17 16 15 14 16 18 19 17 14 7 5 5 11 18 22 26 33 43
74 72 70 71 69 64 64 65 66 67 72 77 84 90 90 90 89 88 50 32 24 21 22 22 18 17 15 14 18 20 18 16 14 8 5 7 10 18 22 30 37 46 73
73 72 71 69 65 65 65 69 77 85 89 93 93 93 92 85 61 38 28 24 21 22 22 19 18 15 15 20 20 18 16 13 8 5 7 10 18 22 28 37 55 78 73
58 65 69 70 73 81 88 90 90 90 94 96 92 84 66 43 32 26 23 22 24 22 19 18 16 19 21 19 17 16 13 7 6 6 10 17 20 26 36 54 79 76 67
63 64 71 74 79 84 89 95 97 96 92 86 71 50 34 28 25 22 24 25 21 19 17 14 16 19 17 16 16 13 7 5 6 10 18 20 22 34 47 80 76 71 84
69 70 71 79 82 87 90 88 85 82 71 57 39 31 26 25 24 25 24 21 20 16 14 16 17 16 16 16 14 8 6 6 8 14 19 21 26 40 77 81 81 92 90
72 76 80 86 90 86 83 82 71 57 41 34 27 26 23 24 25 23 21 20 17 15 16 18 17 16 16 14 9 6 6 9 16 17 18 20 31 65 76 78 96 95 92
78 82 86 91 87 84 77 63 40 35 29 26 23 23 24 24 22 21 20 17 18 22 22 21 20 19 16 10 7 7 9 17 19 16 17 26 49 76 76 86 84 90 90

GFSMW_700_rhum_051.txt.gz
RH
18 17 16 30 46 49 51 53 51 47 47 50 50 53 51 52 54 52 46 48 49 63 73 73 77 85 95 85 44 38 41 39 40 42 42 40 30 22 20 19 17 17 16
23 19 16 16 26 40 44 53 54 52 49 50 52 55 54 48 51 57 58 58 57 66 88 92 92 93 88 51 40 43 44 42 48 50 49 44 33 22 20 19 18 17 17
26 26 23 18 17 21 33 45 58 57 54 51 55 57 50 44 48 55 52 54 61 66 84 97 94 100 99 61 45 46 46 51 55 55 53 44 30 21 20 20 18 17 17
23 25 25 24 19 17 20 29 45 60 58 56 53 51 49 46 48 55 52 52 55 66 78 94 96 98 98 89 47 50 54 61 60 58 54 44 23 21 22 20 18 18 17
39 29 24 27 26 22 18 23 31 52 62 61 57 52 56 48 46 52 48 48 55 72 85 95 98 100 72 73 56 57 62 64 63 61 58 48 27 21 19 19 18 17 14
14 16 27 29 27 26 21 17 27 33 50 60 62 57 58 46 52 52 45 44 61 78 97 91 99 97 64 55 58 62 66 64 62 64 60 46 25 19 18 18 18 15 12
34 34 19 23 28 26 25 18 21 34 36 43 58 60 51 55 55 50 43 49 71 90 98 99 93 76 56 59 62 67 65 61 61 66 61 41 22 18 18 17 15 13 12
32 32 35 24 30 31 27 22 18 36 41 42 53 48 48 59 54 53 47 59 89 94 98 92 92 66 58 63 67 67 63 60 64 68 59 31 19 18 17 14 13 13 14
52 46 50 33 26 27 32 26 19 36 52 52 51 48 61 55 57 51 50 78 78 98 100 100 88 65 63 68 69 66 62 62 70 69 47 20 18 17 14 13 13 12 12
53 53 66 80 59 38 28 32 20 37 73 71 66 61 56 55 59 49 48 82 95 94 100 71 64 64 68 70 70 67 64 72 74 60 22 18 17 15 14 13 11 11 10
75 77 60 59 86 82 38 29 25 44 80 76 68 62 57 57 58 50 86 99 97 96 99 71 64 68 72 74 71 67 71 77 68 23 18 17 15 14 13 11 11 9 7
83 84 81 58 52 89 56 34 25 44 81 77 71 65 61 59 56 57 97 93 97 94 70 64 69 72 76 74 70 72 78 74 23 18 17 15 15 12 11 10 7 6 6
89 94 82 60 100 60 50 42 23 39 79 78 72 67 65 62 54 55 84 99 98 75 64 70 74 76 76 74 75 80 74 23 18 17 16 15 12 11 9 7 6 7 7
79 91 100 100 99 46 38 44 29 49 79 77 74 69 67 61 54 91 98 99 77 65 71 74 77 77 76 80 83 77 25 18 17 16 15 12 11 8 6 7 8 6 4
78 67 99 100 52 42 43 49 40 68 80 77 73 71 66 62 92 100 91 69 66 73 75 78 79 78 83 86 76 24 18 17 16 14 11 10 7 6 8 7 6 4 4
54 53 53 46 52 61 67 60 56 76 82 81 78 69 67 99 98 83 70 66 74 77 78 81 82 86 90 66 21 18 17 17 13 11 10 7 7 8 7 5 4 5 7
47 58 58 57 58 71 82 69 69 82 84 85 81 90 100 92 81 68 68 74 78 80 83 86 92 93 49 20 19 18 17 13 12 9 7 7 8 8 5 4 5 8 13
43 58 66 65 80 90 92 80 86 98 100 99 100 100 91 75 69 72 76 80 83 84 90 96 86 32 20 19 18 16 12 11 9 8 8 8 8 5 5 5 8 11 14
80 78 91 94 92 92 88 96 99 100 100 100 100 89 75 74 76 79 82 86 88 95 96 60 24 20 19 18 16 12 11 9 7 8 10 8 6 5 6 10 11 12 17
99 99 100 99 98 99 100 100 100 99 100 99 87 80 78 80 83 86 88 97 97 87 34 22 20 20 19 15 12 11 10 8 8 10 9 6 6 7 11 13 13 14 33
100 100 100 100 100 100 100 100 99 98 95 86 79 81 89 91 92 98 98 91 48 26 21 21 20 19 15 12 12 10 8 8 10 10 6 6 8 11 12 12 17 32 63
84 91 93 97 99 99 96 91 92 86 88 93 93 92 98 100 100 94 60 31 23 21 21 20 18 14 13 12 10 9 8 10 10 7 6 8 10 11 11 17 38 66 67
93 90 89 86 87 89 94 96 92 90 90 95 99 100 99 96 68 36 25 22 22 21 20 18 14 13 12 11 9 8 10 11 7 6 8 10 10 10 18 43 68 69 74
83 84 88 88 85 83 85 92 98 99 99 99 99 98 73 42 27 23 22 23 21 20 17 14 13 12 11 10 9 11 12 8 6 8 9 11 10 17 45 66 72 78 82
89 83 82 82 89 93 99 99 99 99 99 98 74 43 30 24 23 23 23 22 20 17 14 13 12 12 10 10 12 12 9 7 9 9 10 10 15 42 65 70 75 86 89
96 92 95 100 99 99 99 99 100 98 76 44 32 26 23 23 24 23 22 20 16 14 13 13 12 12 11 12 13 11 8 9 10 10 10 12 31 65 69 73 84 89 92

GFSMW_700_rhum_054.txt.gz
RH
19 18 17 17 26 45 55 49 50 50 49 49 48 47 51 51 51 49 50 43 48 50 51 57 70 77 72 78 80 92 60 40 43 41 42 43 46 46 40 30 22 20 20
21 22 21 18 16 22 46 60 54 49 49 50 49 52 58 57 54 52 48 48 50 60 64 67 66 88 85 89 89 94 46 47 46 48 49 51 47 48 45 32 22 22 22
16 19 24 26 23 19 27 49 49 58 52 52 54 54 56 58 53 53 52 50 51 56 61 68 78 94 97 97 96 91 70 52 50 52 54 54 53 52 49 44 30 24 21
20 22 28 30 32 28 22 28 49 56 62 57 56 54 54 52 55 62 59 50 56 57 58 62 73 83 100 97 96 98 82 59 60 57 56 54 56 58 55 47 35 25 20
23 24 26 30 39 42 38 26 31 32 63 66 60 59 57 56 55 59 55 51 60 56 56 57 78 91 99 99 98 70 71 59 65 60 54 54 55 59 59 53 32 21 19
27 26 23 22 28 40 40 38 36 32 39 73 63 64 61 60 57 58 56 54 59 53 52 57 81 97 98 94 100 67 60 60 65 60 56 54 57 62 62 48 25 20 18
26 32 33 27 19 18 35 39 39 40 46 58 47 53 65 66 63 61 58 59 57 49 50 66 94 100 100 98 89 59 63 65 66 62 57 57 63 67 51 24 20 18 15
31 32 31 35 37 30 21 34 41 51 57 39 48 37 48 67 67 65 58 61 54 48 62 89 100 99 100 96 68 61 67 70 67 62 60 65 71 59 23 19 17 14 15
45 50 45 43 37 33 37 34 36 41 53 41 37 42 47 64 59 58 57 60 52 56 92 99 100 100 92 99 64 64 72 70 66 63 65 72 62 25 19 16 15 16 16
55 63 69 64 65 65 46 37 39 37 36 36 33 49 53 70 61 56 63 57 59 89 99 96 100 100 99 75 65 70 71 69 66 67 74 65 28 19 16 16 16 13 11
62 63 62 64 71 74 74 53 47 45 46 27 26 59 70 67 61 65 59 59 79 82 97 98 96 95 76 66 69 70 71 69 70 75 70 32 19 16 16 15 12 10 7
68 70 70 71 76 77 74 84 74 42 74 26 23 75 78 71 66 60 59 94 80 98 100 100 100 93 69 71 72 73 72 72 77 75 35 19 17 17 14 12 9 6 5
93 78 60 57 63 82 93 100 94 44 63 30 35 84 79 72 62 62 80 70 100 100 99 100 92 70 71 74 77 75 75 79 76 33 19 17 17 14 11 8 6 5 6
61 56 74 77 81 89 95 99 94 42 28 38 66 87 84 72 67 66 66 100 99 96 100 95 70 70 75 79 78 78 82 76 29 19 17 17 13 11 8 6 5 6 5
41 60 59 99 96 98 99 94 81 35 32 44 80 94 93 87 79 74 99 96 99 100 96 86 74 76 80 80 81 85 74 24 19 18 16 12 10 8 6 6 6 5 4
39 54 64 98 99 99 92 98 51 45 41 71 92 98 99 97 91 81 100 99 99 94 75 75 78 81 82 84 90 60 21 18 18 16 12 10 7 6 6 6 5 5 5
45 59 56 67 86 84 62 57 67 57 64 94 92 94 100 89 100 100 100 100 89 72 77 82 85 87 94 90 38 20 19 19 15 12 10 7 6 6 6 5 5 5 8
44 53 62 56 61 83 92 91 80 95 100 99 96 100 98 100 100 100 98 79 74 82 86 91 94 95 70 24 20 19 19 14 12 9 8 6 6 6 5 5 5 7 9
70 69 64 57 66 100 100 91 99 100 100 100 100 98 100 100 100 92 85 80 85 92 97 95 94 37 21 20 20 18 14 12 10 8 7 7 7 6 5 6 7 8 8
85 90 99 98 99 99 100 100 100 100 100 100 100 100 100 98 97 86 84 92 98 94 97 60 24 20 20 20 16 13 12 10 8 7 8 8 6 5 7 9 8 7 16
100 99 100 100 99 100 100 100 100 99 100 100 99 98 96 89 86 95 98 96 98 83 32 22 21 21 20 15 13 12 10 8 6 7 8 7 6 7 9 9 10 22 53
98 99 100 99 99 98 98 99 99 99 99 94 89 88 92 98 97 97 98 90 41 24 21 21 21 18 15 13 12 11 8 6 6 8 8 6 7 9 9 11 28 60 65
100 99 98 90 94 98 99 100 99 91 89 94 96 95 99 99 98 93 48 26 22 22 22 21 16 14 13 13 11 8 7 8 10 9 7 7 9 9 11 28 62 65 67
98 100 100 99 99 98 98 97 94 93 96 99 100 100 98 91 51 28 23 22 23 22 20 16 14 13 13 11 8 7 8 10 9 7 7 8 9 10 22 61 67 72 79
100 100 100 100 98 92 91 94 100 100 99 98 98 86 49 30 24 22 23 23 22 19 16 14 13 12 10 8 7 8 9 7 6 6 8 9 10 17 58 66 74 84 84
98 98 99 94 92 90 91 96 99 99 98 83 47 30 24 23 23 24 23 21 17 16 14 13 12 10 8 7 8 8 6 6 7 9 9 10 13 52 65 74 80 82 83

GFSMW_700_rhum_057.txt.gz
RH
19 18 17 17 21 22 47 54 56 74 64 54 45 49 54 54 53 54 51 49 49 48 52 51 54 60 57 66 77 83 84 86 87 48 44 44 44 49 49 50 48 46 40
21 22 23 23 22 25 30 56 69 64 68 61 57 53 57 60 61 60 56 52 50 50 57 59 62 62 70 81 89 93 88 86 96 54 67 49 51 53 51 50 51 50 48
13 15 22 27 29 30 34 40 67 74 74 72 70 65 59 60 62 62 60 54 55 53 60 62 61 66 74 83 92 96 93 90 93 83 57 59 60 52 49 49 51 53 52
16 16 18 20 27 32 34 44 51 67 71 85 79 68 59 58 57 52 58 64 64 61 55 59 63 67 74 80 88 93 99 98 82 73 62 61 58 53 51 51 54 58 55
18 19 23 21 26 32 39 40 47 55 64 78 86 83 74 64 66 63 66 64 64 65 61 59 64 65 74 81 92 94 97 95 96 72 62 64 59 56 53 53 62 60 42
35 25 25 24 29 37 45 43 37 37 52 62 69 79 80 72 71 69 68 64 63 63 65 59 61 61 70 86 98 94 99 94 64 62 65 63 61 57 55 58 62 57 33
26 24 25 27 30 23 22 42 45 43 39 42 50 73 83 83 77 75 74 71 68 66 62 62 60 58 71 98 99 90 97 96 63 65 67 64 63 59 62 65 60 40 22
35 34 32 30 30 31 29 25 23 45 44 41 38 42 73 86 72 75 76 75 74 71 63 61 55 56 93 99 94 96 98 81 64 68 69 66 63 64 66 64 40 22 18
34 35 37 44 48 47 45 44 31 24 43 44 44 46 63 69 63 77 81 78 76 70 65 62 56 70 98 99 94 100 98 71 68 71 72 68 66 68 68 38 20 17 17
48 53 55 62 66 62 70 60 59 37 28 44 46 44 53 59 50 65 71 76 70 67 62 61 72 99 90 96 100 98 97 74 69 74 71 69 72 70 41 20 17 18 16
44 46 52 58 61 67 71 72 70 59 35 36 42 48 58 53 50 65 78 81 72 66 65 69 98 99 88 97 100 97 74 71 75 73 70 74 72 41 20 17 18 15 12
82 82 68 64 70 71 64 73 77 74 60 55 38 39 54 40 44 71 88 81 73 69 68 99 99 94 100 90 100 92 75 77 75 73 77 76 44 20 18 18 14 11 8
84 66 31 32 33 32 49 78 83 85 77 67 51 42 36 33 79 79 84 77 74 75 100 92 98 100 99 100 95 85 79 78 76 82 81 40 19 18 17 13 10 8 6
93 38 36 35 47 62 59 81 95 99 95 73 44 48 31 76 90 84 78 87 80 99 96 100 100 100 100 97 94 83 83 83 90 90 33 19 19 16 13 10 8 6 5
76 43 46 65 80 83 79 83 100 97 90 84 60 60 75 93 84 81 90 92 100 100 100 100 99 99 98 87 84 87 90 98 81 24 19 18 14 12 10 8 6 5 5
72 51 51 73 98 82 84 90 99 99 98 100 87 72 100 92 99 92 100 100 100 100 100 100 99 98 85 88 89 95 98 58 20 19 18 14 12 9 7 5 5 5 5
79 50 55 43 78 98 99 99 99 100 100 100 88 99 99 99 100 100 99 100 100 100 100 99 95 88 90 91 98 93 33 20 20 17 13 12 10 7 5 5 5 5 5
92 54 61 53 54 98 100 99 100 100 97 100 100 100 100 100 100 99 100 100 100 99 94 90 90 93 98 97 60 22 20 20 16 13 12 9 6 5 6 6 5 5 6
94 79 71 61 64 75 99 100 95 93 98 100 99 100 100 99 99 100 100 99 95 94 96 93 98 98 81 26 21 21 19 15 13 11 8 6 6 6 6 5 5 5 6
97 100 88 63 65 96 99 100 98 98 99 100 100 99 99 99 98 99 98 94 96 97 98 98 89 35 22 21 21 17 14 13 11 8 6 6 6 6 6 6 6 6 7
99 97 98 100 100 100 90 98 100 100 99 99 99 99 98 98 99 96 93 95 97 98 89 35 23 22 22 20 16 14 13 10 7 6 6 6 5 5 5 7 7 8 17
96 99 99 99 100 100 98 99 98 97 98 99 99 98 97 98 97 94 97 97 87 40 24 22 22 22 19 16 13 12 9 6 6 5 5 4 4 5 7 8 8 23 57
86 97 98 97 100 94 97 98 96 98 98 98 96 97 98 98 98 98 88 40 25 23 23 23 21 18 14 13 12 8 7 6 6 5 4 6 7 8 8 9 28 60 61
97 100 99 98 98 96 96 96 96 95 96 97 98 98 98 99 84 39 26 24 24 24 23 19 16 14 13 10 8 7 6 6 5 5 7 8 8 8 9 31 66 71 74
99 98 98 96 95 93 96 97 97 97 98 98 98 99 75 39 26 24 24 24 24 22 17 15 13 12 9 7 7 6 6 5 5 7 8 9 8 10 34 65 72 78 76
100 100 97 93 95 97 98 99 99 99 98 99 66 38 26 24 24 25 25 24 19 16 14 13 11 9 7 7 6 6 6 6 7 9 10 8 9 29 60 66 69 78 81

GFSMW_700_rhum_060.txt.gz
RH
17 19 18 22 36 46 56 61 71 64 58 61 51 55 58 57 52 50 49 49 51 51 52 51 52 54 56 65 67 78 84 85 91 86 86 74 50 55 61 73 53 50 50
20 21 22 21 22 24 28 32 65 75 65 61 63 63 61 60 62 60 58 54 56 56 58 55 58 60 64 64 74 82 92 94 87 90 90 86 64 70 69 60 53 49 49
18 19 22 24 25 24 24 24 25 74 75 71 76 69 66 68 65 66 64 58 57 61 66 61 60 64 67 64 73 76 93 96 90 96 91 86 76 63 62 56 52 51 50
14 13 15 18 22 26 30 30 28 38 69 72 73 78 72 71 72 67 66 61 60 66 70 70 67 64 66 64 68 76 87 95 89 100 98 95 86 66 60 56 53 52 51
18 17 17 18 21 24 30 33 35 38 49 64 69 73 79 78 82 79 70 70 66 70 72 71 70 66 64 67 70 79 85 93 99 98 99 81 73 63 63 60 58 55 57
29 26 22 17 15 20 24 30 36 39 47 51 58 62 69 86 91 88 76 69 74 72 72 71 68 70 67 65 69 75 89 98 98 98 100 70 67 66 65 62 58 57 60
29 31 31 31 29 23 20 24 32 38 41 48 55 60 66 78 84 86 88 78 75 78 77 76 76 72 70 68 65 78 90 96 100 100 99 82 70 70 67 63 60 59 62
32 31 31 29 26 28 31 34 30 24 29 42 40 44 52 56 66 79 81 86 76 79 80 83 82 76 71 66 64 96 91 99 100 100 90 72 68 70 67 64 64 64 62
32 33 33 33 32 33 36 39 38 36 29 21 30 44 42 44 49 57 75 78 77 77 82 83 82 81 73 66 64 91 99 99 100 99 97 80 71 69 69 69 70 67 50
46 44 40 38 37 40 40 41 40 41 42 38 26 22 46 44 49 49 55 64 76 75 85 85 86 82 73 70 74 99 95 100 99 96 80 79 75 74 73 74 70 42 20
36 37 40 44 51 51 53 57 56 51 44 45 49 31 36 47 56 68 60 65 62 84 82 86 86 82 76 98 98 96 97 99 99 85 87 78 76 77 80 75 44 19 19
55 64 65 66 59 42 52 61 64 65 63 58 59 50 38 63 68 69 64 75 65 71 75 92 93 87 95 100 100 97 100 100 96 90 85 82 79 85 82 43 19 19 17
70 67 65 45 42 31 21 22 31 63 75 77 65 62 42 42 64 68 67 63 68 82 88 91 93 99 100 100 100 100 99 99 96 95 90 84 88 81 29 19 19 16 12
75 71 54 52 37 48 51 55 52 48 82 88 81 72 68 47 43 49 61 53 90 98 97 95 99 100 100 100 100 100 100 97 96 92 92 92 68 21 20 18 14 12 9
80 75 46 48 36 52 56 64 67 81 80 95 89 89 92 71 51 96 46 88 100 100 100 99 100 100 100 100 99 98 96 95 90 98 95 37 20 20 16 14 11 8 6
85 73 48 45 41 74 70 92 92 99 100 99 97 99 100 99 100 78 100 100 100 100 100 100 99 100 98 99 91 90 94 100 99 68 21 20 19 14 12 10 6 6 5
93 72 52 60 48 74 95 95 100 91 99 99 99 99 86 99 67 96 100 100 99 100 99 99 99 98 97 99 97 99 99 82 25 21 21 17 13 12 8 6 5 5 5
86 79 67 67 64 66 76 94 95 90 99 99 99 92 97 89 97 99 100 99 99 100 99 98 100 97 98 99 100 92 33 22 21 20 15 13 11 7 6 5 4 4 5
91 91 85 68 62 66 76 70 99 99 100 99 99 98 94 98 99 99 100 99 99 99 98 100 97 95 100 98 46 22 22 21 17 14 13 9 6 5 5 4 4 4 5
100 100 98 79 69 90 94 90 79 85 84 91 85 92 96 99 98 99 98 98 98 99 98 96 97 97 58 23 22 22 19 15 13 12 8 6 5 4 4 4 5 6 6
100 99 100 97 92 97 98 86 77 79 85 98 99 97 98 98 98 97 97 98 98 98 97 95 54 24 22 23 20 16 14 13 10 7 6 5 4 4 5 6 7 6 6
94 100 98 100 99 98 89 77 79 92 92 96 98 98 98 97 98 96 96 100 99 88 37 24 23 23 22 18 15 13 11 8 7 6 5 4 4 5 7 8 7 7 30
93 99 98 100 92 86 90 100 99 98 98 97 98 99 98 98 97 98 94 58 30 24 24 24 23 19 16 14 12 9 7 7 6 5 5 5 6 8 8 7 9 43 51
90 92 96 100 95 85 92 98 95 96 97 98 97 98 97 96 85 41 28 26 25 24 24 20 17 15 13 11 8 8 6 6 5 5 6 7 8 8 7 12 50 57 61
91 86 87 90 87 88 89 90 92 94 95 93 92 88 63 36 26 25 26 25 25 22 18 16 14 12 9 8 8 6 6 5 5 6 7 9 9 8 15 52 59 63 66
97 91 87 89 91 88 89 92 93 94 93 74 47 34 26 25 26 26 25 24 19 17 14 13 10 9 8 8 7 6 5 6 7 8 9 9 9 11 49 57 62 66 73

GFSMW_700_rhum_063.txt.gz
RH
14 16 19 24 44 48 50 59 65 61 55 49 44 44 56 55 53 52 54 54 53 54 52 52 52 53 56 60 54 64 68 75 87 88 94 76 88 85 62 61 67 56 60
18 20 24 25 24 21 27 44 57 72 74 68 62 53 53 63 57 59 64 58 60 59 60 60 59 59 62 61 63 68 71 77 92 93 96 88 86 85 79 79 68 65 58
22 22 26 28 27 25 22 23 39 62 76 79 81 76 64 60 64 57 57 58 60 66 67 69 65 62 61 64 70 71 74 76 86 98 99 85 93 92 83 88 72 65 58
19 22 25 25 25 26 28 27 26 27 38 53 65 78 78 63 58 65 64 63 60 65 74 74 73 69 68 69 75 74 75 78 81 93 99 100 98 91 92 83 70 65 60
22 20 19 17 16 20 24 27 28 28 29 36 36 41 78 76 76 84 88 77 64 63 68 74 75 77 78 82 81 76 75 76 81 86 99 100 99 98 82 71 68 66 64
31 28 24 21 20 20 20 20 22 24 30 34 40 44 59 71 76 75 96 85 80 68 66 70 73 89 92 90 92 90 80 76 93 100 94 100 98 97 85 69 70 70 67
32 30 26 24 21 17 16 18 22 30 33 41 48 48 51 57 60 68 84 90 87 85 81 72 73 81 86 86 91 96 86 92 99 100 98 99 100 88 97 72 73 72 69
33 31 26 23 20 20 20 20 16 17 27 37 45 51 56 58 58 61 67 77 80 91 87 80 74 80 83 88 92 94 85 97 83 100 98 99 98 99 97 76 79 73 69
36 34 34 34 32 31 30 29 29 29 28 26 22 23 34 46 46 49 56 61 74 90 90 81 78 75 80 89 96 88 97 89 96 99 100 100 100 100 84 82 79 75 70
37 38 38 38 37 36 35 34 36 38 40 38 38 38 30 26 28 45 48 51 58 69 76 78 76 79 86 93 98 86 97 95 99 98 94 100 99 90 84 84 80 78 77
38 38 38 37 36 37 39 43 51 59 56 51 48 48 44 36 32 26 45 56 60 58 59 73 86 89 93 99 100 92 98 90 100 100 100 99 100 97 92 88 83 85 78
43 57 56 56 59 57 62 57 45 36 47 68 62 59 56 50 45 29 41 54 69 64 70 80 82 91 100 100 100 100 100 100 100 100 100 99 98 98 97 88 90 71 22
68 67 65 62 64 55 46 34 27 26 25 30 78 77 71 64 58 41 56 70 73 77 75 82 79 89 96 100 100 96 97 100 100 99 99 99 99 98 92 95 49 20 20
71 66 65 69 49 51 38 44 54 51 52 46 61 89 84 75 69 52 68 77 87 85 76 76 78 100 100 100 100 99 100 98 99 98 98 98 98 97 84 23 21 18 15
88 83 82 54 54 42 36 55 47 50 55 70 82 95 90 86 82 73 57 70 89 81 81 69 90 99 99 100 100 100 99 98 98 98 98 98 98 33 21 20 16 14 10
84 78 77 56 59 40 56 55 57 42 71 77 95 100 98 98 94 92 84 57 50 63 94 68 100 93 97 97 99 100 98 98 97 99 98 36 21 22 18 14 12 7 6
84 82 79 66 64 50 44 68 74 75 90 84 92 99 100 97 98 100 72 99 85 63 72 100 99 99 100 100 97 98 97 97 99 65 22 22 20 16 13 9 6 5 5
89 84 85 73 64 66 65 79 99 91 98 88 93 99 99 99 98 92 99 89 100 100 100 99 100 98 98 98 97 97 95 60 24 22 20 17 14 10 7 6 5 4 4
90 100 98 72 63 76 94 72 96 99 87 92 99 98 99 100 98 94 91 99 98 99 97 98 99 98 98 96 92 58 23 22 21 18 15 12 8 7 6 5 4 4 5
99 100 99 90 80 92 92 100 87 66 74 85 90 80 81 90 88 84 93 98 97 97 98 98 97 95 94 47 23 23 22 18 15 13 9 7 6 5 4 4 4 5 6
94 100 99 91 94 93 98 93 86 86 86 80 83 90 94 94 99 97 98 97 98 98 98 96 79 31 24 24 23 19 16 13 10 8 7 6 5 5 5 5 6 6 6
87 100 98 96 99 99 97 84 90 84 85 84 97 96 95 97 97 97 97 98 97 96 53 25 24 24 23 19 16 14 11 8 8 7 6 5 5 5 6 6 7 7 9
91 95 96 90 77 87 100 99 97 98 96 89 92 96 97 97 98 98 97 80 30 24 24 25 24 20 16 14 12 9 9 8 7 6 6 5 6 6 7 7 7 15 39
89 100 100 90 81 81 90 97 89 93 95 96 95 94 93 94 81 37 25 24 25 26 26 21 16 15 12 10 9 9 8 7 6 6 6 6 7 7 8 8 22 45 50
84 88 92 92 90 88 89 95 96 97 97 95 93 85 52 30 26 25 26 28 27 21 17 15 13 11 10 10 9 8 7 6 6 6 7 8 9 10 9 25 51 56 60
94 89 89 92 92 89 92 92 92 89 88 61 38 28 25 25 26 28 29 22 18 16 14 11 11 11 11 9 8 7 6 6 6 8 9 11 12 10 22 54 60 63 66

GFSMW_700_rhum_066.txt.gz
RH
17 28 37 47 51 55 56 53 51 53 52 44 41 38 36 39 48 55 54 52 53 55 57 58 57 56 56 58 59 57 55 59 69 72 84 91 94 81 86 85 83 73 72
16 16 19 29 40 43 49 53 56 58 66 62 53 54 49 47 44 53 65 62 59 59 64 63 60 60 60 61 61 63 65 69 72 73 86 94 89 93 89 90 86 84 80
19 20 22 22 20 22 25 32 45 55 55 59 55 62 67 59 50 48 52 60 60 66 65 68 68 66 67 65 63 69 76 76 79 81 86 98 97 98 87 95 88 92 88
24 22 23 24 22 21 24 28 29 30 30 32 39 52 71 75 73 62 56 61 62 67 69 74 76 72 72 68 66 68 78 87 95 97 93 88 99 96 96 91 88 84 76
24 22 19 21 25 23 24 26 30 32 34 33 36 41 56 71 76 76 72 69 67 73 74 75 77 78 77 75 78 80 85 87 97 100 99 99 98 100 98 98 93 81 78
30 28 26 23 20 19 19 22 27 33 36 37 38 40 39 40 43 44 48 66 65 69 72 73 73 76 74 78 84 88 87 91 97 96 99 96 100 100 90 98 88 85 88
34 33 31 29 27 26 23 22 23 25 28 31 35 40 44 47 49 51 50 65 71 74 75 86 82 79 75 79 85 90 91 94 98 88 88 97 98 99 91 100 99 92 97
34 31 30 28 25 23 24 24 25 23 19 20 28 32 38 44 52 54 53 58 62 74 74 83 82 78 69 75 79 88 99 100 100 89 97 100 98 100 94 99 100 99 96
36 32 29 29 28 26 26 25 27 29 28 27 27 27 27 30 39 49 54 55 54 56 60 72 82 90 81 81 81 86 95 98 98 100 88 100 90 94 100 100 100 100 94
41 38 36 35 34 33 31 30 28 27 29 32 34 38 40 37 34 30 33 45 50 52 58 62 66 83 88 88 87 88 93 99 100 100 93 99 94 99 98 100 98 100 94
37 35 34 34 41 42 40 38 38 42 45 48 50 52 56 54 44 44 38 32 33 48 52 56 67 74 84 88 93 91 99 100 100 99 100 98 95 99 99 94 98 99 98
38 35 37 50 47 46 47 49 50 52 49 44 44 44 50 72 59 52 51 46 31 40 53 61 67 67 67 78 91 100 100 97 100 100 99 100 100 100 100 98 98 97 98
40 40 64 60 49 48 52 57 51 44 37 25 34 36 30 62 77 66 56 48 35 39 57 72 80 77 84 87 98 94 100 96 100 100 100 100 99 99 99 97 97 97 80
44 65 56 54 58 57 50 47 35 27 39 40 35 42 40 58 82 76 67 65 52 57 72 87 93 99 88 95 95 86 79 95 99 99 100 100 99 98 99 97 84 29 21
75 72 69 69 66 54 54 32 48 55 46 35 39 46 54 85 84 82 73 74 64 88 93 100 100 94 89 87 92 97 100 99 100 100 98 99 98 98 94 36 21 17 15
91 87 81 71 72 62 49 42 59 59 52 46 52 66 86 92 95 98 89 88 75 99 100 97 99 98 98 71 99 100 99 99 98 99 95 96 97 30 22 18 15 12 8
100 99 83 77 77 65 51 47 48 55 52 56 58 81 98 90 98 98 98 93 83 73 58 65 86 97 93 100 99 100 100 97 98 98 93 34 22 20 16 12 8 7 5
100 98 98 88 74 60 56 43 50 75 75 81 99 100 91 100 98 98 99 99 92 99 94 99 100 100 100 98 98 98 97 98 86 35 23 20 16 12 8 8 6 5 5
93 95 99 92 67 55 58 45 62 81 74 80 84 92 100 99 99 98 99 84 96 96 98 100 99 98 98 99 97 97 91 31 23 20 16 12 9 8 7 6 6 5 5
95 100 99 97 80 53 52 54 64 84 82 81 79 78 86 79 70 93 99 87 95 99 99 98 98 99 98 97 81 27 24 20 16 13 10 8 8 7 6 6 5 5 5
86 96 100 100 99 96 79 76 74 76 89 100 100 95 87 84 91 100 94 98 98 98 98 97 97 86 49 27 24 19 16 13 10 9 9 8 7 6 6 5 5 6 6
91 99 100 97 100 100 89 95 97 98 91 96 98 100 100 100 100 100 96 97 98 97 82 37 25 25 24 19 15 13 10 10 10 8 8 7 6 6 6 6 7 7 7
95 98 89 83 80 99 99 90 98 96 89 89 88 92 97 99 98 97 97 97 64 27 25 26 23 17 15 12 11 11 11 9 9 8 7 6 6 6 7 8 9 9 24
93 96 86 72 75 94 90 92 87 85 90 99 97 96 97 97 79 37 25 25 26 28 22 17 15 12 11 12 12 11 10 9 8 6 6 6 7 8 10 11 10 27 48
86 86 91 86 82 84 84 89 90 89 92 96 97 90 53 30 26 26 27 30 23 18 16 13 12 13 14 13 11 10 8 7 6 5 6 8 11 12 14 12 34 54 60
98 92 90 90 86 82 83 84 84 84 85 68 42 29 26 26 28 30 26 20 16 14 12 13 15 15 13 11 10 8 6 5 6 7 9 11 12 13 12 42 63 64 68

GFSMW_700_rhum_069.txt.gz
RH
13 24 48 51 52 50 49 48 46 44 43 42 40 41 38 41 44 47 56 59 53 54 56 54 58 59 59 63 64 62 62 63 63 62 68 72 73 83 89 87 84 85 86
14 15 17 35 47 47 49 52 51 48 50 51 47 43 49 49 46 47 49 58 64 59 58 56 56 58 59 64 65 65 68 68 67 68 77 76 74 82 91 96 95 85 89
15 14 16 16 18 25 37 46 51 54 54 54 60 61 62 64 52 40 46 44 48 58 62 60 60 61 62 64 68 68 67 69 74 80 83 81 81 91 99 97 94 88 90
18 18 20 21 20 18 17 20 27 34 35 31 39 49 52 52 60 71 65 64 65 66 62 66 69 71 69 69 70 74 70 69 74 86 88 90 90 78 98 97 94 98 88
23 22 24 26 26 24 23 24 27 27 25 24 25 29 35 39 40 61 79 81 80 77 66 66 69 71 70 79 77 80 80 78 83 86 92 95 97 98 92 91 93 99 94
31 30 27 24 24 23 25 27 29 30 30 29 29 29 27 28 34 43 57 67 76 76 72 69 69 71 73 76 75 80 85 86 86 89 90 92 96 98 89 92 100 100 96
35 36 35 33 30 29 27 25 24 24 25 28 33 36 35 36 35 37 40 43 47 48 51 63 65 69 74 74 77 77 82 88 91 96 97 89 91 87 90 97 97 100 96
36 35 33 32 30 28 26 25 24 23 21 21 24 27 31 32 34 43 47 47 47 50 54 63 65 70 86 95 88 82 78 82 88 96 100 98 100 95 99 95 100 100 97
37 36 34 32 31 30 28 26 25 25 25 26 25 24 23 24 27 34 41 43 48 48 49 51 57 70 80 90 99 97 82 82 90 96 100 95 97 100 99 100 96 99 100
42 41 41 37 34 31 29 29 27 25 24 24 26 28 31 34 36 37 34 32 38 50 54 55 57 63 66 76 88 97 99 94 92 95 98 100 98 93 100 100 100 100 100
46 41 36 33 31 30 39 41 39 38 36 35 35 39 44 46 47 44 45 46 39 34 41 51 53 56 63 68 76 81 100 100 96 93 97 100 93 98 99 97 100 99 100
41 37 34 35 40 42 42 38 39 41 43 46 46 46 44 43 47 63 73 63 49 45 41 34 43 53 63 67 81 87 98 100 100 100 97 98 100 99 99 100 99 98 99
40 38 37 40 50 49 43 42 42 43 36 32 27 24 24 27 35 38 74 73 60 57 53 45 34 50 68 72 85 89 95 99 98 93 98 99 99 100 99 99 99 98 98
44 43 50 57 52 52 51 49 41 34 21 29 35 36 31 30 39 46 73 73 73 63 55 41 39 60 82 93 95 87 85 94 100 94 96 100 100 98 97 99 99 98 97
76 68 66 60 59 61 56 52 40 23 24 40 43 42 39 39 53 57 82 78 82 79 75 68 71 81 96 100 99 99 100 97 99 99 100 99 99 98 99 99 94 47 22
99 89 73 63 60 64 62 49 33 27 27 44 45 40 48 62 82 91 81 90 87 88 95 99 98 76 73 99 99 96 100 95 96 99 98 99 98 97 95 54 21 16 11
98 97 97 77 58 65 58 43 34 33 42 44 36 43 66 94 89 86 83 86 92 94 94 99 98 99 99 99 98 99 90 100 100 98 98 98 94 78 25 16 12 9 8
91 100 95 84 68 63 50 44 32 35 53 59 53 59 68 71 87 98 99 86 99 98 98 76 80 99 99 97 100 98 100 98 97 97 91 62 30 16 11 9 8 7 6
92 100 98 95 68 50 51 40 35 41 63 60 56 79 98 98 90 98 99 99 95 100 99 98 98 98 99 99 99 98 98 96 88 48 22 14 11 9 9 8 7 6 6
100 100 100 91 65 52 41 37 39 47 48 52 60 91 98 91 91 86 93 100 100 99 98 98 98 100 99 97 97 93 72 30 17 13 11 10 9 8 8 7 6 5 5
100 83 97 90 94 85 56 42 42 50 67 76 79 84 93 86 93 98 95 97 96 96 97 97 97 97 92 63 28 20 15 12 11 11 10 9 8 7 6 5 5 6 7
88 100 100 98 100 98 93 56 58 74 78 99 98 98 99 99 99 99 99 97 97 97 93 66 36 25 22 16 13 12 12 12 11 10 9 8 6 5 5 6 8 8 9
87 93 91 86 89 94 100 82 87 79 78 87 92 96 99 97 96 96 100 98 49 27 26 24 19 15 12 12 13 13 12 11 9 8 6 5 5 6 7 8 7 9 11
78 81 72 65 67 93 96 89 83 82 84 84 86 90 95 93 70 34 26 26 27 24 18 15 12 13 14 14 13 12 10 8 6 5 5 5 5 6 5 6 9 18 45
82 78 75 72 69 72 77 79 81 82 85 87 90 74 41 27 26 26 28 26 19 16 14 13 16 16 15 13 12 10 7 5 4 4 4 5 5 5 6 9 29 49 57
88 86 82 81 81 81 80 78 78 78 80 66 38 28 26 27 28 30 23 19 16 14 15 18 18 16 14 12 9 6 4 4 3 3 4 4 4 6 11 40 52 58 60

GFSMW_700_rhum_075.txt.gz
RH
21 23 35 42 44 42 42 42 42 42 49 43 42 38 38 43 42 42 41 48 50 50 46 51 51 54 56 58 56 56 56 58 60 61 62 63 64 64 61 60 62 66 72
18 18 18 26 37 41 43 43 43 43 49 48 44 45 45 44 46 45 40 44 46 47 49 61 59 57 58 60 62 60 61 60 64 64 67 66 65 64 65 67 69 72 74
38 25 13 14 15 20 30 36 44 48 51 51 48 48 47 44 43 42 39 37 43 44 48 57 60 65 67 63 65 62 59 60 66 67 73 70 66 63 65 76 77 79 75
18 13 12 11 11 11 12 14 20 34 43 50 53 46 43 39 38 38 42 43 44 47 48 52 53 56 59 62 70 73 66 67 64 68 67 70 71 73 72 72 76 82 80
12 12 12 12 12 12 12 12 13 15 21 30 42 47 47 38 31 36 38 40 42 41 42 45 53 52 61 61 62 69 72 78 80 74 73 75 75 79 80 78 75 78 83
18 15 14 13 13 14 15 15 15 15 16 16 18 20 21 22 22 23 28 32 35 29 40 56 53 55 63 63 62 74 73 71 80 81 82 83 82 84 89 94 93 93 88
31 28 26 25 24 22 22 22 22 22 22 22 25 27 28 30 29 26 28 31 31 33 33 38 52 70 80 80 74 74 77 78 77 78 78 82 89 95 98 100 99 96 93
35 35 34 34 32 30 29 28 27 26 26 26 26 28 29 29 30 32 33 38 38 42 41 39 38 42 50 67 75 74 72 69 73 78 84 81 80 96 100 99 100 96 98
43 42 40 37 34 32 31 29 28 26 25 24 23 23 22 21 21 22 25 29 34 36 39 42 44 46 49 52 58 63 64 63 65 69 87 86 89 97 98 99 100 93 100
41 39 37 36 36 35 34 31 28 26 24 23 21 20 19 20 21 22 24 23 23 22 24 29 36 47 55 58 58 58 57 58 62 68 83 90 95 99 98 99 100 99 100
44 42 41 41 41 40 37 33 28 25 23 22 28 35 37 36 33 28 26 25 26 29 31 32 33 36 44 52 57 62 65 68 71 77 83 87 92 100 99 100 99 100 98
51 49 48 45 42 37 32 29 30 35 39 40 40 38 38 42 44 46 46 47 46 44 43 41 40 40 41 41 42 46 55 58 62 74 80 90 94 93 100 100 99 100 99
52 48 43 38 34 32 33 37 45 45 42 42 42 43 42 39 37 36 39 41 42 45 51 61 67 57 53 54 53 47 44 42 51 66 82 96 100 98 99 99 94 89 94
46 44 43 41 38 34 41 52 49 47 47 44 42 36 25 21 28 32 34 35 33 34 39 46 62 76 68 61 66 65 56 53 48 94 100 100 100 90 99 84 87 90 96
54 59 67 67 54 50 56 54 51 53 51 44 27 21 20 24 31 35 36 35 37 40 47 58 77 72 68 72 78 72 66 87 92 99 87 99 90 98 95 99 94 96 98
79 92 88 86 80 66 56 57 56 56 42 28 24 20 26 30 30 32 32 36 40 51 65 71 74 75 71 75 79 96 99 96 99 100 97 96 99 100 98 98 98 97 98
93 98 95 93 100 93 69 65 64 47 32 24 29 35 42 39 40 40 43 53 62 68 72 74 70 72 83 86 91 97 97 98 98 98 99 98 98 97 96 96 97 79 29
93 92 92 94 96 97 80 74 56 38 32 33 52 51 48 50 48 59 61 63 60 61 69 70 96 98 96 81 72 91 99 99 97 97 93 96 96 96 83 21 13 11 11
92 98 100 100 100 100 83 59 48 44 34 58 56 44 47 56 58 61 61 64 62 64 78 83 87 88 99 100 94 94 94 93 89 92 90 39 18 14 12 12 11 10 8
97 99 99 100 100 98 70 56 42 39 37 43 45 46 53 55 57 59 65 64 72 85 80 86 84 83 83 82 84 87 84 48 24 16 14 13 13 12 10 9 7 6 5
100 98 97 99 100 94 86 69 47 37 38 42 52 47 59 64 58 60 68 71 84 88 81 81 77 80 76 73 67 44 18 14 14 14 13 11 9 7 5 4 3 3 3
86 95 99 98 100 99 98 92 52 45 51 62 72 70 68 67 72 71 74 75 76 74 60 44 33 26 21 16 15 14 15 14 12 11 8 5 4 3 2 2 2 2 2
89 84 92 93 94 100 100 94 60 60 68 73 79 76 76 77 76 74 75 58 28 28 29 25 19 16 15 16 16 15 13 12 8 5 3 2 2 2 2 2 2 3 11
90 82 76 71 72 87 94 91 71 68 64 66 69 72 74 77 74 36 26 29 30 27 21 17 15 16 18 18 16 14 11 7 4 3 2 2 2 2 2 2 5 19 31
93 80 75 68 60 65 81 77 71 68 67 69 74 77 74 41 26 27 31 30 25 21 17 16 18 19 19 18 15 12 8 5 3 2 2 2 2 2 2 8 24 32 36
96 93 79 74 68 66 68 68 72 74 75 77 78 52 27 26 29 32 31 27 22 17 16 19 21 21 21 18 14 9 6 3 2 2 2 2 2 3 11 27 32 36 37

GFSMW_700_rhum_078.txt.gz
RH
49 43 30 30 37 41 47 49 47 46 43 41 43 42 39 38 40 41 40 40 37 37 42 50 53 53 48 50 51 56 60 58 58 57 57 59 62 64 63 64 63 60 61
45 45 39 25 35 42 42 53 53 46 44 43 47 48 49 49 47 44 43 43 43 40 38 40 43 44 47 60 60 58 60 64 68 67 67 65 65 64 65 66 65 65 66
46 41 34 22 22 32 40 42 48 51 48 46 42 47 53 51 50 48 49 48 48 48 43 42 44 47 49 60 64 63 63 63 67 66 71 72 69 70 67 67 70 73 72
48 43 38 25 18 18 22 31 38 42 44 55 54 44 46 50 49 53 54 51 51 48 48 53 48 48 54 56 58 59 62 63 68 73 70 73 75 75 73 72 73 75 75
24 34 26 19 14 14 14 15 16 18 23 33 49 60 46 43 40 36 36 34 35 40 48 50 52 53 48 54 61 65 64 66 64 62 71 79 85 85 81 79 78 81 86
15 13 14 17 17 15 13 13 12 13 12 13 16 22 30 28 30 24 16 19 21 23 30 42 52 51 52 58 63 61 64 64 67 65 67 71 77 86 91 94 93 96 98
12 13 14 13 13 13 13 13 14 15 15 16 16 16 17 19 19 21 22 22 29 32 29 31 36 41 44 55 68 79 85 87 86 82 75 77 80 81 81 88 93 98 100
25 24 26 24 22 22 22 21 21 21 21 21 22 22 24 26 28 30 33 32 32 33 36 35 33 36 40 42 42 47 60 78 82 82 84 84 81 79 80 89 97 99 100
38 35 35 35 34 34 32 31 30 29 28 26 26 25 25 25 27 28 30 29 30 30 28 35 42 44 46 48 51 53 55 60 64 69 72 75 82 77 77 83 98 100 99
44 44 44 43 41 38 35 32 30 28 26 25 25 24 23 22 21 21 22 22 20 22 23 24 25 26 31 36 44 50 55 60 63 66 70 73 76 79 82 89 99 99 100
48 46 42 39 37 36 35 34 31 28 26 24 23 21 20 20 21 26 29 29 27 25 25 27 28 29 31 32 34 40 50 55 58 61 65 72 77 77 80 96 97 100 100
44 43 42 41 40 40 38 34 31 29 26 23 24 27 30 34 36 36 36 40 41 41 40 41 41 40 38 39 41 42 42 43 44 45 46 50 61 66 93 98 100 99 96
50 50 50 48 44 39 35 31 28 25 29 37 41 40 39 39 40 41 42 40 39 39 38 39 44 50 56 63 67 64 57 56 57 59 56 53 55 97 99 99 86 99 100
56 53 50 45 41 38 34 32 31 38 46 45 43 43 43 42 38 29 21 24 30 32 34 35 35 36 39 43 53 71 70 68 70 72 67 85 84 99 87 91 99 99 98
51 44 42 43 47 47 46 43 51 50 48 48 49 47 36 25 20 20 24 32 34 36 34 34 35 39 44 56 67 72 72 75 71 78 88 94 96 99 100 99 100 98 98
48 57 61 74 76 75 65 55 56 53 51 54 45 25 22 20 24 30 29 30 31 32 35 37 42 50 61 58 68 67 70 73 87 94 100 99 99 98 98 97 98 97 93
82 87 91 92 93 91 84 67 65 60 59 44 29 26 28 34 35 35 35 35 41 45 52 53 59 59 65 65 68 68 75 74 91 96 99 96 98 96 97 95 95 84 30
85 91 93 96 95 89 88 81 74 67 50 35 31 30 44 43 43 45 51 52 51 52 56 59 57 64 71 70 70 67 75 80 86 87 88 87 93 90 62 23 14 12 12
89 92 95 100 98 100 97 87 73 55 44 34 42 48 42 41 48 53 56 53 55 58 54 59 60 68 69 72 77 79 79 80 81 77 52 25 15 14 13 12 10 9 7
94 98 100 100 100 100 99 81 63 53 42 37 42 41 43 51 46 46 56 56 62 62 65 66 68 72 75 77 75 65 52 30 17 15 14 13 11 9 7 5 4 3 2
98 98 98 100 100 100 99 86 56 45 39 40 43 51 49 60 56 51 53 57 60 65 70 70 69 61 41 24 19 16 16 16 15 13 11 9 6 4 3 2 2 2 2
96 90 96 100 100 100 100 100 74 45 40 44 64 63 60 66 65 63 62 63 64 63 45 32 28 22 18 17 17 17 16 14 13 11 7 4 3 2 2 1 2 2 2
94 91 88 94 95 99 98 100 92 56 58 65 74 76 74 71 71 67 68 61 30 29 30 25 21 18 18 18 18 16 15 13 11 7 4 3 2 1 1 2 2 2 7
100 91 83 78 75 86 90 97 94 65 74 72 72 74 74 72 71 63 29 28 31 29 24 21 19 19 20 20 18 17 15 12 9 4 3 3 2 2 2 2 2 10 22
99 94 82 72 62 61 82 92 79 75 70 71 71 72 72 70 40 26 29 32 29 25 21 19 20 21 22 22 20 18 16 14 8 4 4 3 2 2 2 2 10 22 27
94 98 94 77 68 62 66 70 69 69 73 72 72 73 56 28 27 30 32 30 28 23 20 20 21 23 24 24 22 19 16 12 6 4 3 2 2 2 3 9 21 26 31

GFSMW_700_rhum_081.txt.gz
RH
48 51 49 36 28 31 36 42 43 43 42 42 39 36 36 36 38 41 38 39 38 38 38 39 38 42 48 52 50 47 46 52 57 63 62 63 60 60 60 63 64 65 66
50 50 50 48 33 26 31 37 40 49 49 48 48 48 48 53 48 46 44 41 41 42 44 44 44 44 45 48 47 46 56 64 63 62 66 66 66 64 69 70 69 68 68
48 50 49 46 41 30 35 42 45 43 46 52 58 59 55 53 50 45 47 49 51 53 53 51 48 48 48 51 52 55 58 65 70 74 76 70 66 66 65 68 73 75 75
43 46 50 48 42 34 25 26 38 46 46 42 42 47 48 51 53 59 64 62 62 60 58 56 52 50 49 52 52 62 63 65 65 68 66 69 72 75 76 74 77 79 79
51 48 45 40 38 35 31 23 22 30 40 47 46 46 45 46 49 53 60 65 68 67 66 59 53 50 51 53 59 66 62 64 67 68 71 73 75 78 81 82 80 82 86
44 43 36 33 25 25 23 21 24 22 20 22 24 26 28 28 29 30 31 34 30 28 32 42 46 43 47 52 59 65 65 63 66 68 72 77 76 80 84 89 90 88 85
44 44 37 28 27 24 19 18 20 20 17 15 15 16 16 14 14 14 13 13 13 12 17 22 26 29 33 38 45 50 55 60 66 71 69 81 83 88 89 94 97 98 99
46 27 24 24 23 20 22 22 19 16 15 14 14 15 15 16 16 17 18 18 17 20 22 27 31 33 35 39 43 46 47 48 52 53 63 71 74 92 89 88 93 97 97
47 38 28 22 22 22 20 18 18 19 20 20 19 20 21 21 23 26 26 28 28 28 30 31 31 31 37 41 44 45 46 49 50 54 57 62 68 97 81 87 92 93 93
45 38 38 39 38 35 33 31 31 32 32 30 27 26 25 25 24 24 24 24 24 24 25 24 24 24 24 25 26 27 30 34 38 42 47 52 60 72 95 86 91 93 98
47 48 48 47 45 44 42 39 36 33 31 29 28 26 25 24 23 22 22 22 22 21 22 24 24 25 26 28 29 32 33 35 38 40 42 49 55 56 56 63 73 82 99
51 52 51 48 44 41 38 36 34 33 32 30 28 26 24 22 20 20 21 26 34 39 41 42 44 43 40 41 44 47 49 51 52 51 49 50 52 55 54 52 52 70 70
54 52 48 46 43 42 40 39 37 35 31 28 25 22 21 27 33 34 35 36 37 39 42 42 42 40 38 38 38 42 46 54 60 70 70 68 66 70 71 67 71 95 96
58 56 53 51 49 46 43 39 35 31 25 24 24 33 40 40 39 40 41 41 37 27 23 28 32 32 33 35 38 41 46 51 62 64 61 70 73 78 95 98 80 100 94
60 58 55 51 48 45 42 38 34 29 27 32 42 46 47 46 44 40 31 23 20 24 30 30 30 28 29 33 38 38 35 45 54 62 61 69 78 98 100 99 99 94 98
57 55 49 49 49 51 58 61 50 47 46 49 50 50 50 43 25 21 20 24 29 30 29 29 34 35 39 39 40 49 52 58 68 60 69 93 100 98 99 98 95 96 96
51 64 77 81 84 86 89 84 76 64 58 56 54 52 31 24 23 28 33 34 32 34 40 43 46 50 49 52 57 60 58 59 66 74 84 96 97 93 89 89 80 52 25
84 85 89 95 96 97 92 86 79 70 70 63 52 31 27 29 40 40 40 38 44 45 46 49 54 52 58 60 64 62 66 69 71 76 77 67 46 29 15 14 13 11 9
82 86 98 97 99 99 100 98 92 80 74 56 37 38 48 46 40 44 45 50 53 56 53 55 56 57 62 63 64 64 65 61 33 19 16 15 13 12 9 6 4 4 3
97 99 99 100 99 99 100 100 96 81 59 48 42 51 44 40 44 50 52 56 58 63 60 61 60 60 63 63 61 41 20 17 16 15 14 13 9 6 4 4 3 2 2
98 100 100 99 100 100 100 100 92 65 50 46 42 47 50 49 51 51 54 58 65 66 66 62 56 42 28 22 20 18 17 16 15 15 13 10 6 4 4 2 2 1 2
100 99 98 100 100 100 100 100 93 75 49 40 42 51 53 61 63 59 63 64 64 62 46 32 28 22 20 19 19 18 17 17 17 16 13 7 4 4 3 2 2 2 2
99 100 98 93 93 96 100 100 99 88 52 46 56 67 65 69 70 68 67 67 39 29 30 25 22 20 20 21 20 20 19 18 17 16 13 7 5 5 2 2 2 2 2
99 100 96 86 82 84 93 100 100 95 63 62 69 79 78 75 71 70 54 28 30 30 25 22 20 21 22 22 22 22 20 19 18 16 10 6 4 3 2 2 2 2 7
100 100 100 84 74 66 80 99 100 96 76 77 76 78 75 75 75 37 28 31 30 27 23 21 21 22 24 24 25 24 23 23 21 17 9 5 4 3 3 3 3 6 17
95 97 100 89 74 68 67 79 84 77 71 69 71 75 77 71 31 27 31 31 29 26 22 21 22 24 25 26 27 27 27 24 20 15 8 5 4 3 3 3 5 13 21

GFSMW_700_rhum_084.txt.gz
RH
46 47 50 46 38 29 29 42 51 50 47 46 49 47 37 38 41 39 39 37 39 40 38 39 41 42 41 39 40 43 45 46 53 59 60 62 61 61 66 71 71 70 70
49 46 45 47 40 34 28 28 40 50 50 48 44 42 42 47 48 49 49 44 43 44 44 46 47 47 48 47 46 47 47 52 59 67 75 70 66 66 70 73 73 75 76
62 54 51 43 42 40 37 28 27 34 46 54 58 51 51 50 49 47 48 52 57 54 55 53 50 53 54 53 53 49 53 54 62 65 72 70 66 68 72 76 80 84 86
58 61 56 49 44 45 40 31 28 27 29 43 52 59 61 57 53 56 56 55 55 52 54 56 56 56 60 59 58 55 59 60 60 68 72 74 78 79 75 72 73 78 83
43 55 55 52 51 48 45 37 32 25 28 33 42 50 48 48 52 53 51 48 49 49 50 53 56 60 59 58 57 54 54 56 57 63 70 73 72 71 70 69 74 78 82
36 44 44 47 52 52 50 48 43 34 30 25 28 37 46 54 56 56 60 63 71 75 73 67 59 54 48 46 44 38 36 42 49 62 64 64 65 73 78 92 98 98 100
41 45 54 52 50 52 52 51 49 46 41 29 26 25 24 24 26 25 23 21 19 20 22 25 29 31 29 28 30 30 32 36 37 45 55 51 54 65 84 96 98 99 78
42 45 46 55 54 53 50 46 45 43 40 37 31 24 20 18 16 14 14 13 13 14 18 18 20 23 30 32 36 39 41 39 42 40 44 45 54 61 64 69 84 92 91
44 48 49 50 56 53 50 46 45 37 34 36 30 20 16 15 15 16 16 18 20 20 21 25 29 31 35 35 35 36 39 42 45 47 50 50 52 54 54 62 72 88 71
50 55 55 46 46 45 42 35 25 22 22 23 22 21 21 21 22 22 24 25 26 27 27 28 30 28 26 24 24 25 27 28 29 31 32 37 40 42 46 47 50 81 91
51 55 56 52 47 38 33 32 35 35 34 33 31 30 28 27 27 27 26 25 25 24 24 23 23 23 23 24 26 27 28 30 33 36 38 41 43 46 49 48 50 50 53
53 50 52 50 46 44 45 44 43 40 38 35 33 31 30 29 28 26 25 24 23 23 22 23 30 39 42 44 43 43 42 46 52 56 57 62 64 63 67 65 64 67 72
46 50 54 54 52 49 46 43 40 38 36 35 34 34 32 30 28 25 23 23 27 33 38 39 39 42 46 48 49 46 39 39 38 38 42 47 53 63 68 71 69 77 75
55 58 57 53 50 47 44 43 41 41 40 38 35 30 26 23 22 28 36 38 39 40 42 42 41 33 26 28 29 33 36 36 36 36 43 49 54 53 58 65 62 96 89
61 59 57 55 53 51 50 49 47 44 40 35 30 24 24 31 41 43 43 44 43 41 35 26 22 26 30 32 33 33 35 36 36 44 48 56 59 56 65 82 87 95 98
62 60 58 57 54 52 50 50 52 48 40 37 34 30 37 47 48 48 48 41 28 22 21 25 28 29 31 32 36 38 42 44 50 51 54 58 62 68 78 85 88 91 85
63 61 58 60 57 59 65 77 78 72 62 61 58 50 53 52 52 42 26 22 23 29 32 33 39 40 42 44 47 51 53 54 52 58 60 61 64 68 65 50 25 15 13
62 62 83 89 92 93 97 98 92 83 75 72 67 62 58 51 32 26 28 35 38 37 43 43 44 47 50 54 57 60 60 59 60 59 49 24 17 15 14 12 9 6 5
69 87 90 93 93 99 99 100 100 99 93 83 76 67 48 33 32 42 42 44 49 50 48 50 52 53 58 60 61 63 62 59 45 23 18 16 15 14 9 7 5 4 3
85 88 90 87 97 98 100 100 99 100 99 90 74 52 41 51 48 44 48 53 55 56 58 57 59 60 62 61 61 53 29 21 18 16 16 18 16 12 8 6 6 4 2
97 95 98 100 99 100 100 100 100 100 97 76 64 49 56 50 47 50 53 58 60 65 65 64 64 59 42 26 22 21 19 17 17 17 18 19 18 12 9 9 9 4 2
100 98 98 100 100 100 100 100 100 100 96 66 56 49 52 54 54 57 56 61 66 70 67 59 36 27 22 21 21 20 19 18 19 19 20 21 19 14 11 9 5 3 2
98 99 100 100 99 98 100 100 100 100 100 72 49 49 53 57 64 63 66 69 71 59 34 29 24 21 21 22 21 22 22 21 21 22 23 22 19 11 8 7 4 3 3
97 99 99 100 94 88 90 100 100 100 100 77 52 55 67 68 74 71 69 70 38 30 29 24 21 21 22 23 24 25 25 24 25 26 26 22 13 8 6 6 4 4 3
99 99 100 100 93 79 73 84 100 100 100 84 66 75 81 78 76 75 67 31 30 30 25 22 21 22 24 25 26 27 28 28 30 31 30 25 16 11 8 6 6 4 4
98 99 100 99 93 76 68 76 98 100 100 90 84 87 86 80 76 64 30 30 30 26 24 21 21 22 24 26 28 30 32 35 36 36 38 34 22 15 12 7 5 5 5

GFSMW_700_rhum_087.txt.gz
RH
62 62 56 51 49 42 40 37 38 46 48 45 43 41 44 46 46 41 41 34 34 36 39 39 37 40 42 44 42 43 42 40 42 40 41 45 53 58 65 68 74 77 80
59 51 50 44 40 43 37 36 33 37 46 48 45 46 46 54 51 46 48 44 44 43 43 45 46 48 48 48 49 53 52 50 49 50 54 49 49 53 66 68 76 81 87
52 51 43 43 42 38 39 37 33 33 39 45 47 46 47 44 42 40 40 45 52 60 55 55 55 56 54 54 58 60 59 58 56 56 61 58 54 56 60 68 74 78 83
50 58 53 42 40 42 40 38 35 38 39 43 49 50 49 50 50 49 56 64 64 63 58 58 59 60 58 60 63 67 66 65 61 59 60 62 63 75 68 58 59 67 72
34 45 62 57 54 50 45 38 41 42 42 39 44 46 51 54 55 58 59 57 58 60 58 58 55 54 56 60 66 70 69 62 58 54 54 57 57 59 72 72 74 68 81
32 34 52 64 60 59 52 48 42 41 41 39 39 44 44 44 45 50 54 57 58 59 58 55 57 57 54 60 68 63 50 44 41 36 36 37 60 84 72 71 61 72 88
34 37 37 50 60 61 56 52 52 48 44 43 41 40 39 33 40 52 54 60 62 62 60 56 47 40 43 42 35 31 28 29 30 34 40 59 55 64 64 61 59 61 71
35 42 42 40 48 50 50 50 53 52 50 46 46 45 42 35 29 26 26 28 29 31 28 22 20 20 22 25 26 29 35 35 36 40 43 46 47 49 51 52 55 53 52
29 32 42 48 54 57 58 56 54 53 52 49 45 42 40 36 31 27 22 17 16 16 16 18 22 24 24 28 36 45 37 36 35 37 40 44 47 48 46 42 37 38 42
29 32 36 46 50 54 54 59 58 55 54 51 46 39 33 25 23 19 17 16 16 16 19 22 24 27 28 31 30 29 26 26 27 28 29 30 31 33 35 38 41 47 52
39 42 46 51 57 53 51 50 56 56 54 52 47 28 21 21 21 20 21 24 25 26 26 25 24 24 25 24 24 25 28 30 31 31 34 38 41 47 53 56 59 63 64
48 51 57 59 60 58 56 54 46 43 34 31 31 33 33 33 31 30 29 29 28 27 26 25 25 25 25 25 27 38 44 47 48 48 50 53 50 47 41 43 47 58 62
56 55 54 55 55 56 55 50 45 42 44 43 40 38 35 34 33 32 31 30 29 27 25 24 27 30 34 39 44 46 50 51 49 43 37 35 36 34 37 43 43 49 54
65 60 52 56 59 58 57 54 50 47 44 42 40 38 36 36 34 32 29 27 25 25 30 37 40 41 43 46 47 40 32 33 34 36 36 33 37 40 47 56 54 57 62
67 61 59 60 60 56 54 51 48 46 45 44 44 40 38 34 30 25 25 28 37 42 43 45 45 44 40 30 30 35 36 35 33 32 32 43 46 48 54 54 59 68 71
68 67 64 59 57 56 55 55 53 52 50 48 44 41 37 33 31 29 39 48 49 50 48 42 31 25 28 34 33 31 32 36 37 42 48 49 49 54 59 63 65 58 38
66 63 62 62 61 59 57 57 57 59 60 55 49 44 43 43 39 42 50 51 49 37 27 26 30 34 34 36 38 43 42 43 51 51 54 54 57 44 23 16 15 14 11
67 66 65 64 69 75 80 87 95 94 88 79 67 67 61 60 55 55 53 38 28 28 34 38 39 44 44 48 50 51 52 57 58 59 58 43 23 17 16 16 13 10 8
68 68 67 84 92 93 92 87 98 99 100 100 89 83 74 70 62 51 35 33 42 42 43 48 50 50 54 54 53 55 60 62 60 47 25 18 16 18 18 16 13 11 11
70 67 83 90 89 97 95 99 96 100 99 100 99 95 86 75 59 47 47 52 53 52 56 56 58 59 56 58 63 63 60 48 24 20 17 17 18 20 20 18 15 13 13
85 85 92 92 94 94 100 99 100 99 100 100 100 97 80 74 73 63 54 58 60 60 62 63 65 62 62 62 55 32 22 21 19 18 18 19 21 23 24 20 16 14 14
100 99 99 100 96 99 99 99 100 100 100 100 100 86 74 69 77 56 61 64 66 67 70 69 66 66 46 26 22 21 21 20 20 20 21 23 25 27 24 18 15 14 10
100 100 100 100 99 99 100 100 100 100 100 100 99 78 67 62 71 65 65 66 70 74 70 68 49 30 23 22 22 22 22 23 23 24 26 29 30 28 25 20 16 14 13
100 99 98 98 99 100 99 96 100 100 100 100 100 80 58 58 65 67 66 68 75 74 60 34 27 22 21 22 23 24 25 27 28 30 32 33 32 33 30 26 23 19 13
98 98 99 99 99 100 93 84 86 100 100 100 100 85 59 65 70 76 77 77 72 46 31 28 24 21 22 23 25 27 28 30 32 35 36 37 37 35 33 30 26 22 18
99 97 96 98 100 100 92 80 74 99 100 100 100 97 86 88 81 80 76 73 42 30 29 24 22 21 22 24 26 28 31 34 37 40 41 41 40 39 38 36 35 32 26

GFSMW_700_rhum_090.txt.gz
RH
75 82 81 83 79 72 65 56 69 56 58 56 52 50 43 44 43 43 44 41 40 43 39 34 36 43 37 38 39 42 45 48 49 46 45 40 38 42 47 56 63 72 79
77 87 85 78 81 72 60 49 56 58 66 59 61 59 59 56 54 51 49 43 42 38 37 39 44 43 43 45 48 52 53 57 59 56 54 49 47 48 53 53 58 63 68
61 60 68 70 65 68 68 53 41 39 50 53 61 55 58 56 47 50 50 47 52 50 50 50 51 52 53 55 58 58 60 65 67 65 63 62 54 51 48 48 55 63 63
61 59 56 57 55 46 46 43 41 41 36 35 46 46 53 52 49 51 52 58 65 58 62 61 60 61 59 58 61 60 61 65 70 72 72 69 64 64 53 40 38 45 60
60 61 60 61 57 51 47 46 42 39 38 35 33 37 44 47 50 50 51 56 64 62 68 70 68 68 65 68 62 62 68 72 76 75 68 58 51 48 43 43 54 99 79
59 60 58 56 54 54 53 52 52 45 42 41 40 45 44 46 49 52 52 55 57 63 64 62 66 68 67 67 71 72 68 67 61 52 41 37 38 34 47 68 79 74 94
35 34 37 51 52 53 58 58 57 53 48 46 49 50 53 49 48 46 45 48 53 55 58 61 63 66 71 71 62 51 46 40 30 30 28 31 35 39 59 81 56 73 67
32 39 35 34 34 40 61 64 64 61 54 52 50 50 49 46 43 41 39 36 36 41 46 50 51 48 46 37 27 24 31 42 36 30 35 40 38 41 45 46 50 48 45
16 23 33 36 39 41 44 58 64 64 60 55 54 52 50 48 45 39 34 33 32 31 28 24 22 22 22 22 28 36 31 32 34 40 40 34 32 30 34 36 36 34 34
29 31 30 34 40 43 47 45 51 52 55 55 56 53 52 50 46 40 30 22 19 21 20 18 17 18 20 23 31 30 29 30 30 29 26 26 26 27 29 31 36 40 45
37 31 29 32 36 45 54 52 53 57 57 58 56 55 54 49 46 39 28 17 17 17 16 17 19 22 26 27 26 25 24 24 24 26 33 38 39 40 42 48 53 52 49
44 40 38 40 42 46 54 60 59 54 54 53 55 54 52 48 41 23 21 23 24 25 27 27 27 27 26 26 25 26 25 26 31 43 48 51 53 54 47 39 38 36 39
45 47 48 50 52 55 59 64 65 63 58 50 44 42 37 28 28 29 30 30 29 29 28 28 28 27 25 24 25 28 34 41 46 48 54 52 40 36 37 35 38 45 49
52 54 56 59 59 58 55 55 56 56 55 52 46 43 43 41 38 36 34 33 31 30 29 28 27 24 26 33 38 42 45 47 47 40 35 36 38 38 38 43 46 48 49
60 61 60 59 55 57 59 59 62 62 59 56 52 48 44 42 40 40 37 34 31 27 23 23 28 37 42 44 45 46 44 34 32 36 38 37 36 44 46 50 52 54 55
60 65 61 59 62 66 66 62 59 57 54 52 51 49 46 44 42 40 36 32 28 25 32 42 47 48 47 43 34 29 32 37 35 35 37 42 48 48 52 52 48 26 16
68 67 67 67 66 63 61 59 57 56 56 56 54 52 48 44 41 38 36 32 29 35 48 49 48 40 30 28 32 35 37 40 42 43 52 51 54 55 44 20 16 16 14
68 66 66 66 67 66 63 62 64 68 73 78 74 69 57 51 46 46 46 46 49 52 50 37 28 30 36 38 43 46 51 53 56 58 58 58 51 29 18 17 17 17 15
69 68 68 68 67 64 78 88 94 90 85 94 95 98 77 71 68 65 62 59 54 39 31 34 40 46 50 53 55 57 58 62 65 62 56 36 21 17 18 19 20 20 20
71 70 70 69 68 78 94 96 96 97 98 90 100 100 100 95 86 81 71 55 44 46 48 50 52 58 62 60 60 62 66 66 59 43 22 18 17 18 20 22 24 24 21
70 72 74 68 72 96 98 96 91 98 100 100 96 98 100 100 99 97 82 69 60 59 61 64 65 65 65 64 66 67 60 38 22 20 18 18 20 22 24 26 26 21 20
93 97 98 98 97 100 100 96 100 96 98 99 100 100 100 100 98 100 98 78 72 72 73 72 73 74 71 70 62 35 22 20 20 20 21 22 24 27 30 29 26 24 23
98 100 97 99 100 99 99 99 96 99 100 99 99 99 100 98 93 96 100 90 84 80 80 81 78 75 72 42 22 21 21 21 22 24 25 27 31 32 32 32 30 28 26
98 99 100 100 99 99 97 98 98 100 100 100 99 100 100 99 77 80 95 85 84 84 86 82 79 64 31 21 21 22 22 24 26 28 30 33 35 35 35 33 32 30 31
98 99 99 98 97 98 98 98 98 91 94 100 100 100 100 96 77 76 84 87 84 87 83 81 54 29 22 21 22 23 25 27 29 31 35 38 38 38 37 36 37 38 40
96 99 98 98 98 98 98 99 96 83 81 100 100 100 100 100 82 81 86 84 84 82 79 52 30 24 21 21 23 24 26 28 31 35 39 42 43 42 42 44 46 49 49

GFSMW_700_rhum_093.txt.gz
RH
92 90 97 81 79 87 84 90 88 86 90 78 72 57 40 41 49 53 45 39 46 50 55 58 56 54 50 50 43 36 38 42 47 44 51 51 48 48 47 48 51 53 53
99 98 90 89 88 85 80 88 92 90 90 91 91 86 72 68 60 53 51 51 46 47 48 45 39 39 43 43 40 42 45 48 54 53 59 55 55 57 58 55 54 55 59
95 94 93 91 89 85 83 86 90 96 96 95 94 93 85 73 68 58 53 50 50 50 45 44 45 45 45 47 48 50 53 60 60 64 64 64 65 65 60 54 53 58 62
80 86 89 80 84 92 86 87 83 77 75 78 73 90 92 93 77 76 70 70 67 65 58 55 58 58 57 57 59 65 73 76 68 64 68 76 80 78 59 46 27 34 47
71 74 73 79 80 81 78 74 76 81 77 68 60 59 72 76 82 77 72 62 79 84 67 62 67 69 73 80 80 86 76 75 67 70 74 79 67 52 47 36 95 66 84
69 65 64 62 71 64 66 67 57 56 56 56 59 58 56 64 68 72 68 67 62 61 60 65 74 67 60 64 65 72 73 71 71 75 71 54 39 32 32 33 42 78 67
65 66 64 59 59 61 61 61 58 54 52 50 48 50 51 49 49 53 50 52 54 55 52 52 55 57 59 63 67 68 70 72 68 54 33 27 37 33 36 39 44 48 96
46 52 55 59 60 60 60 57 56 57 56 54 52 49 51 54 52 56 53 50 47 41 38 37 42 48 54 61 62 62 58 51 35 25 37 37 34 38 45 44 43 43 55
30 29 40 47 47 41 42 49 55 61 64 62 59 57 55 56 53 49 47 45 44 40 36 34 30 28 28 27 24 22 22 30 26 33 33 32 36 40 29 28 28 28 30
20 30 33 33 33 33 36 38 38 38 58 67 66 64 61 58 55 52 50 46 41 33 28 23 21 22 24 23 20 18 20 23 27 32 31 39 30 28 27 29 31 32 35
21 21 19 23 28 32 35 39 44 43 45 51 56 58 59 59 58 53 50 46 38 30 24 16 14 15 16 17 19 24 26 27 27 27 26 27 26 32 42 46 46 48 49
33 32 32 29 28 31 36 41 48 53 51 53 57 57 58 58 55 52 48 42 34 27 17 15 16 20 21 24 27 27 27 27 29 27 28 29 38 47 50 56 50 40 36
37 40 36 33 35 37 41 48 55 60 63 61 60 60 58 55 54 52 48 38 27 20 22 23 25 27 28 26 27 26 26 26 27 31 36 45 50 54 49 40 38 34 38
46 48 48 46 48 51 55 59 61 62 62 64 64 63 61 54 48 43 38 34 33 32 31 30 28 29 30 28 28 26 26 31 40 45 48 54 51 37 38 39 36 43 45
53 53 53 54 54 54 55 57 58 57 57 57 56 58 57 54 50 46 43 41 39 35 33 32 31 29 25 25 25 33 43 45 47 50 46 37 40 41 36 38 46 49 48
59 59 58 58 61 60 56 56 58 59 61 61 59 58 56 53 50 47 44 41 40 38 35 34 28 23 26 38 45 47 48 46 40 34 36 39 37 38 47 52 54 46 22
54 56 62 66 67 68 66 63 61 59 58 57 56 55 54 52 50 48 45 43 41 37 34 30 28 30 43 50 52 47 36 31 36 38 38 40 46 51 55 52 28 18 17
64 64 68 69 68 66 65 62 61 60 59 60 62 62 67 64 56 50 44 39 37 35 33 33 35 48 50 43 31 32 35 38 43 46 47 54 56 58 39 21 17 18 19
67 68 68 68 67 66 64 62 62 66 72 82 87 79 88 85 75 61 56 53 56 54 50 51 52 43 33 33 40 44 48 52 56 58 63 62 50 26 18 18 19 20 22
68 71 68 67 67 69 67 64 82 92 93 97 89 98 89 99 100 99 86 84 77 67 58 46 38 41 46 52 57 58 60 62 64 67 57 34 20 18 18 20 22 24 26
68 65 63 61 62 61 62 78 97 100 98 94 90 100 99 95 98 100 100 100 93 69 55 55 53 54 60 65 65 66 67 70 64 44 22 18 18 19 21 24 27 28 27
64 75 83 88 88 89 78 92 100 99 98 99 98 97 96 94 100 100 100 100 100 91 80 74 69 72 74 74 72 72 70 50 25 19 19 20 22 24 27 31 31 30 29
88 87 91 98 97 92 93 96 99 100 100 99 99 99 99 99 99 100 100 100 100 99 94 88 83 84 83 79 75 61 30 20 19 20 22 24 26 30 33 33 32 31 30
86 83 95 98 98 95 98 98 99 97 98 98 99 99 98 98 100 100 99 100 100 100 98 96 92 89 83 77 50 22 20 20 21 24 26 28 32 35 36 35 34 34 35
86 94 97 99 99 98 98 98 98 97 98 97 93 100 100 98 100 100 95 100 100 99 97 98 96 88 82 46 21 19 21 22 24 27 29 32 37 39 40 38 39 40 44
90 90 98 98 97 98 97 97 98 97 96 86 83 96 100 99 100 100 97 97 100 100 97 97 88 84 50 23 19 20 22 24 26 28 31 35 40 42 44 45 47 51 54

GFSMW_700_rhum_096.txt.gz
RH
48 63 68 87 82 87 88 90 82 81 80 80 79 76 64 55 56 53 51 48 47 43 40 40 42 44 49 50 56 52 47 36 37 39 47 49 52 56 56 55 57 56 58
66 71 70 89 88 83 89 96 97 98 92 91 82 83 99 82 68 67 58 46 42 40 39 44 53 56 57 57 47 48 40 40 44 47 54 56 57 61 65 65 65 65 62
49 72 88 83 95 88 91 85 91 98 95 94 83 83 91 93 87 79 74 57 47 50 60 61 58 54 50 44 46 45 42 46 52 58 63 65 62 62 63 70 71 61 55
52 86 90 88 95 100 98 94 91 96 99 93 95 98 95 95 98 99 95 87 77 74 64 57 54 51 51 52 52 54 57 63 66 73 76 77 72 71 71 64 42 32 39
62 85 86 97 100 97 98 98 99 98 93 95 97 96 98 96 97 97 96 90 93 91 81 85 79 80 68 67 73 78 74 74 78 78 78 82 82 85 77 54 32 32 33
75 61 92 95 95 100 94 94 94 95 86 96 95 97 95 95 95 98 91 94 97 95 97 96 85 88 86 92 82 89 68 75 80 80 79 80 81 77 50 28 38 39 57
61 75 69 73 71 74 78 84 79 70 72 74 78 84 87 89 95 91 95 94 89 94 99 99 89 79 81 80 70 64 69 64 70 75 76 76 74 45 28 37 35 38 45
44 71 74 73 73 72 75 78 74 79 84 85 73 70 72 69 75 79 92 80 80 88 81 81 65 54 54 58 58 59 58 60 63 64 59 48 32 26 33 34 37 40 33
34 43 72 70 69 65 68 75 74 68 69 69 65 65 68 65 63 69 68 70 73 70 54 47 43 39 35 34 32 30 30 29 27 24 24 22 28 30 33 41 40 30 28
32 28 44 63 64 62 62 62 61 59 57 58 58 64 65 66 62 62 61 56 51 49 48 46 42 34 29 26 22 21 23 25 24 22 23 25 29 31 33 37 30 30 35
32 31 29 28 31 36 42 40 37 38 37 36 42 49 64 67 67 65 62 60 57 55 51 47 41 33 28 21 15 14 16 18 19 22 28 44 32 26 29 29 34 45 50
24 20 22 31 34 35 35 30 35 42 44 43 43 44 50 57 61 62 63 62 59 56 50 45 40 30 24 16 16 18 20 24 26 27 27 98 42 29 31 34 48 53 57
32 30 29 26 27 28 31 33 37 45 50 54 55 55 57 58 59 62 63 62 58 53 49 46 37 28 19 20 24 25 26 28 28 28 30 28 37 38 43 52 57 56 39
40 37 35 36 35 36 39 40 42 47 54 56 55 57 60 62 61 60 58 57 54 52 48 42 33 24 25 27 28 28 29 29 30 29 30 34 45 50 55 56 44 39 39
46 46 46 45 43 42 42 43 46 50 52 53 53 55 60 62 64 62 59 56 51 46 41 35 33 33 31 33 32 31 29 26 25 30 39 47 51 55 51 41 42 37 43
49 52 51 50 50 50 51 53 54 56 56 54 52 51 51 52 55 56 56 54 51 47 44 42 40 36 36 34 32 29 26 33 45 49 49 49 46 39 45 45 40 49 52
46 52 56 56 55 56 58 58 56 54 55 57 58 57 57 55 54 54 52 49 47 45 42 42 41 39 36 32 32 32 44 51 54 51 41 39 40 42 44 51 56 53 26
50 48 48 50 56 60 61 61 62 61 59 58 57 57 57 58 61 62 62 54 49 46 43 41 39 37 35 35 38 48 54 51 41 38 42 43 45 50 56 59 41 20 17
58 56 57 59 61 63 64 62 61 61 61 62 64 66 68 77 79 82 82 73 57 52 43 44 44 42 46 48 54 50 40 41 44 46 51 54 59 62 59 29 18 18 19
64 66 66 66 66 67 66 66 66 65 64 79 84 85 86 86 91 90 85 100 90 80 78 72 69 60 58 52 43 46 50 54 59 65 67 69 65 42 21 18 18 20 23
64 64 65 65 66 67 67 67 67 68 75 85 92 87 88 84 98 95 93 99 100 100 100 88 77 65 56 55 57 62 66 69 73 75 72 53 27 18 18 20 22 25 28
69 66 60 57 60 65 69 70 75 76 80 95 94 98 98 99 91 99 90 95 98 100 100 98 81 77 71 70 74 78 79 81 80 65 37 20 18 19 21 24 28 31 30
82 78 80 80 83 87 98 91 96 88 89 98 98 99 99 95 98 95 99 99 97 100 100 100 100 93 87 88 90 86 85 78 52 26 18 19 20 23 26 30 33 33 32
85 83 78 76 91 99 100 100 93 100 99 100 99 96 98 98 96 95 99 100 99 100 100 100 100 100 99 97 93 87 71 39 20 19 20 22 25 28 32 36 37 35 34
89 84 81 89 99 99 100 100 96 98 98 98 97 97 98 97 100 100 99 100 100 100 100 100 100 100 100 100 95 70 33 19 19 20 23 26 28 32 37 39 40 40 40
86 85 84 86 96 99 99 100 100 99 98 98 98 96 85 88 100 99 97 100 100 100 100 100 100 100 100 90 82 40 18 19 20 23 25 28 31 35 39 42 44 45 48

GFSMW_700_rhum_099.txt.gz
RH
66 80 52 53 58 67 77 72 66 69 82 75 80 76 49 51 64 57 51 49 48 47 48 48 48 48 48 48 48 49 48 56 53 38 36 40 46 53 56 59 61 63 64
67 76 48 48 54 74 75 77 69 76 78 70 68 72 82 62 55 69 70 66 59 56 53 50 50 46 45 46 48 49 57 57 46 39 42 46 51 58 64 66 67 72 74
74 70 59 39 50 62 75 80 76 87 88 76 80 80 77 88 83 66 73 73 77 74 63 52 50 46 49 52 54 59 56 54 44 44 49 54 62 72 73 73 73 81 79
79 77 82 44 47 58 69 83 88 92 96 87 92 85 78 97 100 86 76 72 79 72 60 65 73 70 66 67 66 60 60 55 50 52 58 68 76 79 80 73 77 81 63
82 61 76 82 65 68 80 80 91 87 84 86 100 87 88 89 85 99 92 85 82 71 72 89 97 82 82 75 79 80 79 74 78 81 83 81 78 75 81 80 85 77 39
81 35 35 60 70 79 83 79 88 93 86 94 96 97 99 94 96 99 93 99 98 97 94 97 99 98 94 69 79 92 92 94 97 96 92 80 77 78 83 92 87 59 27
39 32 41 54 89 88 90 77 87 96 98 99 96 92 95 97 99 97 99 99 99 98 98 99 100 94 87 95 98 89 82 83 96 85 84 73 74 78 84 79 48 31 29
52 33 57 68 92 89 89 96 91 96 84 74 78 88 99 77 85 93 97 98 100 100 99 99 100 92 87 85 81 81 76 76 79 74 73 72 65 48 33 29 26 28 33
71 31 50 63 82 68 57 61 83 81 82 86 89 91 80 71 72 74 75 85 80 78 90 95 81 68 68 64 58 57 50 42 38 36 37 35 33 31 30 30 29 33 35
66 68 41 67 70 72 80 80 81 80 82 78 74 71 70 66 65 70 71 71 79 74 71 67 56 53 54 54 46 39 35 32 29 25 24 22 25 28 34 33 42 30 57
36 43 52 42 65 69 71 71 70 66 66 68 64 61 61 63 68 66 68 67 70 69 64 57 54 54 54 52 47 41 35 32 22 19 19 22 23 29 51 99 50 32 32
33 34 34 37 37 58 70 69 65 59 54 47 43 45 45 47 58 65 69 70 70 68 65 63 62 62 57 53 49 44 36 25 21 24 26 29 29 30 33 66 98 42 35
34 33 33 32 31 34 45 54 47 42 41 42 50 50 49 49 54 60 65 70 73 76 79 79 74 66 58 54 51 45 33 28 28 30 32 31 32 31 77 78 43 47 50
38 32 27 24 27 33 38 42 43 40 45 52 55 56 57 57 57 56 59 60 62 62 62 61 59 57 54 51 47 40 32 31 32 32 32 32 33 34 35 37 52 55 59
44 42 41 40 40 39 38 36 38 43 44 47 53 55 57 54 55 60 61 62 62 60 58 57 55 51 48 44 40 36 34 34 31 32 33 30 30 33 46 55 56 59 48
50 49 48 46 45 42 40 41 44 44 43 47 52 55 58 59 60 58 56 54 53 53 52 51 49 48 45 42 40 37 36 36 33 31 29 31 45 51 54 53 52 44 47
50 54 53 51 51 51 52 52 53 54 56 57 58 56 55 53 53 54 53 53 53 53 52 50 48 46 43 42 39 39 37 35 35 32 34 50 55 54 48 42 47 47 51
50 47 47 49 49 50 52 53 56 57 57 56 55 55 54 54 53 53 54 57 61 60 55 52 47 45 43 41 38 36 37 38 38 39 52 56 49 43 46 48 48 56 59
54 54 49 48 48 51 53 55 57 58 58 58 58 57 57 58 60 62 67 76 78 79 74 63 55 47 41 40 38 37 40 45 50 55 47 42 47 53 54 61 62 50 22
65 62 59 58 58 59 58 58 60 61 62 62 60 60 65 77 80 83 87 83 78 80 85 82 71 67 62 59 56 54 56 56 49 45 49 56 62 65 67 64 37 19 18
68 65 63 65 67 65 64 62 62 63 65 66 63 62 70 79 82 84 82 85 88 86 86 91 92 92 89 82 71 62 59 57 58 61 65 74 76 73 50 24 18 18 21
68 67 65 64 63 61 60 61 60 61 63 64 62 66 79 84 81 87 95 95 92 90 94 94 100 100 99 94 87 83 77 75 74 78 79 80 62 31 18 17 19 22 27
73 68 64 56 51 61 73 74 80 85 85 83 90 97 93 87 97 100 100 93 94 93 97 90 96 100 100 100 98 90 86 87 88 88 79 45 23 18 18 21 24 29 32
86 84 81 77 75 73 76 97 93 97 96 92 100 100 100 100 99 95 96 99 92 94 98 93 98 99 100 100 100 99 99 98 95 76 39 20 18 19 22 26 30 34 36
87 85 83 79 76 86 94 98 100 99 96 88 90 98 100 99 97 96 97 99 97 98 97 97 99 99 100 100 100 100 100 95 70 37 19 18 20 23 27 30 35 38 40
93 89 85 84 80 87 98 100 98 98 99 98 95 96 95 95 97 91 87 98 98 97 98 100 99 99 99 100 100 100 100 77 35 19 18 20 23 26 29 33 37 41 45

GFSMW_700_rhum_102.txt.gz
RH
71 79 54 56 52 57 63 79 73 83 82 76 50 62 86 65 65 59 52 50 47 44 44 44 44 45 45 46 47 49 49 51 50 51 54 39 37 43 50 58 65 71 70
72 71 71 58 59 53 54 65 76 74 73 82 63 67 82 66 58 58 62 60 60 58 56 53 50 49 48 49 50 50 50 51 49 58 51 40 42 48 55 66 74 78 77
59 65 71 71 55 50 50 56 63 76 75 79 80 78 84 78 66 60 54 61 77 72 74 76 61 56 52 53 49 48 51 51 57 63 51 44 47 55 63 73 74 76 78
62 65 70 68 51 45 47 54 56 68 77 82 87 90 93 81 71 66 70 68 68 83 89 82 77 72 58 53 52 56 55 67 69 63 54 58 68 81 83 78 74 81 83
70 68 72 75 60 43 42 48 53 65 73 82 87 85 84 84 81 84 76 75 93 74 80 94 95 92 72 62 70 82 72 74 74 71 64 76 94 99 97 86 87 83 88
80 78 72 87 85 48 39 38 53 61 70 71 78 85 88 87 87 89 92 87 95 87 83 86 93 93 92 85 87 94 98 93 85 66 92 96 95 97 81 88 88 87 92
77 79 68 77 86 52 38 39 56 65 80 85 99 98 96 84 88 95 98 96 99 100 93 96 97 93 98 99 97 91 98 91 86 95 90 84 65 76 76 84 89 92 55
64 65 52 56 55 43 50 51 75 79 78 79 84 88 90 82 73 91 97 97 99 100 98 100 100 100 98 100 100 100 98 98 95 80 74 74 79 86 84 65 46 37 34
60 60 62 30 39 44 66 95 96 95 88 80 88 89 85 86 84 99 95 98 76 80 95 98 98 98 96 96 96 78 73 62 56 65 56 52 45 40 39 38 38 37 42
61 62 57 40 37 59 91 100 96 95 89 71 87 90 90 85 95 98 96 83 84 84 83 88 83 80 74 63 65 63 60 53 48 43 42 44 43 36 26 24 28 42 90
65 66 66 49 45 60 85 90 70 63 74 76 71 93 83 72 69 73 79 81 74 78 76 78 79 78 73 66 65 58 57 55 53 51 48 41 31 25 26 27 34 99 76
63 64 72 76 41 65 65 64 66 66 69 74 80 77 62 61 60 61 59 63 73 74 78 78 78 77 76 70 64 62 61 58 55 53 48 36 28 28 30 38 32 34 90
42 52 65 55 32 37 64 70 71 71 70 62 62 62 56 50 51 50 49 56 62 69 70 73 77 80 86 89 83 77 68 60 55 52 47 34 30 31 32 32 36 37 89
39 36 38 39 35 35 36 44 60 70 69 64 50 47 49 55 54 55 54 52 53 64 72 78 82 82 81 75 69 64 60 56 50 45 40 35 34 33 34 35 37 72 93
40 38 37 33 30 28 32 34 38 45 48 50 46 44 50 50 54 58 59 60 58 60 59 60 59 56 56 54 51 49 48 47 44 40 37 36 35 34 34 33 40 44 50
45 43 41 38 36 34 32 33 36 40 42 43 44 46 55 59 62 60 57 57 57 57 55 52 48 46 49 48 47 45 45 44 43 41 40 39 38 39 36 33 44 54 56
56 56 52 50 48 46 44 43 44 46 47 48 50 54 59 59 60 58 55 53 53 52 52 50 50 49 49 48 46 43 43 43 42 41 40 40 41 39 38 51 56 55 50
52 54 55 54 54 55 56 56 57 57 57 57 58 59 58 56 55 55 55 54 53 54 56 56 56 54 51 49 47 43 42 42 42 41 41 41 42 48 55 58 53 44 46
48 50 49 49 50 51 52 52 56 58 60 61 61 60 58 58 58 58 59 59 60 59 59 63 66 70 69 63 57 48 44 43 43 44 45 50 53 59 56 48 47 50 54
62 61 58 56 54 57 57 58 61 61 62 62 62 61 61 60 59 57 61 66 72 77 82 78 83 78 78 75 65 71 58 51 52 60 61 62 57 54 56 56 57 64 62
71 70 68 65 64 61 62 63 63 63 64 66 66 67 66 65 64 67 73 82 79 81 84 87 85 88 88 84 83 91 85 72 70 71 66 66 68 68 68 68 69 53 25
74 73 71 70 68 67 66 64 63 60 64 65 66 64 66 71 71 75 93 83 81 85 95 94 88 87 88 100 100 100 93 90 89 86 80 78 81 81 81 67 39 17 18
76 75 74 72 69 65 61 61 65 71 71 71 78 80 85 84 89 84 83 89 100 96 95 96 88 90 90 98 100 100 100 100 99 99 94 93 92 79 44 20 17 18 21
84 83 81 82 82 79 75 75 75 83 98 93 92 99 95 99 100 98 99 100 98 98 100 99 95 96 92 98 98 100 100 100 100 100 100 95 64 35 18 17 19 23 27
84 83 90 87 84 78 72 78 87 98 99 99 100 99 92 90 91 92 92 95 98 92 96 100 98 94 93 99 96 97 100 100 100 100 100 66 29 18 17 20 24 28 33
91 92 89 84 77 72 71 78 94 100 100 100 99 98 96 94 95 92 93 96 95 86 94 99 98 93 92 98 96 96 97 97 98 98 83 60 30 18 20 24 27 32 37

GFSMW_700_rhum_105.txt.gz
RH
79 64 53 52 58 80 90 95 96 84 82 70 74 88 87 89 70 52 44 43 40 42 43 43 44 44 44 45 45 46 46 48 50 50 52 51 56 40 42 48 56 71 78
74 65 54 52 54 54 68 84 92 96 97 86 65 70 65 73 80 78 65 62 58 53 48 44 44 45 46 46 46 47 48 51 52 51 50 52 56 42 44 53 64 77 82
77 79 73 64 56 54 52 64 73 81 84 94 93 82 88 76 81 73 69 66 70 74 66 63 62 60 58 56 55 56 56 55 54 54 51 57 58 47 47 55 73 82 84
69 76 76 73 68 55 55 52 51 57 69 81 77 78 85 86 82 75 81 78 78 74 63 68 78 79 76 72 73 68 61 60 58 55 60 68 64 51 50 62 74 77 82
58 61 63 67 68 64 49 51 57 58 55 62 75 78 78 73 77 82 83 79 87 90 89 79 86 84 94 91 89 86 76 74 69 66 68 72 70 70 75 75 84 76 83
63 61 65 66 68 65 53 51 56 64 62 59 59 67 74 80 75 77 79 79 85 86 89 95 97 87 99 99 94 97 98 93 92 90 90 86 82 95 97 89 76 75 85
63 67 65 69 70 62 51 46 41 45 44 54 64 68 66 71 73 75 79 84 80 74 79 98 90 90 99 98 96 97 99 100 100 99 99 94 96 97 89 74 69 77 85
71 71 71 65 74 73 52 47 40 46 43 48 63 81 77 73 75 81 81 80 77 72 76 82 99 100 100 100 99 100 100 100 99 100 100 100 98 96 88 83 71 52 53
76 82 82 79 72 73 78 71 51 45 54 82 98 91 90 88 90 81 76 79 86 92 90 79 84 88 97 100 97 90 100 100 98 91 78 78 69 73 62 46 43 44 45
62 73 80 78 73 64 68 59 47 58 75 96 91 94 88 90 88 86 79 86 87 76 74 84 95 93 92 92 91 73 70 62 64 61 54 54 54 50 46 44 43 37 36
50 54 59 55 54 51 54 48 72 83 87 87 92 91 80 94 90 88 87 82 87 80 82 84 96 96 96 90 88 87 83 73 66 63 62 58 55 54 52 46 34 27 30
52 58 63 65 62 51 50 54 84 98 81 78 68 85 86 93 85 67 67 68 70 71 80 82 84 84 84 85 80 79 75 67 65 65 66 63 59 57 55 46 33 32 34
52 63 68 67 64 62 50 62 87 98 75 76 74 74 72 75 70 63 58 56 59 59 69 75 79 81 82 80 79 79 83 87 86 83 80 73 66 62 51 42 33 33 33
65 64 67 70 66 54 53 65 73 82 76 74 72 68 62 53 45 47 45 54 56 56 59 64 68 81 88 94 92 88 87 82 76 69 65 61 55 50 43 38 36 37 36
46 65 66 65 63 59 50 44 58 68 70 71 70 69 64 47 46 46 56 60 61 62 63 59 59 63 65 63 60 59 58 57 53 51 48 46 46 42 40 39 38 38 38
48 45 44 50 49 42 36 35 36 37 38 42 50 49 51 49 50 56 66 64 62 64 59 59 60 61 57 52 46 44 44 44 42 40 40 41 40 40 39 38 37 39 38
53 52 51 48 43 40 38 36 36 37 39 42 47 51 51 53 56 61 64 61 60 59 57 55 52 51 50 50 49 49 46 44 43 42 41 41 40 42 41 40 42 41 41
63 60 58 57 54 50 48 47 46 45 47 51 55 56 58 60 62 64 62 59 56 56 55 55 54 54 55 56 53 48 42 41 38 37 39 40 41 42 43 44 44 45 56
57 56 55 55 56 57 56 56 56 58 60 62 64 65 65 64 62 61 59 59 58 58 60 62 62 62 66 67 68 68 66 56 52 46 40 41 43 45 46 48 54 62 65
65 62 58 56 52 51 52 53 53 54 57 60 62 62 62 61 60 60 60 59 57 58 66 69 67 68 72 75 77 77 71 64 61 63 53 48 50 56 58 62 66 61 64
72 70 68 67 64 62 60 61 59 60 60 62 64 65 65 63 63 64 65 64 62 65 71 67 62 70 76 84 81 83 84 76 74 73 72 69 72 69 69 65 69 71 75
74 76 75 73 67 64 64 65 64 64 66 68 67 66 67 68 69 70 76 82 83 80 87 86 99 98 93 91 81 83 89 88 85 88 92 90 88 83 80 81 87 85 70
75 75 74 74 72 72 70 68 66 64 63 63 65 69 73 82 90 96 94 94 99 100 100 100 100 98 100 98 92 87 90 98 98 99 100 100 100 98 98 96 86 41 19
87 84 82 79 78 76 77 78 77 78 81 85 93 98 100 99 100 100 97 97 98 99 100 100 100 100 98 100 97 92 94 95 100 100 100 100 100 100 98 66 32 16 16
94 86 83 82 87 87 81 76 74 81 88 99 100 99 100 100 99 99 98 93 91 89 93 96 91 98 100 100 94 88 98 97 97 98 99 100 99 97 59 23 15 16 20
98 98 93 89 88 83 78 76 76 78 100 100 100 100 99 100 100 100 100 95 91 89 91 89 90 93 98 100 94 89 99 97 98 98 98 97 98 84 31 18 17 20 25

GFSMW_700_rhum_108.txt.gz
RH
90 72 79 76 82 82 81 84 89 89 72 72 80 82 56 44 38 41 41 40 42 43 44 45 46 46 46 46 46 46 46 46 46 48 49 51 52 52 56 40 42 47 56
98 85 80 75 86 84 80 73 83 91 88 82 91 92 99 64 78 70 66 53 45 44 43 44 45 44 44 44 44 44 45 45 47 48 51 52 52 52 58 46 46 47 55
98 87 83 75 75 85 90 91 89 88 98 90 97 95 85 87 94 88 84 84 75 66 65 56 58 73 66 61 57 55 56 57 56 54 56 55 53 55 60 51 50 53 58
86 72 80 72 69 66 66 83 90 87 84 91 93 82 89 88 91 86 86 77 76 77 78 80 77 83 78 72 83 90 84 77 73 66 62 59 55 62 65 60 55 66 70
82 81 74 73 65 61 59 58 62 61 79 91 92 91 91 99 90 95 88 76 77 74 78 81 82 88 89 91 91 96 100 97 82 92 90 68 60 64 68 65 65 78 79
65 68 82 74 68 68 60 53 58 64 60 59 63 68 80 81 81 84 80 79 78 81 93 93 79 80 96 93 95 96 94 97 96 98 99 98 97 80 97 94 78 90 78
74 62 61 64 64 65 61 59 56 56 57 65 63 61 59 62 66 70 80 86 86 84 86 84 84 87 93 97 81 97 98 100 99 99 98 100 97 97 99 99 99 97 74
61 61 61 62 63 64 62 56 49 52 53 45 47 45 51 60 72 69 70 68 74 82 88 84 78 76 84 87 85 97 100 100 99 100 100 100 100 100 100 98 99 94 62
62 65 69 70 64 58 62 63 49 54 51 42 41 40 54 73 89 93 93 91 85 78 71 78 89 91 84 88 100 100 96 98 98 100 100 100 100 99 98 99 98 97 67
73 63 68 74 75 68 66 67 65 69 59 44 40 48 67 80 88 83 89 88 82 78 79 82 82 79 80 79 79 85 99 93 85 81 97 90 78 82 90 73 66 65 56
68 76 79 81 82 79 75 72 66 64 57 42 52 78 84 90 86 87 92 91 87 88 89 91 93 88 80 79 86 87 90 89 91 90 87 73 69 67 64 63 61 58 57
47 54 61 79 81 80 79 66 55 50 46 63 84 93 94 85 94 92 93 89 87 89 82 88 90 65 82 92 92 88 86 91 91 90 86 90 83 74 74 72 67 62 64
47 46 51 63 66 66 59 51 52 49 62 92 84 82 86 94 93 92 92 68 71 63 65 59 63 72 84 86 84 87 87 83 86 84 90 95 88 80 80 80 75 68 59
41 48 57 59 63 66 68 62 55 64 89 94 79 79 83 79 70 62 60 56 42 44 50 53 58 64 71 79 82 87 86 86 77 77 77 74 71 67 64 60 57 53 48
63 55 60 65 68 70 70 65 63 74 93 100 90 77 75 70 67 66 48 44 44 44 48 55 60 62 63 64 64 63 63 63 60 56 53 52 50 48 46 46 47 47 46
58 66 64 66 67 68 69 68 68 65 79 89 86 79 78 75 72 57 48 39 41 46 51 58 54 58 65 63 59 57 54 48 46 44 44 43 41 40 40 42 44 45 45
52 53 63 71 74 78 76 71 55 47 46 54 66 67 61 54 50 49 47 47 51 53 56 58 58 57 56 54 52 51 50 49 47 46 44 41 38 39 41 42 44 45 47
57 54 53 53 56 56 52 45 41 42 44 46 47 46 46 49 51 52 52 53 56 60 59 56 54 54 54 54 54 53 51 51 51 52 51 46 41 37 37 42 45 46 46
69 68 64 61 60 58 56 54 51 50 48 48 49 51 53 56 57 59 60 60 60 58 56 57 59 62 63 60 59 58 61 67 65 65 61 55 51 49 46 45 47 48 49
63 59 58 62 64 63 62 61 61 62 63 62 63 64 65 64 61 60 60 60 60 62 63 63 63 63 62 62 58 53 64 72 76 73 66 60 59 59 56 53 51 56 59
71 69 66 62 60 59 59 58 57 59 58 59 61 63 63 61 61 61 62 62 65 67 67 67 68 59 56 57 48 56 76 81 77 74 72 71 75 77 72 67 70 73 73
74 76 73 73 73 70 67 66 66 65 66 65 65 64 63 64 64 64 64 65 64 62 60 60 60 68 70 67 76 73 80 84 81 79 85 82 99 100 93 90 85 84 85
75 74 78 80 76 72 69 68 67 67 66 66 65 65 66 64 61 61 64 70 77 81 84 87 96 99 98 99 88 90 90 92 87 84 94 99 100 100 100 100 98 100 98
84 83 82 80 80 79 77 73 70 64 65 65 66 68 71 82 91 96 95 98 100 95 92 92 98 96 92 100 100 100 97 92 89 89 98 100 100 100 100 100 100 96 69
95 94 92 88 82 77 77 79 79 76 72 73 77 85 94 93 91 98 98 100 98 98 95 88 85 89 86 88 87 91 95 92 85 94 96 99 99 97 97 98 94 54 22
97 96 90 85 85 85 83 79 75 69 66 72 96 100 98 100 99 99 100 100 100 99 90 87 87 86 84 84 85 88 94 94 88 92 95 97 100 100 99 97 60 21 15

GFSMW_700_rhum_111.txt.gz
RH
92 98 99 90 88 98 99 79 61 96 70 57 43 32 26 27 28 27 28 30 32 35 38 41 42 44 47 49 49 48 47 47 47 47 46 47 49 51 53 54 54 42 45
83 85 84 82 88 91 97 88 89 96 71 64 62 63 36 30 31 31 32 35 37 38 40 42 44 46 46 47 46 46 45 45 45 45 46 47 49 52 54 53 58 48 44
85 84 81 91 98 85 87 83 95 99 93 81 77 84 82 56 41 49 59 54 48 51 53 51 48 47 48 53 60 66 59 60 66 68 62 55 54 57 56 54 59 58 50
94 92 77 75 85 93 96 100 97 99 92 93 84 85 85 70 57 67 87 79 87 80 77 65 66 66 66 80 75 81 86 83 83 93 96 86 74 67 60 63 60 64 64
81 88 79 76 78 94 99 99 99 86 81 76 98 99 100 100 97 87 82 91 93 92 75 82 90 93 90 99 94 95 99 100 98 99 99 97 95 84 95 92 70 71 76
96 98 86 82 78 89 92 98 98 100 92 87 93 97 96 91 99 98 98 92 80 99 91 92 98 99 91 90 80 87 76 90 90 98 98 100 99 100 100 97 88 82 90
100 95 94 86 76 83 78 73 72 70 71 76 79 74 78 84 96 94 93 98 99 99 87 92 89 94 90 89 89 80 86 100 93 99 100 98 98 100 99 99 100 100 100
95 84 94 91 72 71 66 61 60 61 61 64 70 69 77 83 87 79 79 81 84 83 81 83 88 91 91 90 85 78 86 90 99 100 100 100 99 100 100 100 100 99 100
75 72 63 62 65 67 70 67 59 61 55 60 60 60 61 70 72 80 83 89 87 89 87 84 86 83 77 83 80 84 85 100 100 99 99 99 100 100 100 100 100 100 100
75 73 61 62 61 71 71 68 59 57 57 60 64 54 44 46 54 67 75 76 74 78 75 77 78 79 81 80 73 76 84 98 97 93 90 99 100 100 100 98 100 98 99
70 75 65 67 72 77 76 61 58 58 62 53 59 45 44 56 83 85 85 82 89 88 87 83 83 82 88 89 94 91 90 88 92 93 93 100 92 94 98 98 95 94 89
58 74 74 65 68 80 81 79 76 69 64 55 55 50 62 95 95 92 89 91 91 90 89 91 88 91 95 93 74 82 87 93 93 89 98 100 99 91 85 88 82 83 84
36 52 70 74 80 80 79 77 78 72 46 46 49 61 90 99 99 97 98 95 94 92 75 70 66 67 68 65 64 64 70 85 87 86 84 89 95 96 94 88 90 89 82
50 49 50 62 59 72 74 72 67 58 50 51 64 80 82 83 89 90 93 84 68 75 73 51 50 52 56 58 60 63 66 74 76 77 75 68 66 60 55 53 54 54 51
48 46 54 55 56 62 61 63 62 60 57 63 90 90 82 83 87 80 69 64 63 47 43 42 50 54 58 57 58 56 54 53 54 56 59 54 50 45 42 40 42 42 40
40 39 43 56 57 57 64 69 70 70 68 76 92 92 95 87 78 77 72 74 64 50 43 48 56 60 58 58 58 58 56 54 51 49 48 48 47 47 45 43 41 40 43
48 62 66 62 68 70 69 70 72 71 69 68 80 97 98 90 81 80 78 69 54 50 50 58 57 56 59 61 58 54 52 51 50 49 48 46 45 48 48 46 43 39 38
50 55 64 73 70 73 76 75 77 76 70 56 51 57 71 78 77 68 56 54 52 48 53 53 55 57 56 57 54 52 51 50 48 44 46 50 54 53 54 51 47 45 48
64 59 58 59 64 71 73 72 70 59 46 42 42 44 48 52 52 54 52 51 54 54 59 58 58 56 56 55 52 48 46 48 48 45 41 53 63 65 59 53 50 52 54
69 72 73 72 67 64 60 56 54 53 52 52 51 50 52 54 57 55 58 63 63 61 58 57 57 57 56 52 50 51 45 41 38 39 56 71 74 70 64 60 60 64 66
73 70 67 66 66 68 68 66 67 67 65 65 66 66 66 65 65 65 62 61 58 58 59 60 61 60 58 53 50 44 50 56 46 60 71 81 81 74 66 67 76 78 78
75 72 73 71 70 67 63 61 61 58 60 61 62 62 62 63 62 62 62 60 62 65 65 64 61 60 63 70 69 66 61 64 79 74 77 85 84 78 74 82 85 88 92
84 77 76 74 72 73 73 70 67 65 65 65 65 65 65 65 65 64 63 66 66 67 69 77 82 80 76 72 72 74 75 69 85 84 81 86 83 84 86 99 100 100 100
93 92 85 84 84 80 76 74 73 72 72 72 71 70 68 67 67 68 68 70 85 94 97 97 83 74 73 74 73 72 72 73 72 73 80 82 77 89 94 96 97 98 98
91 92 90 90 90 89 86 82 78 76 76 74 72 72 76 81 84 85 87 92 88 91 98 94 92 89 85 82 77 74 73 71 74 75 81 82 83 88 95 95 97 98 98
98 98 96 94 91 86 82 82 81 80 79 75 70 70 84 95 99 93 94 97 98 99 100 98 93 89 88 86 80 76 73 72 76 77 87 88 90 94 96 97 96 98 97

GFSMW_700_rhum_114.txt.gz
RH
100 100 100 91 71 99 90 68 62 49 51 60 54 50 32 28 26 25 24 23 23 24 27 34 41 45 46 46 48 50 50 50 48 48 47 47 46 46 48 51 53 55 52
100 100 99 98 85 79 99 94 89 55 64 71 53 51 40 30 29 28 27 26 27 29 31 34 38 41 43 45 47 49 48 47 47 47 47 48 50 49 49 51 54 54 56
99 100 100 88 94 80 88 99 98 75 67 79 77 59 63 50 36 31 30 30 30 33 36 38 40 42 45 48 52 68 77 77 77 81 73 74 79 73 78 66 60 56 56
100 97 99 92 86 91 95 96 97 91 74 92 87 68 64 48 37 37 35 34 36 39 44 46 47 50 67 78 73 61 84 91 94 86 95 98 96 97 96 93 75 64 68
99 89 95 86 87 92 94 96 96 100 99 99 94 87 89 94 62 51 49 62 68 78 76 74 84 73 88 87 81 94 84 96 94 91 98 80 98 97 99 99 93 90 91
92 99 90 79 82 93 96 98 88 95 86 99 100 98 87 100 89 84 73 90 91 87 84 80 74 89 96 97 96 97 86 74 87 88 97 93 88 99 99 98 100 100 100
99 95 88 86 82 86 96 90 94 91 95 98 99 100 99 100 96 96 98 86 96 96 98 98 98 99 100 98 85 95 93 91 90 85 90 96 97 100 100 98 98 99 99
84 91 86 89 82 91 92 82 87 93 99 100 100 100 100 95 99 98 98 94 100 97 98 90 90 92 93 99 100 93 78 77 85 88 98 99 100 99 100 100 100 100 100
73 87 92 89 84 91 97 81 80 86 88 84 99 98 97 90 93 97 85 96 95 92 94 91 93 88 89 98 94 82 71 70 80 86 100 100 97 98 100 100 100 100 100
81 85 97 97 99 97 98 86 90 84 82 92 88 90 94 91 82 85 87 87 93 88 88 88 81 74 81 81 83 82 65 68 95 96 93 90 98 100 100 100 100 98 98
92 88 70 66 72 89 95 90 82 71 62 65 66 71 80 64 83 91 85 79 73 73 85 84 81 75 79 81 88 90 88 85 83 82 85 84 85 83 86 92 96 98 98
86 54 73 64 64 69 87 82 71 66 59 56 55 57 50 59 80 87 83 85 87 80 86 90 89 92 92 92 93 91 96 74 81 84 88 92 95 98 90 84 87 90 89
68 71 78 76 72 84 88 82 75 68 67 61 46 56 63 66 86 89 88 91 89 89 94 92 86 75 72 73 74 76 73 66 71 73 59 62 66 63 70 70 71 78 83
56 61 70 74 74 80 86 80 77 73 66 62 50 55 72 73 91 87 95 88 91 88 76 78 73 67 58 58 61 62 64 64 63 61 58 54 54 52 51 50 49 45 44
49 46 40 47 73 74 77 75 74 70 64 55 53 69 87 86 86 90 90 91 86 67 65 55 46 43 46 54 54 55 58 54 56 55 53 50 49 47 44 43 43 42 40
49 49 49 49 55 60 63 66 67 70 67 65 63 86 98 87 88 90 88 78 70 70 71 60 46 42 42 46 46 48 52 56 55 53 50 48 47 47 48 44 40 39 41
44 44 45 51 62 62 66 69 69 74 72 72 67 77 91 100 98 92 83 80 80 79 75 57 49 47 48 49 49 56 57 55 52 52 51 50 46 44 44 41 42 45 43
52 42 55 58 60 65 72 70 66 72 73 72 72 71 70 91 99 100 98 87 83 76 58 52 49 50 51 56 57 56 55 54 54 50 45 44 40 38 37 40 51 55 54
50 48 50 67 74 74 72 71 75 82 85 84 77 69 53 52 63 80 82 80 70 56 58 55 59 60 61 59 57 58 56 52 46 44 42 40 43 36 48 60 63 61 55
75 62 57 56 57 63 71 75 75 74 72 66 53 48 46 52 60 62 63 62 64 67 68 72 66 63 59 60 59 59 56 54 49 44 40 43 44 54 61 69 69 64 57
71 70 73 74 70 65 62 61 59 58 58 58 57 57 57 62 67 70 68 69 69 70 68 65 64 62 63 64 64 60 56 60 62 60 60 61 56 59 68 77 73 66 58
72 73 73 70 71 68 67 66 67 67 67 68 68 68 66 65 67 69 69 69 67 64 64 65 64 64 65 68 62 56 60 64 61 66 68 65 61 65 73 76 72 67 72
87 76 72 76 77 79 77 72 69 68 67 66 64 64 64 63 65 66 65 65 65 64 63 64 67 73 86 79 68 71 67 69 68 70 66 64 66 73 74 73 72 75 80
81 97 92 89 83 78 78 77 77 76 74 71 68 68 69 69 68 70 70 70 68 69 68 71 95 100 81 78 85 80 78 74 69 64 64 66 75 78 76 72 71 80 84
88 90 97 97 97 96 93 91 88 84 81 80 80 80 77 75 74 76 78 80 79 83 92 98 94 88 79 80 91 88 81 77 72 69 68 70 78 79 78 74 75 82 88
92 99 97 97 97 98 96 92 86 83 81 81 82 81 78 74 74 80 90 94 98 95 93 97 95 95 89 86 90 87 87 86 82 77 77 78 81 82 82 81 80 84 90

GFSMW_700_rhum_117.txt.gz
RH
92 100 99 99 100 87 100 98 78 68 66 44 44 44 35 32 30 28 29 31 30 26 23 22 32 45 51 51 50 50 51 51 51 50 49 48 47 46 46 46 48 50 54
93 100 100 98 98 96 89 99 87 74 66 55 55 46 39 32 30 29 30 32 30 29 27 26 33 42 45 47 48 48 49 52 50 53 68 68 64 58 64 69 76 64 61
91 98 100 94 92 90 100 99 86 88 77 81 68 62 55 47 36 33 30 30 32 34 34 32 32 37 41 44 46 47 51 55 71 77 79 70 74 90 88 82 90 93 93
68 97 98 86 85 94 81 99 95 85 91 90 68 65 56 54 45 33 33 34 35 34 34 34 36 38 41 44 49 52 67 75 73 61 86 87 97 94 82 87 93 99 100
66 96 98 96 92 93 97 83 95 100 99 97 72 79 81 67 57 39 32 34 36 38 38 38 40 42 48 54 61 77 76 85 86 84 79 91 88 89 87 88 95 100 94
81 88 100 90 95 93 98 89 64 80 79 84 92 86 96 86 73 68 41 35 39 41 43 46 52 56 70 80 84 93 94 83 85 91 80 86 95 99 96 96 100 100 99
98 100 92 83 88 89 89 90 82 66 91 98 97 92 100 99 96 88 60 46 52 64 73 73 75 83 80 84 94 95 93 97 96 93 98 90 99 100 98 95 98 100 100
100 97 100 92 94 100 97 98 96 97 100 88 93 92 93 100 100 99 88 70 87 98 99 99 99 87 91 96 92 90 96 92 96 86 80 77 100 96 99 98 100 100 100
100 100 97 98 93 94 91 82 86 99 99 97 100 99 97 96 99 100 100 97 98 100 100 98 96 98 90 85 96 94 99 97 82 67 76 81 81 82 100 96 100 98 98
100 95 98 98 88 89 88 84 83 86 91 98 98 98 91 98 98 98 99 93 89 74 90 80 88 86 94 96 99 98 90 80 71 67 89 95 87 87 94 96 96 99 100
100 100 100 100 84 89 90 87 77 75 69 86 99 99 98 98 93 93 93 83 87 93 96 87 90 88 86 78 76 83 82 83 76 76 76 82 81 83 79 72 77 85 89
98 91 96 99 99 98 96 86 70 63 64 76 80 91 78 82 82 79 87 91 96 93 91 89 85 83 74 73 79 82 86 87 87 88 79 73 67 67 75 82 78 70 72
90 88 89 80 92 98 99 91 83 82 74 60 60 71 71 80 95 100 99 88 82 82 79 81 79 85 88 84 79 74 76 74 77 78 69 69 71 60 60 64 58 50 48
64 79 89 99 81 92 99 93 80 75 70 64 49 58 70 76 86 87 93 97 96 87 92 93 93 89 77 70 68 68 69 68 65 56 56 56 52 49 47 46 46 44 42
57 57 72 86 83 77 91 92 78 77 72 66 59 52 73 81 98 95 92 92 96 97 95 80 74 65 60 57 45 46 53 54 53 53 52 49 48 50 49 45 44 43 41
53 54 55 52 69 78 78 79 77 72 69 66 57 59 76 89 92 90 94 100 89 92 82 65 68 61 50 44 43 47 50 54 53 49 50 51 51 48 46 43 37 34 34
49 50 49 47 48 58 68 76 77 75 70 69 65 57 65 88 90 92 94 96 94 81 70 73 76 71 55 47 49 54 53 49 52 55 53 52 51 46 37 35 35 29 30
40 42 48 46 52 57 65 78 83 78 76 73 74 72 73 81 93 97 96 95 90 81 83 82 79 66 54 50 52 55 57 59 58 55 54 50 44 40 37 33 42 31 37
46 40 40 53 58 62 67 72 78 78 74 77 82 83 83 78 76 81 93 98 98 99 91 85 71 60 56 58 60 62 61 58 58 56 51 45 42 44 40 44 49 48 55
69 62 59 52 65 75 71 77 83 80 78 80 82 80 79 72 56 53 56 66 79 79 78 71 66 63 66 68 66 63 63 63 64 52 47 50 52 49 52 56 56 60 63
68 70 73 73 66 61 61 66 70 71 70 69 66 62 57 53 53 57 60 65 66 69 71 68 69 70 68 66 67 69 70 62 52 48 48 56 57 54 57 59 60 63 60
75 76 74 69 68 70 74 75 73 71 72 74 76 78 78 79 78 76 74 74 73 71 71 74 72 67 65 68 72 70 64 58 60 68 66 63 61 59 59 61 64 64 63
72 79 77 76 75 74 78 76 72 70 70 70 71 71 73 75 77 80 80 78 77 76 72 69 68 67 68 71 78 68 63 78 83 78 73 67 66 63 61 63 61 64 64
74 74 77 86 77 77 82 84 84 82 80 77 75 75 74 72 72 72 71 72 73 73 71 74 78 75 78 82 96 93 84 99 95 88 79 71 69 66 62 60 66 67 68
91 85 81 81 90 92 89 87 88 88 88 87 84 84 85 83 83 81 80 79 78 83 90 90 89 93 99 100 99 95 99 100 98 91 83 80 76 72 67 68 71 70 72
94 97 99 100 100 98 92 96 97 97 95 89 82 78 78 80 81 82 82 87 92 100 100 100 100 99 100 100 100 100 100 100 98 88 81 83 82 78 76 76 73 72 74

GFSMW_700_rhum_120.txt.gz
RH
78 67 77 97 96 75 97 100 99 72 82 83 75 44 38 28 26 25 24 26 28 28 27 27 26 25 38 51 54 54 53 52 52 51 51 50 48 47 46 46 46 48 61
69 62 99 98 82 83 78 91 99 99 87 79 69 51 46 30 28 27 25 29 31 31 28 25 26 29 44 51 53 52 52 51 51 52 50 51 66 71 73 68 69 82 85
77 68 94 99 85 80 79 98 93 97 97 91 90 67 52 40 31 28 27 30 33 32 31 28 28 33 44 48 50 50 50 50 51 53 58 66 65 74 78 92 90 87 87
82 67 63 96 97 68 68 87 99 97 99 96 91 63 48 47 34 31 28 29 33 35 35 33 30 33 40 44 47 48 49 50 53 56 69 74 74 83 86 80 85 84 79
88 91 82 84 95 78 79 87 91 99 86 98 85 79 77 64 54 38 33 31 33 35 34 36 34 35 39 43 45 47 48 52 55 57 74 84 82 80 90 82 99 84 89
81 85 80 97 71 83 80 69 91 97 100 96 93 89 82 81 78 68 41 35 33 36 36 37 39 42 42 43 45 52 57 62 59 68 84 91 85 85 90 89 90 96 79
93 82 84 91 83 74 72 61 82 75 94 100 96 88 99 88 86 80 68 39 36 36 37 38 39 41 44 52 60 68 81 88 81 92 94 94 96 89 90 80 87 77 77
100 99 94 83 60 66 77 78 88 81 83 98 93 95 98 80 86 97 93 78 42 38 39 40 46 57 64 68 74 81 80 79 90 89 94 95 93 68 67 82 99 94 93
98 100 89 95 82 69 64 73 84 85 90 80 76 98 96 100 98 100 100 91 75 47 44 56 69 78 88 81 86 85 84 97 92 100 100 88 63 69 76 88 94 98 99
99 97 100 97 96 84 74 77 72 76 80 77 75 86 95 83 75 100 99 100 97 85 80 93 93 95 96 94 94 96 88 93 98 99 80 67 67 82 84 80 84 81 80
100 100 100 100 93 83 75 72 74 84 94 98 86 76 88 88 83 100 100 97 100 100 97 99 97 100 91 90 92 87 97 100 98 78 73 69 73 76 76 81 75 71 73
100 99 100 100 99 87 81 77 70 72 78 83 88 94 98 99 95 96 93 97 96 94 98 86 93 96 98 100 98 92 87 79 72 78 85 85 85 78 66 64 66 58 55
100 100 99 100 99 93 72 69 69 64 67 76 72 79 71 56 67 82 82 91 91 93 98 100 98 94 96 94 87 78 83 82 81 81 77 90 82 70 67 61 52 45 41
100 97 100 98 99 100 86 83 80 72 61 51 61 71 77 91 100 87 98 98 94 93 90 89 89 83 79 84 90 88 80 75 74 71 70 66 59 55 50 44 42 44 44
100 100 100 99 95 99 94 90 81 74 69 61 51 59 67 80 81 98 98 94 91 86 81 87 91 90 92 92 80 72 68 60 57 62 61 60 53 49 45 45 45 46 44
73 92 86 78 86 74 74 73 76 76 68 62 54 48 64 83 92 91 92 91 91 96 87 92 94 85 83 68 56 52 48 49 55 57 54 53 49 49 51 48 46 44 33
55 54 57 69 94 94 89 79 70 65 68 63 55 49 55 74 85 91 93 93 87 94 89 85 88 66 69 69 60 50 47 47 49 52 52 52 54 52 48 44 39 32 31
46 50 50 51 54 62 84 90 91 85 77 71 67 61 59 68 88 90 89 93 95 94 85 89 73 72 77 77 68 54 50 50 56 55 57 56 52 51 45 41 36 38 33
42 42 45 51 49 56 59 66 83 89 84 78 80 76 73 73 78 96 90 89 90 93 94 87 81 84 83 78 66 61 56 61 61 59 57 54 52 46 42 43 46 49 46
68 56 46 46 60 57 61 68 80 86 91 86 80 78 82 81 80 82 79 81 86 85 90 91 100 96 88 76 63 62 62 63 62 59 56 55 50 45 38 51 53 52 51
71 74 74 65 54 59 75 80 80 83 88 87 84 84 85 87 83 75 68 60 62 73 87 95 94 87 77 72 68 69 68 64 63 59 55 52 50 48 60 59 51 50 48
73 74 76 78 77 81 77 74 70 70 71 70 67 64 64 63 63 63 61 60 62 65 70 78 80 80 79 77 74 71 68 66 68 64 65 59 61 66 67 58 53 51 50
71 68 70 74 76 82 85 79 74 71 74 77 76 73 71 72 75 78 79 80 82 87 89 88 87 83 79 76 72 71 74 75 74 70 80 78 82 76 69 63 60 58 59
66 68 69 72 76 84 85 90 90 88 85 81 81 80 77 76 74 76 80 84 84 84 82 80 79 79 75 76 78 76 75 79 79 94 84 88 84 78 73 72 70 64 68
70 76 74 70 69 71 78 90 91 90 90 87 88 91 91 90 88 86 83 82 81 81 82 82 80 80 84 87 87 93 96 99 100 90 85 91 88 83 83 81 76 72 76
95 98 100 98 97 90 98 99 99 100 98 96 96 95 95 95 95 93 94 94 95 94 93 94 95 97 100 99 100 100 100 100 95 94 92 90 89 77 73 84 78 78 77

GFSMW_700_rhum_123.txt.gz
RH
97 89 63 62 70 68 76 65 81 96 100 99 98 98 50 37 29 25 24 22 21 21 24 30 31 24 26 28 30 51 56 55 54 54 53 52 53 50 48 49 51 49 50
95 99 65 58 68 66 80 75 95 100 100 97 88 93 51 41 30 26 23 22 22 22 27 29 25 24 27 29 40 54 55 55 54 53 52 54 51 54 63 70 76 83 72
96 100 83 66 76 64 60 50 96 100 100 100 99 96 76 56 32 25 23 23 22 25 28 28 26 27 28 28 46 54 54 54 53 52 53 54 59 63 66 75 86 81 94
91 55 62 78 92 82 48 63 64 91 94 100 98 98 69 50 33 26 24 23 24 28 28 29 26 27 28 33 48 52 53 52 52 51 52 53 61 75 68 73 78 80 88
82 61 61 64 98 78 65 65 55 95 100 100 99 95 66 62 40 27 24 24 26 31 33 35 29 28 28 36 46 50 51 51 51 50 51 56 64 79 83 84 88 87 80
97 66 68 63 95 92 96 86 60 88 100 97 98 89 72 69 59 34 27 26 26 33 34 36 32 29 29 37 43 46 49 50 51 51 56 69 71 82 86 86 85 85 81
80 87 93 77 79 95 74 78 70 73 98 94 100 100 88 71 73 51 35 30 28 32 35 36 36 32 33 36 40 43 47 48 50 55 57 78 78 84 90 94 83 64 64
96 93 90 92 97 92 84 76 72 79 94 85 100 99 94 96 82 87 60 43 35 30 33 37 38 41 41 41 40 44 47 49 52 61 68 83 97 89 99 84 60 67 76
92 99 99 98 88 80 82 72 69 58 73 76 97 95 98 93 94 86 92 93 62 44 35 35 39 40 42 44 45 47 52 55 62 59 85 92 96 97 87 62 69 82 83
100 97 99 92 85 78 68 72 73 62 91 81 63 79 96 96 94 100 94 92 90 72 51 48 42 41 44 45 46 53 58 66 71 80 92 95 97 93 73 75 77 71 71
100 100 98 100 99 79 57 67 70 76 93 94 90 80 64 90 98 96 91 87 99 97 76 58 58 54 72 70 68 79 84 87 90 98 96 100 86 75 75 78 74 71 61
100 96 92 88 89 91 76 90 79 83 94 99 95 100 100 85 95 94 90 100 100 99 98 93 64 69 89 87 86 81 83 93 98 92 100 94 89 87 90 87 76 64 70
100 100 96 84 75 71 83 85 84 79 85 96 97 99 99 94 89 86 98 97 99 100 100 100 90 88 86 94 94 99 98 97 99 96 88 88 83 79 87 84 71 63 54
100 100 100 99 87 78 74 77 79 87 92 82 88 86 90 97 97 93 97 96 89 89 91 95 94 99 97 99 99 100 96 83 74 78 78 74 70 70 67 59 55 49 45
99 100 100 100 97 91 89 76 64 59 63 61 68 80 80 89 94 94 94 100 100 99 100 99 99 100 99 98 93 81 83 87 85 74 68 67 65 60 58 50 47 45 43
98 99 94 99 100 92 84 79 72 64 59 54 52 59 67 92 86 93 83 78 79 88 88 82 82 78 77 72 79 88 86 75 70 68 52 48 50 51 48 45 46 46 44
71 89 98 98 87 85 76 61 57 62 60 53 47 44 54 68 77 90 87 93 90 89 86 81 82 92 92 94 92 78 59 51 47 43 42 43 48 47 46 48 49 46 45
58 57 58 82 100 99 85 71 66 70 71 63 57 52 61 73 82 90 91 84 93 95 94 90 98 92 92 70 66 69 68 62 52 47 46 47 51 50 53 53 49 45 40
48 54 57 56 61 73 96 99 97 88 79 73 70 63 58 61 84 93 95 96 98 98 96 92 84 83 85 69 71 78 78 71 60 55 52 52 54 58 56 50 48 42 36
57 49 50 63 62 60 64 74 88 96 99 97 86 82 77 73 71 74 92 98 94 94 100 99 97 95 88 82 85 86 83 74 65 60 60 63 62 58 55 52 47 41 42
64 68 65 62 56 64 78 78 81 87 91 95 92 91 86 84 83 86 89 86 85 89 92 95 88 100 100 99 99 94 90 75 70 69 68 66 65 62 57 51 45 47 52
62 60 59 62 65 64 58 58 68 77 84 88 92 96 94 88 86 84 82 86 88 86 81 78 84 94 95 98 87 96 85 76 73 72 70 67 66 62 58 56 53 57 60
74 68 64 65 64 61 62 62 63 66 68 70 71 70 69 69 68 68 68 68 66 64 62 66 79 84 88 92 91 88 84 79 76 75 70 68 66 64 65 70 77 71 66
91 92 86 74 71 71 74 77 72 66 65 65 68 70 74 77 80 80 81 82 83 83 84 90 92 92 94 93 92 87 83 80 79 76 74 78 77 76 72 80 85 79 71
73 89 100 100 100 100 95 94 95 94 90 87 84 82 77 73 70 71 75 79 81 82 85 89 92 91 91 89 87 83 80 83 84 87 85 82 89 89 84 83 83 82 79
40 46 56 70 83 100 100 100 100 100 100 98 94 90 89 88 85 82 79 80 82 87 87 86 84 84 84 86 86 89 92 88 86 87 90 99 98 90 91 87 88 80 67

GFSMW_700_rhum_126.txt.gz
RH
78 55 67 69 65 62 62 69 69 64 68 100 99 100 100 97 67 44 67 97 56 53 17 38 21 29 32 22 23 27 29 50 56 56 55 54 54 53 52 49 60 70 72
85 85 60 78 40 60 68 62 65 61 57 98 96 99 99 96 69 42 64 28 33 22 19 37 24 28 31 25 26 27 34 55 56 56 55 54 54 54 51 68 76 75 80
62 54 91 64 63 61 73 82 64 58 55 99 98 100 88 100 78 52 33 27 22 19 17 27 26 27 30 25 25 28 44 56 57 56 55 54 53 54 58 67 69 74 81
24 52 98 74 50 72 91 70 72 58 76 96 100 100 96 97 76 49 31 25 21 18 17 20 24 26 28 25 27 29 48 56 57 55 54 53 54 54 58 66 79 80 82
23 35 67 94 69 87 96 68 80 58 70 96 100 100 100 98 85 59 35 24 21 20 20 21 24 30 28 26 27 30 48 55 56 54 54 52 52 54 64 83 87 86 87
34 48 82 98 69 100 100 100 82 62 65 99 99 100 98 98 89 74 36 24 23 22 22 23 28 33 29 28 30 35 46 53 54 54 53 52 51 53 59 66 73 81 86
76 50 66 63 90 100 100 89 78 58 57 99 100 99 97 97 87 70 36 25 23 23 23 27 32 34 31 30 35 38 44 50 52 52 52 51 50 51 58 76 84 86 77
97 97 78 61 90 100 94 99 78 68 65 89 90 93 99 96 83 78 39 25 24 24 24 30 34 36 34 32 35 38 42 47 49 50 50 49 48 54 62 82 89 92 69
93 77 70 78 98 92 96 82 78 75 76 88 88 98 100 92 86 81 58 30 26 25 26 32 36 39 39 36 37 38 40 43 45 46 48 46 50 62 80 92 94 74 58
81 89 98 100 99 99 90 80 78 88 85 91 86 89 100 93 90 95 83 50 33 28 28 33 37 38 42 45 45 40 40 41 42 44 46 45 52 78 89 97 93 71 67
97 100 99 98 92 96 91 84 88 85 70 68 62 61 78 100 100 95 96 89 61 48 39 33 33 38 42 45 49 45 46 45 44 46 52 53 52 77 85 93 76 74 76
100 97 96 99 96 91 79 88 82 79 84 94 84 76 76 89 87 100 100 96 94 99 84 56 54 47 42 46 43 48 50 47 58 66 92 84 88 80 95 90 80 81 82
98 100 99 96 98 98 94 83 91 100 100 100 100 90 90 87 89 94 99 100 99 97 96 93 83 68 65 65 61 72 70 69 69 84 75 75 89 91 96 82 76 72 68
100 100 100 99 99 100 100 97 99 98 99 100 100 96 81 73 86 86 94 94 96 96 99 100 100 98 96 92 90 99 96 87 81 94 95 99 100 90 82 75 67 64 54
100 100 99 99 100 100 99 100 100 100 99 100 100 98 86 82 77 90 90 92 97 92 100 98 100 100 100 98 88 98 100 99 100 86 82 86 89 78 73 72 61 56 52
100 99 98 99 95 94 82 72 80 86 81 82 85 85 86 92 93 90 90 90 90 97 92 100 100 100 100 99 100 100 100 100 86 84 89 87 76 73 57 54 60 58 51
99 100 97 91 90 89 80 72 70 67 60 58 64 71 79 99 94 92 98 98 100 98 99 89 82 81 99 100 95 89 93 90 91 86 75 70 60 50 50 53 50 52 47
96 92 89 86 78 72 76 80 73 70 66 61 54 56 67 85 87 90 91 96 98 99 96 88 84 90 91 92 90 94 96 95 74 58 54 51 50 50 53 54 53 51 53
70 67 90 97 95 78 72 72 71 74 75 69 63 59 60 72 98 100 99 98 98 99 99 99 99 98 93 96 98 89 73 68 68 70 67 61 57 57 54 58 60 58 55
49 50 68 63 63 71 86 96 92 87 92 87 81 75 70 70 72 80 93 99 100 100 100 100 100 100 99 100 92 89 70 71 80 82 78 70 65 64 64 63 63 58 55
60 61 55 51 49 57 57 55 57 66 87 98 99 92 88 78 73 69 71 74 76 84 92 98 98 98 95 98 98 98 85 86 92 93 92 82 73 69 66 65 61 57 52
65 58 56 54 53 54 56 59 60 64 71 69 72 78 79 87 85 78 70 68 74 78 79 79 77 75 78 88 96 99 97 99 99 97 99 88 81 75 71 67 63 62 57
60 56 64 66 63 62 60 58 58 61 59 59 68 81 87 87 90 92 89 82 78 75 74 78 81 82 87 88 94 93 95 100 100 92 95 91 81 77 73 72 72 67 64
41 41 45 53 64 70 72 74 71 70 73 70 62 60 63 71 74 75 72 68 70 66 62 64 64 66 66 63 73 91 99 100 99 95 93 88 84 79 78 79 77 71 74
28 28 30 31 36 41 44 47 56 63 78 82 81 79 74 72 72 73 68 75 82 83 81 80 80 77 82 92 97 97 95 96 97 93 89 85 83 81 82 82 78 82 85
25 20 22 27 28 30 33 39 45 57 71 84 95 98 98 100 100 99 96 92 90 85 82 80 86 91 90 99 100 99 100 99 96 92 87 85 88 86 85 86 97 96 90

GFSMW_700_rhum_129.txt.gz
RH
26 27 19 18 12 14 14 17 44 41 55 49 55 70 82 98 100 93 81 62 68 83 86 97 64 51 20 29 27 23 26 30 27 44 56 57 55 54 53 51 50 57 63
28 23 20 29 16 18 17 34 56 72 60 53 46 56 82 95 94 100 86 67 72 80 74 93 42 42 19 32 29 24 26 32 27 51 58 56 54 54 54 52 56 62 66
25 24 30 28 30 31 34 63 69 72 67 65 62 68 81 90 98 99 79 60 70 83 69 89 40 34 20 30 29 24 26 28 31 57 57 56 54 54 54 54 60 68 79
23 26 42 40 31 54 92 68 73 97 80 63 60 65 88 100 100 97 74 68 76 80 98 95 27 27 22 29 31 26 27 30 44 57 57 56 56 55 55 57 60 67 78
20 19 20 40 67 100 81 80 90 97 82 63 67 84 93 100 100 97 68 60 69 93 70 96 74 22 22 30 32 28 31 33 47 57 57 56 55 54 53 53 55 57 66
16 18 27 76 100 100 98 99 99 94 97 99 95 82 98 97 100 100 75 70 60 70 44 79 24 19 21 30 34 30 33 35 45 56 56 55 55 53 52 52 54 60 68
31 38 48 79 97 98 96 99 99 83 100 97 86 78 95 99 100 94 84 71 47 32 23 21 19 18 21 28 35 30 35 36 42 54 56 55 55 54 52 51 52 58 73
70 81 91 74 74 84 99 100 96 82 92 96 82 76 97 100 99 88 84 72 46 27 23 21 20 20 22 32 38 34 37 39 40 49 54 55 54 53 51 50 54 57 64
75 78 94 69 85 98 100 100 96 98 96 88 80 66 96 97 96 96 99 86 52 28 23 22 22 22 24 34 38 35 36 40 41 42 49 52 52 51 49 48 53 61 74
87 94 95 67 97 99 99 100 99 100 100 91 83 85 91 80 93 98 100 79 47 28 23 23 23 24 29 39 43 38 38 42 43 42 43 46 47 47 46 48 59 62 81
100 99 98 98 100 100 100 100 100 100 99 92 76 65 62 81 75 87 90 70 52 29 23 23 24 27 32 39 44 43 40 40 41 41 42 45 47 48 49 55 74 87 75
97 88 89 99 100 100 100 99 98 100 100 94 78 66 79 98 87 98 93 86 68 36 26 25 25 29 35 40 44 46 46 43 43 42 46 52 60 63 68 69 84 88 83
99 100 100 100 100 100 98 94 99 100 100 96 83 79 96 100 100 99 98 99 90 59 35 28 29 30 35 40 44 48 51 52 54 56 57 73 75 93 96 94 97 99 100
100 99 100 100 100 98 99 100 100 100 100 95 95 92 99 100 100 98 99 93 94 84 62 52 45 43 44 44 47 50 52 52 61 77 89 84 91 89 70 89 100 100 98
100 100 100 100 100 100 100 100 100 100 98 99 100 97 98 99 98 100 100 100 99 99 98 94 100 100 94 87 87 81 81 92 98 99 94 96 96 78 100 98 100 97 77
100 100 100 98 100 100 100 100 100 100 100 100 99 90 94 100 99 100 99 99 96 100 99 100 100 100 100 100 99 99 100 100 100 99 99 99 99 100 94 90 86 79 62
100 100 100 100 100 98 92 90 90 86 78 75 79 82 90 98 100 100 100 98 100 100 95 99 93 84 97 100 100 100 100 99 99 100 100 99 100 97 87 77 72 55 53
99 98 97 95 92 88 82 77 71 64 60 60 68 76 94 100 100 100 98 99 98 98 100 100 100 100 100 100 100 99 100 99 100 99 98 100 92 80 73 65 56 58 52
99 93 88 84 82 93 83 75 74 73 70 68 66 61 57 63 74 85 97 99 97 99 96 95 100 97 96 99 99 99 100 100 98 98 97 83 65 61 59 60 61 60 62
62 69 72 80 81 85 83 87 82 67 65 74 76 67 64 62 61 59 77 98 93 88 94 95 85 86 94 88 84 92 96 97 94 81 77 76 78 73 71 70 73 72 68
61 58 53 54 59 61 56 55 60 51 76 73 67 66 76 72 75 70 68 60 53 53 63 58 71 78 82 82 73 87 97 99 99 96 84 89 94 95 92 85 78 72 68
53 54 53 49 47 49 52 49 41 52 61 57 49 71 74 71 74 81 78 76 71 74 72 76 76 74 79 72 66 76 77 81 91 90 89 93 93 95 98 96 91 76 73
38 38 41 42 40 42 42 46 46 55 52 48 58 56 58 73 69 82 92 91 84 85 84 84 89 86 86 88 88 87 86 90 76 64 77 89 91 97 100 97 85 78 74
26 28 29 30 30 28 30 30 31 37 44 53 57 63 62 63 66 62 54 67 89 94 98 96 92 87 89 91 92 93 93 93 92 98 99 94 98 90 86 83 88 82 80
16 16 16 11 11 14 18 19 27 26 25 29 35 53 61 62 62 62 85 82 74 70 78 82 78 81 80 76 81 85 82 100 100 100 99 100 100 98 96 95 90 86 86
12 13 13 14 13 14 14 13 13 12 12 13 12 11 12 25 39 52 66 81 92 99 93 83 83 88 91 96 96 96 100 99 100 100 98 99 99 98 98 98 97 92 95